[[{"header":{"parameterUnit":"m.s-1","parameterCategory":1,"la1":31.0,"la2":29.5877,"lo1":-88.7671,"lo2":-86.6584,"dy":0.0162,"dx":0.0185,"nx":115,"ny":88,"refTime":"2024-06-29T06:00:00:Z","depth":0,"parameterNumber":2,"parameterNumberName":"U-component_of_WINDS"},"data":[0.0,0.0,0.0,0.0,0.0,0.0,0.0,0.0,0.0,0.0,0.0,0.0,0.0,0.0,0.0,0.0,0.0,0.0,0.0,0.0,0.0,0.0,0.0,0.0,0.0,0.0,0.0,0.0,0.0,0.0,0.0,0.0,0.0,0.0,0.0,0.0,0.0,0.0,0.0,0.0,0.0,0.0,0.0,0.0,0.0,0.0,0.0,0.0,0.0,0.0,0.0,0.0,0.0,0.0,0.0,0.0,0.0,0.0,0.0,0.0,0.0,0.0,0.0,0.0,0.0,0.0,0.0,0.0,0.0,0.0,0.0,0.0,0.0,0.0,0.0,0.0,0.0,0.0,0.0,0.0,0.0,0.0,0.0,0.0,0.0,0.0,0.0,0.0,0.0,0.0,0.0,0.0,0.0,0.0,0.0,0.0,0.0,0.0,0.0,0.0,0.0,0.0,0.0,0.0,0.0,0.0,0.0,0.0,0.0,0.0,0.0,0.0,0.0,0.0,0.0,0.0,0.0,0.0,0.0,0.0,0.0,0.0,0.0,0.0,0.0,0.0,0.0,0.0,0.0,0.0,0.0,0.0,0.0,0.0,0.0,0.0,0.0,0.0,0.0,0.0,0.0,0.0,0.0,0.0,0.0,0.0,0.0,0.0,0.0,0.0,0.0,0.0,0.0,0.0,0.0,0.0,0.0,0.0,0.0,0.0,0.0,0.0,0.0,0.0,0.0,0.0,0.0,0.0,0.0,0.0,0.0,0.0,0.0,0.0,0.0,0.0,0.0,0.0,0.0,0.0,0.0,0.0,0.0,0.0,0.0,0.0,0.0,0.0,0.0,0.0,0.0,0.0,0.0,0.0,0.0,0.0,0.0,0.0,0.0,0.0,0.0,0.0,0.0,0.0,0.0,0.0,0.0,0.0,0.0,0.0,0.0,0.0,0.0,0.0,0.0,0.0,0.0,0.0,0.0,0.0,0.0,0.0,0.0,0.0,0.0,0.0,0.0,0.0,0.0,0.0,0.0,0.0,0.0,0.0,0.0,0.0,0.0,0.0,0.0,0.0,0.0,0.0,0.0,0.0,0.0,0.0,0.0,0.0,0.0,0.0,0.0,0.0,0.0,0.0,0.0,0.0,0.0,0.0,0.0,0.0,0.0,0.0,0.0,0.0,0.0,0.0,0.0,0.0,0.0,0.0,0.0,0.0,0.0,0.0,0.0,0.0,0.0,0.0,0.0,0.0,0.0,0.0,0.0,0.0,0.0,0.0,0.0,0.0,0.0,0.0,0.0,0.0,0.0,0.0,0.0,0.0,0.0,0.0,0.0,0.0,0.0,0.0,0.0,0.0,0.0,0.0,0.0,0.0,0.0,0.0,0.0,0.0,0.0,0.0,0.0,0.0,0.0,0.0,0.0,0.0,0.0,0.0,0.0,0.0,0.0,0.0,0.0,0.0,0.0,0.0,0.0,0.0,0.0,0.0,0.0,0.0,0.0,0.0,0.0,0.0,0.0,0.0,0.0,0.0,0.0,0.0,0.0,0.0,0.0,0.0,0.0,0.0,0.0,0.0,0.0,0.0,0.0,0.0,0.0,0.0,0.0,0.0,0.0,0.0,0.0,0.0,0.0,0.0,0.0,0.0,0.0,0.0,0.0,0.0,0.0,0.0,0.0,0.0,0.0,0.0,0.0,0.0,0.0,0.0,0.0,0.0,0.0,0.0,0.0,0.0,0.0,0.0,0.0,0.0,0.0,0.0,0.0,0.0,0.0,0.0,0.0,0.0,0.0,0.0,0.0,0.0,0.0,0.0,0.0,0.0,0.0,0.0,0.0,0.0,0.0,0.0,0.0,0.0,0.0,0.0,0.0,0.0,0.0,0.0,0.0,0.0,0.0,0.0,0.0,0.0,0.0,0.0,0.0,0.0,0.0,0.0,0.0,0.0,0.0,0.0,0.0,0.0,0.0,0.0,0.0,0.0,0.0,0.0,0.0,0.0,0.0,0.0,0.0,0.0,0.0,0.0,0.0,0.0,0.0,0.0,0.0,0.0,0.0,0.0,0.0,0.0,0.0,0.0,0.0,0.0,0.0,0.0,0.0,0.0,0.0,0.0,0.0,0.0,0.0,0.0,0.0,0.0,0.0,0.0,0.0,0.0,0.0,0.0,0.0,0.0,0.0,0.0,0.0,0.0,0.0,0.0,0.0,0.0,0.0,0.0,0.0,0.0,0.0,0.0,0.0,0.0,0.0,0.0,0.0,0.0,0.0,0.0,0.0,0.0,0.0,0.0,0.0,0.0,0.0,0.0,0.0,0.0,0.0,0.0,0.0,0.0,0.0,0.0,0.0,0.0,0.0,0.0,0.0,0.0,0.0,0.0,0.0,0.0,0.0,0.0,0.0,0.0,0.0,0.0,0.0,0.0,0.0,0.0,0.0,0.0,0.0,0.0,0.0,0.0,0.0,0.0,0.0,0.0,0.0,0.0,0.0,0.0,0.0,0.0,0.0,0.0,0.0,0.0,0.0,0.0,0.0,0.0,0.0,0.0,0.0,0.0,0.0,0.0,0.0,0.0,0.0,0.0,0.0,0.0,0.0,0.0,0.0,0.0,0.0,0.0,0.0,0.0,0.0,0.0,0.0,0.0,0.0,0.0,0.0,0.0,0.0,0.0,0.0,0.0,0.0,0.0,0.0,0.0,0.0,0.0,0.0,0.0,0.0,0.0,0.0,0.0,0.0,0.0,0.0,0.0,0.0,0.0,0.0,0.0,0.0,0.0,0.0,0.0,0.0,0.0,0.0,0.0,0.0,0.0,0.0,0.0,0.0,0.0,0.0,0.0,0.0,0.0,0.0,0.0,0.0,0.0,0.0,0.0,0.0,0.0,0.0,0.0,0.0,0.0,0.0,0.0,0.0,0.0,0.0,0.0,0.0,0.0,0.0,0.0,0.0,0.0,0.0,0.0,0.0,0.0,0.0,0.0,0.0,0.0,0.0,0.0,0.0,0.0,0.0,0.0,0.0,0.0,0.0,0.0,0.0,0.0,0.0,0.0,0.0,0.0,0.0,0.0,0.0,0.0,0.0,0.0,0.0,0.0,0.0,0.0,0.0,0.0,0.0,0.0,0.0,0.0,0.0,0.0,0.0,0.0,0.0,0.0,0.0,0.0,0.0,0.0,0.0,0.0,0.0,0.0,0.0,0.0,0.0,0.0,0.0,0.0,0.0,0.0,0.0,0.0,0.0,0.0,0.0,0.0,0.0,0.0,0.0,0.0,0.0,0.0,0.0,0.0,0.0,0.0,0.0,0.0,0.0,0.0,0.0,0.0,0.0,0.0,0.0,0.0,0.0,0.0,0.0,0.0,0.0,0.0,0.0,0.0,0.0,0.0,0.0,0.0,0.0,0.0,0.0,0.0,0.0,0.0,0.0,0.0,0.0,0.0,0.0,0.0,0.0,0.0,0.0,0.0,0.0,0.0,0.0,0.0,0.0,0.0,0.0,0.0,0.0,0.0,0.0,0.0,0.0,0.0,0.0,0.0,0.0,0.0,0.0,0.0,0.0,0.0,0.0,0.0,0.0,0.0,0.0,0.0,0.0,0.0,0.0,0.0,0.0,0.0,0.0,0.0,0.0,0.0,0.0,0.0,0.0,0.0,0.0,0.0,0.0,0.0,0.0,0.0,0.0,0.0,0.0,0.0,0.0,0.0,0.0,0.0,0.0,0.0,0.0,0.0,0.0,0.0,0.0,0.0,0.0,0.0,0.0,0.0,0.0,0.0,0.0,0.0,0.0,0.0,0.0,0.0,0.0,0.0,0.0,0.0,0.0,0.0,0.0,0.0,0.0,0.0,0.0,0.0,0.0,0.0,0.0,0.0,0.0,0.0,0.0,0.0,0.0,0.0,0.0,0.0,0.0,0.0,0.0,0.0,0.0,0.0,0.0,0.0,0.0,0.0,0.0,0.0,0.0,0.0,0.0,0.0,0.0,0.0,0.0,0.0,0.0,0.0,0.0,0.0,0.0,0.0,0.0,0.0,0.0,0.0,0.0,0.0,0.0,0.0,0.0,0.0,0.0,0.0,0.0,0.0,0.0,0.0,0.0,0.0,0.0,0.0,0.0,0.0,0.0,0.0,0.0,0.0,0.0,0.0,0.0,0.0,0.0,0.0,0.0,0.0,0.0,0.0,0.0,0.0,0.0,0.0,0.0,0.0,0.0,0.0,0.0,0.0,0.0,0.0,0.0,0.0,0.0,0.0,0.0,0.0,0.0,0.0,0.0,0.0,-0.6224,0.0,0.0,0.0,0.0,0.0,0.0,0.0,0.0,0.0,0.0,0.0,0.0,0.0,0.0,0.0,0.0,0.0,0.0,0.0,0.0,0.0,0.0,0.0,0.0,0.0,0.0,0.0,0.0,0.0,0.0,0.0,0.0,0.0,0.0,0.0,0.0,0.0,0.0,0.0,0.0,0.0,0.0,0.0,0.0,0.0,0.0,0.0,0.0,0.0,0.0,0.0,0.0,0.0,0.0,0.0,0.0,0.0,0.0,0.0,0.0,0.0,0.0,0.0,0.0,0.0,0.0,0.0,0.0,0.0,0.0,0.0,0.0,0.0,0.0,0.0,0.0,0.0,0.0,0.0,0.0,0.0,0.0,0.0,0.0,0.0,0.0,0.0,0.0,0.0,0.0,0.0,0.0,0.0,0.0,0.0,0.0,0.0,0.0,0.0,0.0,0.0,0.0,0.0,0.0,0.0,0.0,0.0,0.0,0.0,0.0,-0.6281,-0.6416,-0.6245,-0.6212,-0.6293,0.0,0.0,0.0,0.0,0.0,0.0,0.0,0.0,0.0,0.0,0.0,0.0,0.0,0.0,0.0,0.0,0.0,0.0,0.0,0.0,0.0,0.0,0.0,0.0,0.0,0.0,0.0,0.0,0.0,0.0,0.0,0.0,0.0,0.0,0.0,0.0,0.0,0.0,0.0,0.0,0.0,0.0,0.0,0.0,0.0,0.0,0.0,0.0,0.0,0.0,0.0,0.0,0.0,0.0,0.0,0.0,0.0,0.0,0.0,0.0,0.0,0.0,0.0,0.0,0.0,0.0,0.0,0.0,0.0,0.0,0.0,0.0,0.0,0.0,0.0,0.0,0.0,0.0,0.0,0.0,0.0,0.0,0.0,0.0,0.0,0.0,0.0,0.0,0.0,0.0,0.0,0.0,0.0,0.0,0.0,0.0,0.0,0.0,0.0,0.0,0.0,0.0,0.0,0.0,0.0,0.0,0.0,0.0,0.0,0.0,0.0,0.0,-0.7109,-0.7002,-0.6895,0.0,0.0,0.0,0.0,0.0,0.0,0.0,0.0,0.0,0.0,0.0,0.0,0.0,0.0,0.0,0.0,0.0,0.0,0.0,0.0,0.0,0.0,0.0,0.0,0.0,0.0,0.0,0.0,0.0,0.0,0.0,0.0,0.0,0.0,0.0,0.0,0.0,0.0,0.0,0.0,0.0,0.0,0.0,0.0,0.0,0.0,0.0,0.0,0.0,0.0,0.0,0.0,0.0,0.0,0.0,0.0,0.0,0.0,0.0,0.0,0.0,0.0,0.0,0.0,0.0,0.0,0.0,0.0,0.0,0.0,0.0,0.0,0.0,0.0,0.0,0.0,0.0,0.0,0.0,0.0,0.0,0.0,0.0,0.0,0.0,0.0,0.0,0.0,0.0,0.0,0.0,0.0,0.0,0.0,0.0,0.0,0.0,0.0,0.0,0.0,0.0,0.0,0.0,0.0,0.0,0.0,0.0,0.0,0.0,0.0,-0.7373,-0.9165,-0.892,0.0,-0.862,0.0,0.0,0.0,0.0,0.0,0.0,0.0,0.0,0.0,0.0,0.0,0.0,0.0,0.0,0.0,0.0,0.0,0.0,0.0,0.0,0.0,0.0,0.0,0.0,0.0,0.0,0.0,0.0,0.0,0.0,0.0,0.0,0.0,0.0,0.0,0.0,0.0,0.0,0.0,0.0,0.0,0.0,0.0,0.0,0.0,0.0,0.0,0.0,0.0,0.0,0.0,0.0,0.0,0.0,0.0,0.0,0.0,0.0,0.0,0.0,0.0,0.0,0.0,0.0,0.0,0.0,0.0,0.0,0.0,0.0,0.0,0.0,0.0,0.0,0.0,0.0,0.0,0.0,0.0,0.0,0.0,0.0,0.0,0.0,0.0,0.0,0.0,0.0,0.0,0.0,0.0,0.0,0.0,0.0,0.0,0.0,0.0,0.0,0.0,0.0,0.0,0.0,0.0,0.0,0.0,0.0,0.0,0.0,0.0,0.0,0.0,-0.9485,-0.929,-0.9148,0.0,0.0,0.0,0.0,0.0,0.0,0.0,0.0,0.0,0.0,0.0,0.0,0.0,0.0,0.0,0.0,0.0,0.0,0.0,0.0,0.0,0.0,0.0,0.0,0.0,0.0,0.0,0.0,0.0,0.0,0.0,0.0,0.0,0.0,0.0,0.0,0.0,0.0,0.0,0.0,0.0,0.0,0.0,0.0,0.0,0.0,0.0,0.0,0.0,0.0,0.0,0.0,0.0,0.0,0.0,0.0,0.0,0.0,0.0,0.0,0.0,0.0,0.0,0.0,0.0,0.0,0.0,0.0,0.0,0.0,0.0,0.0,0.0,0.0,0.0,0.0,0.0,0.0,0.0,0.0,0.0,0.0,0.0,0.0,0.0,0.0,0.0,0.0,0.0,0.0,0.0,0.0,0.0,0.0,0.0,0.0,0.0,0.0,0.0,0.0,0.0,0.0,0.0,0.0,0.0,0.0,0.0,0.0,0.0,0.0,-0.9136,0.0,-1.0154,-1.0082,-0.9826,-0.9328,0.0,0.0,0.0,0.0,0.0,0.0,0.0,0.0,0.0,0.0,0.0,0.0,0.0,0.0,0.0,0.0,0.0,0.0,0.0,0.0,0.0,0.0,0.0,0.0,0.0,0.0,0.0,0.0,0.0,0.0,0.0,0.0,0.0,0.0,0.0,0.0,0.0,0.0,0.0,0.0,0.0,0.0,0.0,0.0,0.0,0.0,0.0,0.0,0.0,0.0,0.0,0.0,0.0,0.0,0.0,0.0,0.0,0.0,0.0,0.0,0.0,0.0,0.0,0.0,0.0,0.0,0.0,0.0,0.0,0.0,0.0,0.0,0.0,0.0,0.0,0.0,0.0,0.0,0.0,0.0,0.0,0.0,0.0,0.0,0.0,0.0,0.0,0.0,0.0,0.0,0.0,0.0,0.0,0.0,0.0,0.0,0.0,0.0,0.0,0.0,0.0,0.0,0.0,0.0,0.0,0.0,0.0,0.0,0.0,-1.0271,-1.0272,-1.1851,-1.1889,-1.1066,0.0,0.0,0.0,0.0,0.0,0.0,0.0,0.0,0.0,0.0,0.0,0.0,0.0,0.0,0.0,0.0,0.0,0.0,0.0,0.0,0.0,0.0,0.0,0.0,0.0,0.0,0.0,0.0,0.0,0.0,0.0,0.0,0.0,0.0,0.0,0.0,0.0,0.0,0.0,0.0,0.0,0.0,0.0,0.0,0.0,0.0,0.0,0.0,0.0,0.0,0.0,0.0,0.0,0.0,0.0,0.0,0.0,0.0,0.0,0.0,0.0,0.0,0.0,0.0,0.0,0.0,0.0,0.0,0.0,0.0,0.0,0.0,0.0,0.0,0.0,0.0,0.0,0.0,0.0,0.0,0.0,0.0,0.0,0.0,0.0,0.0,0.0,0.0,0.0,0.0,0.0,0.0,0.0,0.0,0.0,0.0,0.0,0.0,0.0,0.0,0.0,0.0,0.0,0.0,0.0,0.0,0.0,0.0,0.0,-0.8688,-0.9267,-1.1084,-1.398,-1.1805,-1.0638,0.0,0.0,0.0,0.0,0.0,0.0,0.0,0.0,0.0,0.0,0.0,0.0,0.0,0.0,0.0,0.0,0.0,0.0,0.0,0.0,0.0,0.0,0.0,0.0,0.0,0.0,0.0,0.0,0.0,0.0,0.0,0.0,0.0,0.0,0.0,0.0,0.0,0.0,0.0,0.0,0.0,0.0,0.0,0.0,0.0,0.0,0.0,0.0,0.0,0.0,0.0,0.0,0.0,0.0,0.0,0.0,0.0,0.0,0.0,0.0,0.0,0.0,0.0,0.0,0.0,0.0,0.0,0.0,0.0,0.0,0.0,0.0,0.0,0.0,0.0,0.0,0.0,0.0,0.0,0.0,0.0,0.0,0.0,0.0,0.0,0.0,0.0,0.0,0.0,0.0,0.0,0.0,0.0,0.0,0.0,0.0,0.0,0.0,0.0,0.0,0.0,0.0,0.0,0.0,0.0,0.0,0.0,0.0,0.0,-0.8902,0.0,-1.2783,0.0,-1.2168,-1.0664,0.0,0.0,0.0,0.0,0.0,0.0,0.0,0.0,0.0,0.0,0.0,0.0,0.0,0.0,0.0,0.0,0.0,0.0,0.0,0.0,0.0,0.0,0.0,0.0,0.0,0.0,0.0,0.0,0.0,0.0,0.0,0.0,0.0,0.0,0.0,0.0,0.0,0.0,0.0,0.0,0.0,0.0,0.0,0.0,0.0,0.0,0.0,0.0,0.0,0.0,0.0,0.0,0.0,0.0,0.0,0.0,0.0,0.0,0.0,0.0,0.0,0.0,0.0,0.0,0.0,0.0,0.0,0.0,0.0,0.0,0.0,0.0,0.0,0.0,0.0,0.0,0.0,0.0,0.0,0.0,0.0,0.0,0.0,0.0,0.0,0.0,0.0,0.0,0.0,0.0,0.0,0.0,0.0,0.0,0.0,0.0,0.0,0.0,0.0,0.0,0.0,0.0,0.0,0.0,0.0,0.0,0.0,0.0,-0.9446,-1.2912,-1.4949,-1.5201,-1.3805,-1.3137,-1.1253,0.0,0.0,0.0,0.0,0.0,0.0,0.0,0.0,0.0,0.0,0.0,0.0,0.0,0.0,0.0,0.0,0.0,0.0,0.0,0.0,0.0,0.0,0.0,0.0,0.0,0.0,0.0,0.0,0.0,0.0,0.0,0.0,0.0,0.0,0.0,0.0,0.0,0.0,0.0,0.0,0.0,0.0,0.0,0.0,0.0,0.0,0.0,0.0,0.0,0.0,0.0,0.0,0.0,0.0,0.0,0.0,0.0,0.0,0.0,0.0,0.0,0.0,0.0,0.0,0.0,0.0,0.0,0.0,0.0,0.0,0.0,0.0,0.0,0.0,0.0,0.0,0.0,0.0,0.0,0.0,0.0,0.0,0.0,0.0,0.0,0.0,0.0,0.0,0.0,0.0,0.0,0.0,0.0,0.0,0.0,0.0,0.0,0.0,0.0,0.0,0.0,0.0,0.0,0.0,0.0,0.0,0.0,0.0,0.0,-1.2706,-1.3861,-1.4965,-1.5825,-1.3311,-1.1909,0.0,0.0,0.0,0.0,0.0,0.0,0.0,0.0,0.0,0.0,0.0,0.0,0.0,0.0,0.0,0.0,0.0,0.0,0.0,0.0,0.0,0.0,0.0,0.0,0.0,0.0,0.0,0.0,0.0,0.0,0.0,0.0,0.0,0.0,0.0,0.0,0.0,0.0,0.0,0.0,0.0,0.0,0.0,0.0,0.0,0.0,0.0,0.0,0.0,0.0,0.0,0.0,0.0,0.0,0.0,0.0,0.0,0.0,0.0,0.0,0.0,0.0,0.0,0.0,0.0,0.0,0.0,0.0,0.0,0.0,0.0,0.0,0.0,0.0,0.0,0.0,0.0,0.0,0.0,0.0,0.0,0.0,0.0,0.0,0.0,0.0,0.0,0.0,0.0,0.0,0.0,0.0,0.0,0.0,0.0,0.0,0.0,0.0,0.0,0.0,0.0,0.0,0.0,0.0,0.0,0.0,0.0,0.0,0.0,-1.4703,-1.5627,-1.6623,-1.7646,-1.4626,-1.3065,-1.3148,0.0,0.0,0.0,0.0,0.0,0.0,0.0,0.0,0.0,0.0,0.0,0.0,0.0,0.0,0.0,0.0,0.0,0.0,0.0,0.0,0.0,0.0,0.0,0.0,0.0,0.0,0.0,0.0,0.0,0.0,0.0,0.0,0.0,0.0,0.0,0.0,0.0,0.0,0.0,0.0,0.0,0.0,0.0,0.0,0.0,0.0,0.0,0.0,0.0,0.0,0.0,0.0,0.0,0.0,0.0,0.0,0.0,0.0,0.0,0.0,0.0,0.0,0.0,0.0,0.0,0.0,0.0,0.0,0.0,0.0,0.0,0.0,0.0,0.0,0.0,0.0,0.0,0.0,0.0,0.0,0.0,0.0,0.0,0.0,0.0,0.0,0.0,0.0,0.0,0.0,0.0,0.0,0.0,0.0,0.0,0.0,0.0,0.0,0.0,0.0,0.0,0.0,0.0,0.0,0.0,0.0,0.0,0.0,-1.8438,-1.9718,-1.9859,-1.8887,-1.6848,-1.4681,0.0,0.0,0.0,0.0,0.0,0.0,0.0,0.0,0.0,0.0,0.0,0.0,0.0,0.0,0.0,0.0,0.0,0.0,0.0,0.0,0.0,0.0,0.0,0.0,0.0,0.0,0.0,0.0,0.0,0.0,0.0,0.0,0.0,0.0,0.0,0.0,0.0,0.0,0.0,0.0,0.0,0.0,0.0,0.0,0.0,0.0,0.0,0.0,0.0,0.0,0.0,0.0,0.0,0.0,0.0,0.0,0.0,0.0,0.0,0.0,0.0,0.0,0.0,0.0,0.0,0.0,0.0,0.0,0.0,0.0,0.0,0.0,0.0,0.0,0.0,0.0,0.0,0.0,0.0,0.0,0.0,0.0,0.0,0.0,0.0,0.0,0.0,0.0,0.0,0.0,0.0,0.0,0.0,0.0,0.0,0.0,0.0,0.0,0.0,0.0,0.0,0.0,0.0,0.0,0.0,0.0,0.0,0.0,0.0,-2.153,-2.1354,-2.0773,-1.9877,-1.7805,-1.6068,0.0,0.0,0.0,0.0,0.0,0.0,0.0,0.0,0.0,0.0,0.0,0.0,0.0,0.0,0.0,0.0,0.0,0.0,0.0,0.0,0.0,0.0,0.0,0.0,0.0,0.0,0.0,0.0,0.0,0.0,0.0,0.0,0.0,0.0,0.0,0.0,0.0,0.0,0.0,0.0,0.0,0.0,0.0,0.0,0.0,0.0,0.0,0.0,0.0,0.0,0.0,0.0,0.0,0.0,0.0,0.0,0.0,0.0,0.0,0.0,0.0,0.0,0.0,0.0,0.0,0.0,0.0,0.0,0.0,0.0,0.0,0.0,0.0,0.0,0.0,0.0,0.0,0.0,0.0,0.0,0.0,0.0,0.0,0.0,0.0,0.0,0.0,0.0,0.0,0.0,0.0,0.0,0.0,0.0,0.0,0.0,0.0,0.0,0.0,0.0,0.0,0.0,0.0,0.0,0.0,0.0,0.0,0.0,-1.9988,-2.2823,-2.2962,-2.2579,-2.1745,-1.9735,-1.7998,0.0,0.0,0.0,0.0,0.0,0.0,0.0,0.0,0.0,0.0,0.0,0.0,0.0,0.0,0.0,0.0,0.0,0.0,0.0,0.0,0.0,0.0,0.0,0.0,0.0,0.0,0.0,0.0,0.0,0.0,0.0,0.0,0.0,0.0,0.0,0.0,0.0,0.0,0.0,0.0,0.0,0.0,0.0,0.0,0.0,0.0,0.0,0.0,0.0,0.0,0.0,0.0,0.0,0.0,0.0,0.0,0.0,0.0,0.0,0.0,0.0,0.0,0.0,0.0,0.0,0.0,0.0,0.0,0.0,0.0,0.0,0.0,0.0,0.0,0.0,0.0,0.0,0.0,0.0,0.0,0.0,0.0,0.0,0.0,0.0,0.0,0.0,0.0,0.0,0.0,0.0,0.0,0.0,0.0,0.0,0.0,0.0,0.0,0.0,0.0,0.0,0.0,0.0,0.0,0.0,0.0,0.0,0.0,-2.1164,-2.3281,-2.4547,-2.4827,-2.403,-2.2052,-2.0038,0.0,0.0,0.0,0.0,0.0,0.0,0.0,0.0,0.0,0.0,0.0,0.0,0.0,0.0,0.0,0.0,0.0,0.0,0.0,0.0,0.0,0.0,0.0,0.0,0.0,0.0,0.0,0.0,0.0,0.0,0.0,0.0,0.0,0.0,0.0,0.0,0.0,0.0,0.0,0.0,0.0,0.0,0.0,0.0,0.0,0.0,0.0,0.0,0.0,0.0,0.0,0.0,0.0,0.0,0.0,0.0,0.0,0.0,0.0,0.0,0.0,0.0,0.0,0.0,0.0,0.0,0.0,0.0,0.0,0.0,0.0,0.0,0.0,0.0,0.0,0.0,0.0,0.0,0.0,0.0,0.0,0.0,0.0,0.0,0.0,0.0,0.0,0.0,0.0,0.0,0.0,0.0,0.0,0.0,0.0,0.0,0.0,0.0,0.0,0.0,0.0,0.0,0.0,0.0,0.0,0.0,0.0,0.0,-2.3539,-2.6104,-2.633,-2.641,-2.6372,-2.3227,-2.0435,0.0,0.0,0.0,0.0,0.0,0.0,0.0,0.0,0.0,0.0,0.0,0.0,0.0,0.0,0.0,0.0,0.0,0.0,0.0,0.0,0.0,0.0,0.0,0.0,0.0,0.0,0.0,0.0,0.0,0.0,0.0,0.0,0.0,0.0,0.0,0.0,0.0,0.0,0.0,0.0,0.0,0.0,0.0,0.0,0.0,0.0,0.0,0.0,-0.8646,0.0,0.0,0.0,0.0,0.0,0.0,0.0,0.0,0.0,0.0,0.0,0.0,0.0,0.0,0.0,0.0,0.0,0.0,0.0,0.0,0.0,0.0,0.0,0.0,0.0,0.0,0.0,0.0,0.0,0.0,0.0,0.0,0.0,0.0,0.0,0.0,0.0,0.0,0.0,0.0,0.0,0.0,0.0,0.0,0.0,0.0,0.0,0.0,0.0,0.0,0.0,0.0,0.0,0.0,0.0,0.0,0.0,0.0,0.0,-2.4597,-2.6703,-2.7558,-2.7781,-2.7273,-2.5013,-2.2298,0.0,0.0,0.0,0.0,0.0,0.0,0.0,0.0,0.0,0.0,0.0,0.0,0.0,0.0,0.0,0.0,0.0,0.0,0.0,0.0,0.0,0.0,0.0,0.0,0.0,0.0,0.0,0.0,0.0,0.0,0.0,0.0,0.0,0.0,0.0,0.0,0.0,0.0,0.0,0.0,0.0,0.0,0.0,0.0,0.0,0.0,0.0,0.0,0.0,0.0,0.0,0.0,0.0,0.0,0.0,0.0,0.0,0.0,0.0,0.0,0.0,0.0,0.0,0.0,0.0,0.0,0.0,0.0,0.0,0.0,0.0,0.0,0.0,0.0,0.0,0.0,0.0,0.0,0.0,0.0,0.0,0.0,0.0,0.0,0.0,0.0,0.0,0.0,0.0,0.0,0.0,0.0,0.0,0.0,0.0,0.0,0.0,0.0,0.0,0.0,0.0,0.0,0.0,0.0,0.0,0.0,0.0,-2.2771,-2.5293,-2.6805,-2.866,-2.9008,-2.7684,-2.6686,-2.4342,-2.0479,0.0,0.0,0.0,0.0,0.0,0.0,0.0,0.0,0.0,0.0,0.0,0.0,0.0,0.0,0.0,0.0,0.0,0.0,0.0,0.0,0.0,0.0,0.0,0.0,0.0,0.0,0.0,0.0,0.0,0.0,0.0,0.0,0.0,0.0,0.0,0.0,0.0,0.0,-0.8473,-1.0026,0.0,0.0,0.0,0.0,0.0,0.0,0.0,0.0,-1.0251,0.0,0.0,0.0,0.0,0.0,0.0,0.0,0.0,0.0,0.0,0.0,0.0,0.0,0.0,0.0,0.0,0.0,0.0,0.0,0.0,0.0,0.0,0.0,0.0,0.0,0.0,0.0,0.0,0.0,0.0,0.0,0.0,0.0,0.0,0.0,0.0,0.0,0.0,0.0,0.0,0.0,0.0,0.0,0.0,0.0,0.0,0.0,0.0,0.0,0.0,0.0,0.0,0.0,0.0,0.0,0.0,-2.2874,-2.4771,-2.6649,-2.8538,-3.0314,-3.0145,-2.7947,-2.6992,-2.4636,-2.0733,0.0,0.0,0.0,0.0,0.0,0.0,0.0,0.0,0.0,0.0,0.0,0.0,0.0,0.0,0.0,0.0,0.0,0.0,0.0,0.0,0.0,0.0,0.0,0.0,0.0,0.0,0.0,0.0,0.0,0.0,0.0,0.0,0.0,0.0,0.0,0.0,0.0,0.0,0.0,-1.2429,-1.348,0.0,0.0,0.0,0.0,0.0,0.0,0.0,0.0,-1.0409,0.0,0.0,0.0,0.0,0.0,0.0,0.0,0.0,0.0,0.0,0.0,0.0,0.0,0.0,0.0,0.0,0.0,0.0,0.0,0.0,0.0,0.0,0.0,0.0,0.0,0.0,0.0,0.0,0.0,0.0,0.0,0.0,0.0,0.0,0.0,0.0,0.0,0.0,0.0,0.0,0.0,0.0,0.0,0.0,0.0,0.0,0.0,0.0,0.0,0.0,0.0,0.0,0.0,0.0,0.0,-2.2617,-2.5452,-2.7492,-2.8784,-3.0623,-3.0566,-2.8422,-2.6948,-2.4491,0.0,0.0,0.0,0.0,0.0,0.0,0.0,0.0,0.0,0.0,0.0,0.0,0.0,0.0,0.0,0.0,0.0,0.0,0.0,0.0,0.0,0.0,0.0,0.0,0.0,0.0,0.0,0.0,0.0,0.0,0.0,0.0,0.0,0.0,0.0,0.0,0.0,0.0,0.0,0.0,-1.3223,-1.4219,-1.454,0.0,0.0,0.0,0.0,0.0,0.0,-1.2689,-1.1812,0.0,0.0,0.0,0.0,0.0,0.0,0.0,0.0,0.0,0.0,0.0,0.0,0.0,0.0,0.0,0.0,0.0,0.0,0.0,0.0,0.0,0.0,0.0,0.0,0.0,0.0,0.0,0.0,0.0,0.0,0.0,0.0,0.0,0.0,0.0,0.0,0.0,0.0,0.0,0.0,0.0,0.0,0.0,0.0,0.0,0.0,0.0,0.0,0.0,0.0,0.0,0.0,0.0,0.0,0.0,-2.2242,-2.5879,-2.8182,-2.9079,-3.0819,-3.0826,-2.8906,-2.7123,-2.4567,0.0,0.0,0.0,0.0,0.0,0.0,0.0,0.0,0.0,0.0,0.0,0.0,0.0,0.0,0.0,0.0,0.0,0.0,0.0,0.0,0.0,0.0,0.0,0.0,0.0,0.0,0.0,0.0,0.0,0.0,0.0,0.0,0.0,0.0,0.0,0.0,0.0,0.0,0.0,0.0,0.0,-1.4976,-1.5832,-1.4996,0.0,0.0,0.0,0.0,-1.5008,-1.4219,0.0,0.0,0.0,0.0,0.0,0.0,0.0,0.0,0.0,0.0,0.0,0.0,0.0,0.0,0.0,0.0,0.0,0.0,0.0,0.0,0.0,0.0,0.0,0.0,0.0,0.0,0.0,0.0,0.0,0.0,0.0,0.0,0.0,0.0,0.0,0.0,0.0,0.0,0.0,0.0,0.0,0.0,0.0,0.0,0.0,0.0,0.0,0.0,0.0,0.0,0.0,0.0,0.0,0.0,0.0,0.0,-2.3927,-2.6621,-2.8825,-3.0575,-3.1672,-3.1202,-2.912,-2.8024,-2.5563,0.0,0.0,0.0,0.0,0.0,0.0,0.0,0.0,0.0,0.0,0.0,0.0,0.0,0.0,0.0,0.0,0.0,0.0,0.0,0.0,0.0,0.0,0.0,0.0,0.0,0.0,0.0,0.0,0.0,0.0,0.0,0.0,0.0,0.0,0.0,0.0,0.0,0.0,0.0,0.0,0.0,-1.7025,-1.5665,-1.5782,-1.6208,0.0,0.0,-1.5688,-1.7256,-1.6321,0.0,0.0,0.0,0.0,0.0,0.0,0.0,0.0,0.0,0.0,0.0,0.0,0.0,0.0,0.0,0.0,0.0,0.0,0.0,0.0,0.0,0.0,0.0,0.0,0.0,0.0,0.0,0.0,0.0,0.0,0.0,0.0,0.0,0.0,0.0,0.0,0.0,0.0,0.0,0.0,0.0,0.0,0.0,0.0,0.0,0.0,0.0,0.0,0.0,0.0,0.0,0.0,0.0,0.0,0.0,-2.1001,-2.4483,-2.7334,-2.9556,-3.1156,-3.2033,-3.1564,-2.9659,-2.7805,-2.506,0.0,0.0,0.0,0.0,0.0,0.0,0.0,0.0,0.0,0.0,0.0,0.0,0.0,0.0,0.0,0.0,0.0,0.0,0.0,0.0,0.0,0.0,0.0,0.0,0.0,0.0,0.0,0.0,0.0,0.0,0.0,0.0,0.0,0.0,0.0,0.0,0.0,0.0,0.0,0.0,0.0,0.0,-1.7194,-1.7055,0.0,0.0,0.0,-1.7436,-1.8222,0.0,0.0,0.0,0.0,0.0,0.0,0.0,0.0,0.0,0.0,0.0,0.0,0.0,0.0,0.0,0.0,0.0,0.0,0.0,0.0,0.0,0.0,0.0,0.0,0.0,0.0,0.0,0.0,0.0,0.0,0.0,0.0,0.0,0.0,0.0,0.0,0.0,0.0,0.0,0.0,0.0,0.0,0.0,0.0,0.0,0.0,0.0,0.0,0.0,0.0,0.0,0.0,0.0,0.0,0.0,0.0,0.0,-2.4944,-2.8084,-3.0332,-3.1651,-3.2287,-3.178,-3.0017,-2.7718,0.0,0.0,0.0,0.0,0.0,0.0,0.0,0.0,0.0,0.0,0.0,0.0,0.0,0.0,0.0,0.0,0.0,0.0,0.0,0.0,0.0,0.0,0.0,0.0,0.0,0.0,0.0,-0.6874,0.0,0.0,0.0,0.0,0.0,0.0,0.0,0.0,0.0,0.0,0.0,0.0,0.0,0.0,-1.7723,-1.8726,-1.8631,-1.8825,0.0,0.0,-1.908,-1.9313,-1.922,-1.8626,0.0,0.0,0.0,0.0,0.0,0.0,0.0,0.0,0.0,0.0,0.0,0.0,0.0,0.0,0.0,0.0,0.0,0.0,0.0,0.0,0.0,0.0,0.0,0.0,0.0,0.0,0.0,0.0,0.0,0.0,0.0,0.0,0.0,0.0,0.0,0.0,0.0,0.0,0.0,0.0,0.0,0.0,0.0,0.0,0.0,0.0,0.0,0.0,0.0,0.0,0.0,0.0,0.0,0.0,0.0,-2.5711,-2.882,-3.1097,-3.2446,-3.2553,-3.1763,-3.0034,-2.8423,-2.6019,0.0,0.0,0.0,0.0,0.0,0.0,0.0,0.0,0.0,0.0,0.0,0.0,0.0,0.0,0.0,0.0,0.0,0.0,0.0,0.0,0.0,0.0,0.0,0.0,0.0,0.0,0.0,0.0,0.0,0.0,0.0,0.0,0.0,0.0,0.0,0.0,0.0,0.0,0.0,0.0,0.0,-2.0065,-1.9677,-2.0533,-2.143,0.0,-2.1114,-2.0543,-2.1048,-2.0337,-1.9249,-1.7781,0.0,0.0,0.0,0.0,0.0,0.0,0.0,0.0,0.0,0.0,0.0,0.0,0.0,0.0,0.0,0.0,0.0,0.0,0.0,0.0,0.0,0.0,0.0,0.0,0.0,0.0,0.0,0.0,0.0,0.0,0.0,0.0,0.0,0.0,0.0,0.0,0.0,0.0,0.0,0.0,0.0,0.0,0.0,0.0,0.0,0.0,0.0,0.0,0.0,0.0,0.0,0.0,0.0,-2.2678,-2.5783,-2.8891,-3.1248,-3.2715,-3.2804,-3.2007,-3.0366,-2.875,-2.6362,0.0,0.0,0.0,0.0,0.0,0.0,0.0,0.0,0.0,0.0,0.0,0.0,0.0,0.0,0.0,0.0,0.0,0.0,0.0,0.0,0.0,0.0,0.0,0.0,0.0,0.0,0.0,0.0,-0.8207,-0.87,-0.8689,0.0,0.0,0.0,0.0,0.0,0.0,0.0,0.0,0.0,0.0,-2.0042,-2.0173,-2.109,0.0,0.0,-2.2124,-2.1961,-2.1925,-2.1596,-2.0843,-1.9429,-1.8323,0.0,0.0,0.0,0.0,0.0,0.0,0.0,0.0,0.0,0.0,0.0,0.0,0.0,0.0,0.0,0.0,0.0,0.0,0.0,0.0,0.0,0.0,0.0,0.0,0.0,0.0,0.0,0.0,0.0,0.0,0.0,0.0,0.0,0.0,0.0,0.0,0.0,0.0,0.0,0.0,0.0,0.0,0.0,0.0,0.0,0.0,0.0,0.0,0.0,0.0,0.0,0.0,-2.2785,-2.6122,-2.903,-3.1278,-3.2864,-3.29,-3.2132,-3.0547,-2.9158,-2.6894,0.0,0.0,0.0,0.0,0.0,0.0,0.0,0.0,0.0,0.0,0.0,0.0,0.0,0.0,0.0,0.0,0.0,0.0,0.0,0.0,0.0,0.0,0.0,0.0,0.0,0.0,0.0,0.0,-0.8693,-0.9248,-0.8959,0.0,0.0,0.0,0.0,0.0,0.0,0.0,0.0,0.0,0.0,-2.091,-2.1291,-2.2072,-2.269,-2.2867,-2.279,-2.2609,-2.2328,-2.2117,-2.1547,-2.0156,0.0,0.0,0.0,0.0,0.0,0.0,0.0,0.0,0.0,0.0,0.0,0.0,0.0,0.0,0.0,0.0,0.0,0.0,0.0,0.0,0.0,0.0,0.0,0.0,0.0,0.0,0.0,-1.1354,0.0,0.0,-1.1326,0.0,0.0,0.0,0.0,0.0,0.0,0.0,0.0,0.0,0.0,0.0,0.0,0.0,0.0,0.0,0.0,0.0,0.0,0.0,0.0,0.0,0.0,-2.3035,-2.6938,-2.9298,-3.1278,-3.2829,-3.29,-3.215,-3.055,-2.9765,-2.7816,-2.45,0.0,0.0,0.0,0.0,0.0,0.0,0.0,0.0,0.0,0.0,0.0,0.0,0.0,0.0,0.0,0.0,0.0,0.0,0.0,0.0,0.0,0.0,0.0,0.0,0.0,0.0,-0.8194,-0.872,-0.918,0.0,0.0,0.0,0.0,0.0,0.0,0.0,0.0,0.0,-1.9147,-2.1532,-2.3225,-2.3225,-2.3805,-2.4225,-2.4256,-2.3179,-2.2366,-2.2401,-2.1797,-2.0857,0.0,0.0,0.0,0.0,0.0,0.0,0.0,0.0,0.0,0.0,0.0,0.0,0.0,0.0,0.0,0.0,0.0,0.0,0.0,0.0,0.0,0.0,0.0,0.0,0.0,0.0,0.0,-1.5266,-1.4115,0.0,0.0,0.0,0.0,0.0,0.0,0.0,0.0,0.0,0.0,0.0,-2.3195,-2.5028,0.0,0.0,0.0,0.0,0.0,0.0,0.0,0.0,0.0,0.0,0.0,0.0,-2.3582,-2.6938,-2.9298,-3.1278,-3.2829,-3.29,-3.215,-3.0547,-2.9797,-2.7339,-2.2965,0.0,0.0,0.0,0.0,0.0,0.0,0.0,0.0,0.0,0.0,0.0,0.0,0.0,0.0,0.0,0.0,0.0,0.0,0.0,0.0,0.0,0.0,0.0,0.0,0.0,-0.9862,0.0,0.0,0.0,0.0,0.0,0.0,0.0,0.0,0.0,0.0,0.0,-1.9704,-2.0866,-2.2559,-2.37,-2.3685,-2.4704,-2.542,0.0,0.0,0.0,0.0,0.0,0.0,0.0,0.0,0.0,0.0,0.0,0.0,0.0,0.0,-1.9778,-1.6005,-1.5006,-1.4815,-1.5,0.0,0.0,0.0,0.0,0.0,0.0,0.0,0.0,0.0,0.0,0.0,0.0,0.0,0.0,-1.8436,-1.7537,-1.7779,0.0,0.0,0.0,0.0,0.0,0.0,0.0,0.0,-2.4419,-2.5893,-2.646,-2.7722,-2.782,-2.6851,-2.6614,-2.4177,0.0,0.0,0.0,0.0,0.0,0.0,0.0,0.0,-2.4718,-2.7839,-2.9908,-3.1609,-3.286,-3.2916,-3.2275,-3.0939,-2.9672,-2.721,-2.3448,-2.2339,-2.0668,0.0,0.0,0.0,0.0,0.0,0.0,0.0,0.0,0.0,0.0,0.0,0.0,0.0,0.0,0.0,0.0,0.0,0.0,0.0,0.0,0.0,0.0,0.0,-1.0615,0.0,0.0,0.0,0.0,0.0,0.0,0.0,0.0,0.0,-2.0384,-2.0783,-2.1533,-2.2936,-2.3779,-2.449,-2.5102,0.0,0.0,0.0,0.0,0.0,0.0,0.0,-2.3938,-2.4261,-2.4128,-2.4024,-2.4186,-2.4668,-2.4697,-2.3708,0.0,0.0,-1.8513,-1.7433,-1.7245,-1.7418,-1.7979,-1.8461,-1.8542,-1.9049,-1.9431,0.0,0.0,0.0,0.0,-2.0336,0.0,0.0,0.0,-2.1254,-2.1596,0.0,-2.2329,0.0,0.0,0.0,0.0,-2.0606,-2.3494,0.0,0.0,-2.8175,-2.9692,-2.9624,-2.8999,-2.8604,-2.8612,-2.9233,-2.8367,-2.6069,-2.2381,0.0,0.0,0.0,0.0,0.0,0.0,-2.6458,-2.9534,-3.1045,-3.2187,-3.2959,-3.2948,-3.2507,-3.1599,-2.9458,-2.7482,-2.5859,-2.412,-2.2206,-2.0109,-1.8136,0.0,0.0,0.0,0.0,0.0,0.0,0.0,0.0,0.0,0.0,0.0,0.0,0.0,0.0,0.0,0.0,0.0,0.0,0.0,0.0,-1.0343,0.0,0.0,0.0,0.0,0.0,0.0,0.0,0.0,0.0,0.0,-2.2768,-2.3186,-2.3926,-2.5295,0.0,0.0,0.0,0.0,-2.6495,-2.7485,-2.681,-2.6206,-2.6206,-2.6143,-2.5873,-2.5294,0.0,0.0,-2.6308,-2.6699,-2.6598,-2.5086,-2.5306,-2.5025,-2.2786,-2.1432,-2.0895,-2.1331,-2.1055,-2.0919,-2.1138,-2.1486,-2.1807,-2.7568,0.0,0.0,0.0,0.0,-2.4245,-2.4795,-2.5391,-2.6157,-2.6182,-2.5658,-2.5314,0.0,0.0,0.0,0.0,0.0,0.0,-2.6879,-2.7533,-3.0106,-3.1618,-3.2193,-3.258,-3.2469,-3.1892,-3.1574,-3.0789,-2.9569,-2.7899,-2.5567,-2.2717,0.0,0.0,0.0,0.0,-2.7862,-3.0358,-3.1427,-3.2313,-3.3055,-3.3057,-3.2396,-3.1026,-2.9737,-2.8312,-2.6775,-2.562,-2.4254,-2.2597,-2.0378,0.0,0.0,0.0,0.0,0.0,0.0,0.0,0.0,0.0,0.0,0.0,0.0,0.0,0.0,0.0,0.0,0.0,0.0,0.0,-1.1523,-1.2592,-1.3488,0.0,0.0,0.0,0.0,0.0,0.0,0.0,0.0,0.0,-2.6168,-2.6347,-2.6617,0.0,0.0,-2.7632,-2.7681,-2.8066,-2.8367,-2.847,-2.822,0.0,-2.8028,-2.7073,-2.6471,-2.6877,-2.756,-2.8055,-2.8211,-2.8006,-2.7602,-2.692,-2.6601,-2.6125,-2.5382,-2.4158,-2.3234,-2.2903,-2.303,-2.3107,-2.2793,-2.3163,-2.3453,-3.1922,-2.9003,-2.7427,-2.7187,-2.7901,-2.8045,-2.8558,-2.9337,-2.9807,-2.9982,-2.9933,-2.9751,-2.9302,-2.8569,-2.7922,0.0,0.0,0.0,-3.0478,-3.1283,-3.257,-3.3626,-3.4337,-3.4175,-3.3987,-3.3807,-3.3334,-3.2875,-3.2415,-3.159,-2.9791,-2.7115,0.0,0.0,-2.6814,-2.8075,-2.9598,-3.1293,-3.2126,-3.2727,-3.3165,-3.3117,-3.2349,-3.0794,-3.0234,-2.9217,-2.7663,-2.6813,-2.5792,-2.4585,-2.2579,-2.0201,0.0,0.0,0.0,0.0,0.0,0.0,0.0,0.0,0.0,0.0,0.0,-1.2135,-1.0316,0.0,0.0,0.0,-1.122,-1.2356,-1.4269,-1.5561,0.0,0.0,0.0,0.0,0.0,0.0,0.0,-2.4847,-2.6505,-2.8005,-2.9316,-2.9708,-2.9627,-2.9061,-2.8717,-2.858,-2.8885,0.0,-2.9165,-2.9363,-2.9318,-2.9232,-2.9232,-2.8419,-2.7973,-2.8498,-2.8796,-2.9068,-2.9329,-2.9067,-2.8729,-2.8449,-2.8081,-2.7724,-2.7508,-2.6747,-2.5827,-2.4775,-2.4825,-2.4948,-2.4579,-2.4856,-2.4995,-3.5883,-3.5195,-3.2914,-3.216,-3.2388,-3.1665,-3.1769,-3.2442,-3.246,-3.3045,-3.4065,-3.4728,-3.4792,-3.4271,-3.2854,0.0,-3.3287,-3.4083,-3.4785,-3.5547,-3.5293,-3.5601,-3.6285,-3.4535,-3.4093,-3.4864,-3.4702,-3.4666,-3.4673,-3.3906,-3.3168,-3.2451,-3.0211,-2.9317,-2.9823,-3.0609,-3.1432,-3.227,-3.2958,-3.3307,-3.3325,-3.318,-3.2397,-3.0869,-3.0783,-3.001,-2.8375,-2.7525,-2.6734,-2.5913,-2.4498,-2.2293,-1.9273,0.0,0.0,0.0,0.0,0.0,0.0,0.0,0.0,0.0,0.0,0.0,0.0,0.0,0.0,0.0,-1.4805,0.0,-1.7486,-1.8876,0.0,0.0,0.0,-2.2125,-2.2781,-2.4465,-2.6333,-2.8314,0.0,0.0,-3.2144,-3.2875,-3.2623,-3.0782,-2.9475,-2.9231,-3.0767,-3.0021,-2.9494,-3.0415,-3.0266,-3.0102,-3.0162,-2.9977,-2.9848,-2.9896,-2.9929,-2.9864,-2.9874,-2.9858,-2.9776,-2.9467,-2.9493,-2.9371,-2.9106,-2.891,-2.8566,-2.6877,-2.6509,-2.6447,-2.6368,-2.6331,-2.6308,-4.0397,-4.0252,-3.9593,-3.7255,-3.3964,-3.4271,-3.4544,-3.4717,-3.4704,-3.5199,-3.5992,-3.5578,-3.5512,-3.5708,-3.5589,-3.5163,-3.4592,-3.539,-3.5869,-3.6044,-3.6367,-3.7049,-3.7943,-3.6755,-3.6495,-3.7027,-3.6207,-3.5798,-3.5798,-3.5615,-3.5319,-3.4932,-3.4341,-3.2929,-3.0826,-3.1478,-3.2292,-3.3103,-3.3288,-3.3382,-3.3382,-3.3307,-3.2487,-3.0918,-3.0812,-2.9768,-2.7655,-2.6729,-2.5955,-2.5257,-2.4262,-2.2789,-2.0819,-1.8618,0.0,0.0,0.0,0.0,0.0,0.0,0.0,0.0,0.0,-1.7056,-1.3686,0.0,-1.8006,0.0,-1.7896,-1.9033,-1.9649,-2.0684,0.0,0.0,-2.3975,-2.4785,-2.6472,-2.7877,-2.9161,-3.0359,-3.1826,-3.3125,-3.3967,-3.4248,-3.4176,-3.3681,-3.3095,-3.2678,-3.2593,-3.253,-3.2316,-3.1979,-3.1857,-3.1804,-3.1466,-3.1008,-3.0661,-3.0661,-3.0247,-2.9896,-2.9913,-2.9896,-2.9814,-2.956,-2.9509,-2.9418,-2.9167,-2.9114,-2.8996,-2.8519,-2.8063,-2.7513,-2.7048,-2.6786,-2.6632,-4.2351,-4.2351,-4.2316,-4.067,-3.8142,-3.8091,-3.8154,-3.8265,-3.8111,-3.8431,-3.9039,-3.8203,-3.7676,-3.7451,-3.7649,-3.7474,-3.7058,-3.7472,-3.7742,-3.7852,-3.8035,-3.8422,-3.8957,-3.8243,-3.8066,-3.8358,-3.762,-3.7257,-3.7239,-3.6808,-3.6479,-3.6309,-3.5967,-3.4899,-3.323,-3.3592,-3.3864,-3.3918,-3.3592,-3.3393,-3.3393,-3.3349,-3.2593,-3.102,-3.0924,-2.9773,-2.7441,-2.6886,-2.611,-2.5055,-2.4545,-2.3548,-2.1958,-2.0263,-1.8823,0.0,0.0,0.0,0.0,0.0,0.0,0.0,0.0,0.0,0.0,0.0,-2.0553,-1.9672,-2.0782,-2.1903,-2.274,-2.4282,-2.5631,-2.6552,-2.7437,-2.8358,-2.9405,-3.0827,-3.2013,-3.2806,-3.374,-3.4571,-3.524,-3.531,-3.5414,-3.5674,-3.5533,-3.4901,-3.37,-3.3309,-3.2966,-3.2568,-3.2364,-3.2213,-3.2035,-3.1648,-3.139,-3.1357,-3.1073,-3.0739,-3.0431,-3.0344,-3.0202,-2.979,-2.9665,-2.9659,-2.9464,-2.9457,-2.9457,-2.9416,-2.916,-2.8666,-2.7973,-2.77,-2.7564,-4.3138,-4.31,-4.3119,-4.3119,-4.3049,-4.2149,-4.1777,-4.1815,-4.1508,-4.167,-4.2102,-4.1287,-4.0358,-3.9407,-3.942,-3.9517,-3.9652,-3.9664,-3.9717,-3.9834,-3.9556,-3.9458,-3.9483,-3.9163,-3.9036,-3.909,-3.8789,-3.8643,-3.8609,-3.7674,-3.7189,-3.7122,-3.6453,-3.6093,-3.6093,-3.6109,-3.562,-3.4609,-3.3918,-3.3502,-3.3393,-3.3393,-3.2632,-3.1107,-3.1003,-2.9807,-2.7387,-2.7333,-2.6656,-2.5117,-2.5099,-2.4462,-2.2984,-2.2062,-2.0887,0.0,-1.8551,0.0,0.0,0.0,0.0,0.0,0.0,0.0,0.0,-2.192,-2.2914,-2.3057,-2.382,-2.4843,-2.6127,-2.8245,-2.9351,-2.8927,-3.0618,-3.1858,-3.1946,-3.3375,-3.4601,-3.5102,-3.5367,-3.574,-3.6219,-3.6288,-3.6497,-3.6914,-3.6925,-3.6311,-3.4725,-3.3795,-3.3311,-3.2989,-3.2636,-3.2677,-3.2581,-3.238,-3.2236,-3.2212,-3.1987,-3.1785,-3.1147,-3.105,-3.0807,-3.0214,-3.0053,-3.0026,-2.9929,-2.9896,-2.9896,-2.9874,-2.9826,-2.9595,-2.9011,-2.8771,-2.8732,-4.4819,-4.4829,-4.4829,-4.4819,-4.4779,-4.4333,-4.3509,-4.249,-4.2397,-4.2397,-4.2495,-4.2257,-4.1917,-4.1556,-4.1681,-4.1279,-4.0491,-4.0472,-4.0159,-3.9544,-3.9242,-3.9229,-3.9489,-3.9163,-3.9268,-3.9682,-3.9157,-3.891,-3.8929,-3.8493,-3.818,-3.7973,-3.7828,-3.7739,-3.7739,0.0,0.0,0.0,-3.4428,-3.4063,-3.3429,-3.3393,-3.2632,-3.1075,-3.1003,0.0,-2.6638,-2.7043,-2.6663,-2.5135,-2.5624,0.0,0.0,0.0,0.0,0.0,0.0,0.0,0.0,0.0,0.0,0.0,-2.4395,-2.3965,-2.2311,-2.4441,-2.6301,-2.7105,-2.804,-2.8641,-2.8727,-2.9654,-3.0761,-3.19,-3.2418,-3.3134,-3.4315,-3.5365,-3.6025,-3.6132,-3.6702,-3.7166,-3.7237,-3.7326,-3.7361,-3.7431,-3.7336,-3.7114,-3.6701,-3.621,-3.5921,-3.5497,-3.4762,-3.4565,-3.4615,-3.3822,-3.3313,-3.3224,-3.2525,-3.2035,-3.185,-3.1801,-3.1535,-3.0856,-3.0716,-3.0522,-3.0042,-2.9896,-2.9945,-2.9913,-2.9913,-2.9836,-2.9687,-2.947,-2.9335,-4.5277,-4.5277,-4.5277,-4.5277,0.0,-4.5109,-4.4644,-4.3956,-4.3772,-4.341,-4.2946,-4.291,-4.2486,-4.1817,-4.1911,-4.1724,-4.133,-4.133,-4.1205,-4.092,-4.0748,-4.0779,-4.092,-4.0353,-4.0244,-4.0495,-3.964,-3.9242,-3.9229,-3.8943,-3.873,-3.8615,-3.8597,-3.8597,-3.86,-3.8462,-3.7537,-3.5802,-3.5005,-3.4407,-3.4009,-3.361,-3.2814,-3.165,-3.1184,0.0,0.0,0.0,0.0,0.0,0.0,0.0,0.0,0.0,0.0,-2.3782,-2.3373,-2.3327,-2.3714,-2.4454,-2.5278,-2.6121,-2.7266,-2.7392,-2.6105,-2.7004,-2.8115,-2.9371,-3.0609,-3.126,-3.1171,-3.1831,-3.2759,-3.3883,-3.4399,-3.4972,-3.5721,-3.6506,-3.7006,-3.7006,-3.7345,-3.7595,-3.7595,-3.7595,-3.7595,-3.7613,-3.7521,-3.7447,-3.741,-3.7011,-3.6495,-3.5912,-3.5582,-3.5305,-3.5168,-3.4818,-3.4303,-3.4105,-3.3685,-3.3175,-3.2619,-3.2546,-3.2303,-3.1616,-3.1438,-3.1316,-3.1008,-3.0652,-3.0393,-3.0344,-3.0123,-2.9913,-2.9896,-2.9687,-2.9448,-4.5144,-4.5277,-4.5277,-4.5277,-4.5277,-4.5277,-4.5277,-4.5286,-4.5022,0.0,0.0,-4.3643,-4.3074,-4.2165,-4.2118,-4.2173,-4.229,-4.2309,-4.2347,-4.2382,-4.2393,-4.2393,-4.2344,-4.1719,-4.1427,-4.1348,-4.0256,-3.9721,-3.969,-3.9237,-3.9008,-3.9008,-3.9008,-3.8966,-3.8915,-3.8676,-3.8086,-3.7192,-3.5765,-3.4878,-3.4606,-3.381,-3.3013,-3.2216,-3.1433,-3.0314,-2.8871,-2.831,-2.7658,-2.6892,-2.6964,-2.6982,-2.6856,-2.6838,-2.6783,-2.6638,-2.6747,-2.6856,-2.6856,-2.7586,-2.8093,-2.8232,-2.9463,-3.0197,-3.0075,-2.9233,-2.9404,-3.1024,-3.2243,-3.2983,-3.3112,-3.3846,-3.4632,-3.5346,-3.6006,-3.6417,-3.6613,-3.7184,-3.7559,-3.7595,-3.7595,-3.7595,-3.7595,-3.7595,-3.7595,-3.7595,-3.7577,-3.7595,-3.7522,-3.7052,-3.6516,-3.6066,-3.5938,-3.5737,-3.5526,-3.5305,-3.5155,-3.48,-3.4642,-3.426,-3.3559,-3.3259,-3.2983,-3.2319,-3.2206,-3.2125,-3.1996,-3.1494,-3.1114,-3.1098,-3.0652,-3.0237,-3.0085,-2.9903,-2.9669,-4.4628,-4.5277,-4.5277,-4.5277,-4.5277,-4.5277,-4.5277,-4.5277,-4.5235,-4.5137,-4.5012,-4.4901,-4.4756,-4.4576,-4.4467,-4.4052,-4.3483,-4.3464,-4.3078,-4.2412,-4.2393,-4.2393,-4.2393,-4.2268,-4.2242,-4.2143,-4.1066,-4.0528,-4.0428,-3.9493,-3.9008,-3.9008,-3.9008,-3.8868,-3.8661,-3.8385,-3.8186,-3.8009,-3.7122,-3.5983,-3.4643,-3.381,-3.3013,-3.2216,-3.1437,-3.0581,-2.9663,-3.017,-3.0129,-2.9368,-2.9947,-3.002,-2.935,-2.9277,-2.8993,-2.8364,-2.8902,-2.9295,-2.9295,-3.0056,-3.0785,-3.1455,-3.1741,-3.1858,-3.1789,-3.0668,-3.0767,-3.2685,-3.3108,-3.3409,-3.3978,-3.4751,-3.5468,-3.6131,-3.6328,-3.6649,-3.7309,-3.7506,-3.7595,-3.7595,-3.7595,-3.7595,-3.7595,-3.7595,-3.7595,-3.7595,-3.7595,-3.7595,-3.7558,-3.7354,-3.7164,-3.7031,-3.6893,-3.6713,-3.6343,-3.5881,-3.5442,-3.5178,-3.4626,-3.4202,-3.3956,-3.3899,-3.3631,-3.3048,-3.2935,-3.2708,-3.2238,-3.1947,-3.185,-3.185,-3.1672,-3.1413,-3.0888,-3.0736,-3.0497,-4.4513,-4.5201,-4.48,-4.4857,-4.5277,-4.5277,-4.5277,-4.5277,-4.5277,-4.5286,-4.5235,-4.52,-4.5136,-4.5084,-4.4991,-4.4754,-4.4393,-4.4357,-4.4137,-4.3777,-4.3758,-4.3758,-4.372,-4.3322,-4.3095,-4.3045,-4.2099,-4.1397,-4.095,-4.0446,-3.994,-3.9514,-3.9351,-3.9045,-3.8615,-3.8478,-3.8372,-3.8191,-3.7412,-3.6651,-3.591,-3.5131,-3.4335,-3.3538,-3.2723,-3.1926,-3.1125,-3.1034,-3.0822,-3.0473,-3.0785,-3.0817,-3.0491,-3.0455,-3.0292,-2.9934,-3.0242,-3.0455,-3.0473,-3.1197,-3.1813,-3.2176,-3.2198,-3.2379,-3.2814,-3.2846,-3.2947,-3.331,-3.4173,-3.5026,-3.5446,-3.5771,-3.6237,-3.697,-3.7041,-3.7202,-3.7523,-3.7595,-3.7595,-3.7595,-3.7595,-3.7595,-3.7595,-3.7595,-3.7595,-3.7595,-3.7613,-3.7613,-3.7631,-3.7521,-3.7428,-3.7316,-3.7201,-3.6968,-3.6585,-3.6199,-3.5732,-3.5241,-3.4811,-3.4472,-3.4275,-3.4151,-3.3971,-3.3712,-3.3631,-3.3518,-3.3129,-3.2821,-3.2659,-3.2546,-3.2222,-3.1843,-3.1568,-3.1487,-3.1121,-4.4513,-4.5201,-4.4571,-4.4685,-4.5277,-4.5277,-4.5277,-4.5277,-4.5277,-4.5275,-4.5213,-4.5203,-4.5151,-4.5106,-4.5068,-4.5014,-4.5022,-4.4967,-4.4943,-4.4943,-4.4938,-4.4919,-4.4869,-4.4263,-4.3966,-4.3872,-4.3095,-4.2375,-4.1795,-4.1397,-4.0753,-3.9943,-3.9556,-3.9154,-3.8703,-3.8569,-3.8401,-3.8171,-3.7593,-3.7194,-3.6977,-3.6218,-3.5494,-3.4863,-3.3719,-3.2995,-3.2705,-3.1799,-3.1347,-3.151,-3.1542,-3.1528,-3.1546,-3.1542,-3.1542,-3.1528,-3.1528,-3.1451,-3.131,-3.1655,-3.2071,-3.2451,-3.2469,-3.2814,-3.3628,-3.4715,-3.4953,-3.4207,-3.5069,-3.603,-3.6482,-3.6719,-3.6988,-3.7542,-3.7613,-3.7577,-3.7595,-3.7595,-3.7595,-3.7595,-3.7595,-3.7595,-3.7631,-3.7755,-3.7987,-3.8166,-3.813,-3.8112,-3.8113,-3.8005,-3.7788,-3.7659,-3.7514,-3.7201,-3.6632,-3.6451,-3.6075,-3.5356,-3.5078,-3.4747,-3.4431,-3.4184,-3.4126,-3.4077,-3.4068,-3.402,-3.402,-3.368,-3.3356,-3.3275,-3.2935,-3.2514,-3.2303,-3.2044,-3.1607,-4.4513,-4.5239,-4.5144,-4.522,-4.5277,-4.5277,-4.5277,-4.5277,-4.5277,-4.5277,-4.5286,-4.5213,-4.5192,-4.5181,-4.5125,-4.5084,-4.5091,-4.5091,-4.5091,-4.5061,-4.5014,-4.4979,-4.4979,-4.4825,-4.4781,-4.4668,-4.3947,-4.3512,-4.3246,-4.1882,-4.0772,-3.9921,-3.932,-3.9022,-3.8896,-3.8494,-3.8242,-3.8209,-3.8136,-3.7738,-3.6995,-3.6218,-3.5768,-3.5677,-3.352,-3.2977,-3.4226,-3.2886,-3.2433,-3.3103,-3.3121,-3.3121,-3.314,-3.314,-3.3158,-3.3085,-3.3103,-3.2886,-3.2158,-3.1473,-3.1836,-3.3103,-3.3284,-3.3647,-3.4461,-3.5639,-3.62,-3.5698,-3.5318,-3.5776,-3.6651,-3.7341,-3.7667,-3.765,-3.7649,-3.7595,-3.7595,-3.7595,-3.7595,-3.7595,-3.7595,-3.7613,-3.7738,-3.8255,-3.8915,-3.9379,-3.9397,-3.9414,-3.9397,-3.9022,-3.8664,-3.8538,-3.811,-3.7554,-3.7163,-3.686,-3.6381,-3.5764,-3.538,-3.5005,-3.4586,-3.4358,-3.425,-3.4176,-3.4101,-3.4101,-3.4101,-3.402,-3.3971,-3.3858,-3.3728,-3.3647,-3.3097,-3.2562,-3.1866,-4.4513,-4.525,-4.4743,-4.4838,-4.5258,-4.5277,-4.5277,-4.5277,-4.5277,-4.5277,-4.5277,-4.5275,-4.5246,-4.5265,-4.5192,-4.5159,-4.5159,-4.5125,-4.5103,-4.5103,-4.5061,-4.5049,-4.5038,-4.4979,-4.4955,-4.4943,-4.4578,-4.4156,-4.3474,-4.2003,-4.0696,-3.9729,-3.9216,-3.891,-3.8744,-3.8385,-3.8209,-3.8209,-3.8209,-3.8046,-3.772,-3.7395,-3.6979,-3.6472,-3.553,-3.5041,-3.5116,-3.3755,-3.3284,-3.3954,-3.3212,-3.2687,-3.2687,-3.2705,-3.2469,-3.2053,-3.2433,-3.2759,-3.2886,-3.3031,-3.3429,-3.4066,-3.4099,-3.4443,-3.5152,-3.4971,-3.5313,-3.6906,-3.6997,-3.7091,-3.746,-3.7753,-3.7863,-3.7828,-3.7793,-3.7739,-3.7649,-3.7667,-3.7649,-3.7613,-3.7595,-3.7827,-3.829,-3.8986,-3.9538,-3.9841,-3.9895,-3.9966,-3.9914,-3.9627,-3.9504,-3.9413,-3.9165,-3.839,-3.7431,-3.6956,-3.6583,-3.6109,-3.572,-3.5334,-3.5045,-3.4675,-3.4472,-3.4275,-3.4176,-3.4126,-3.4101,-3.4101,-3.4101,-3.4101,-3.4101,-3.3987,-3.3728,-3.3469,-3.2983,-4.4895,-4.5163,-4.4598,-4.4723,-4.5288,-4.5277,-4.5277,-4.5277,-4.5277,-4.5277,-4.5277,-4.5277,-4.5277,-4.5297,-4.5235,-4.5224,-4.5213,-4.517,-4.5159,-4.5159,-4.5136,-4.5125,-4.5125,-4.5049,-4.5014,-4.5014,-4.4967,-4.4526,-4.3668,-4.2564,-4.1241,-4.0095,-3.957,-3.9137,-3.8722,-3.8385,-3.8209,-3.8209,-3.8209,-3.8209,-3.8209,-3.8209,-3.7919,-3.7357,-3.6886,-3.649,-3.6127,-3.4588,-3.4117,-3.486,-3.381,-3.3194,-3.3176,-3.3194,-3.2922,-3.2415,-3.2632,-3.3103,-3.3701,-3.4081,-3.4464,-3.4844,-3.4917,-3.5369,-3.6037,-3.5385,-3.5783,-3.7701,-3.8209,-3.8085,-3.8071,-3.7985,-3.7916,-3.7916,-3.7916,-3.7846,-3.7721,-3.7685,-3.7685,-3.7613,-3.7863,-3.8326,-3.9254,-3.9912,-4.0324,-4.0592,-4.0628,-4.0556,-4.0503,-4.0431,-4.0235,-4.0198,-4.0055,-3.9228,-3.7768,-3.7537,-3.7178,-3.6539,-3.6172,-3.5938,-3.5604,-3.5161,-3.4787,-3.4602,-3.4399,-3.4201,-3.4126,-3.4101,-3.4101,-3.4101,-3.4101,-3.4101,-3.402,-3.4052,-3.3874,-4.5965,-4.5335,-4.5239,-4.525,-4.5277,-4.5277,-4.5277,-4.5277,-4.5277,-4.5277,-4.5277,-4.5277,-4.5277,-4.5277,-4.5297,-4.5277,-4.5297,-4.5286,-4.5267,-4.5275,-4.5213,-4.5192,-4.5192,-4.5125,-4.5103,-4.5091,-4.508,-4.4638,-4.3802,-4.3604,-4.2742,-4.1173,-4.048,-3.9821,-3.9081,-3.8499,-3.8209,-3.8209,-3.8209,-3.8209,-3.8209,-3.8209,-3.8172,-3.7973,-3.6707,-3.6327,-3.6669,-3.5403,-3.4932,-3.5747,-3.5514,-3.5478,-3.555,-3.5478,-3.5333,-3.5279,-3.479,-3.448,-3.4428,-3.4048,-3.4298,-3.5496,-3.5858,-3.6399,-3.7667,-3.7665,-3.7756,-3.8191,-3.8209,-3.8192,-3.8264,-3.8107,-3.8002,-3.8002,-3.7933,-3.7846,-3.7793,-3.7829,-3.7685,-3.7827,-3.8415,-3.9325,-4.0699,-4.102,-4.1359,-4.1805,-4.2091,-4.2037,-4.1841,-4.1431,-4.1109,-4.0913,-4.0465,-3.9645,-3.8876,-3.8586,-3.8077,-3.7455,-3.7003,-3.6618,-3.6084,-3.5604,-3.5253,-3.4913,-3.4675,-3.4448,-3.4201,-3.4101,-3.4101,-3.4101,-3.4101,-3.4101,-3.4101,-3.4101,-3.3987,-4.6844,-4.6023,-4.5517,-4.5277,-4.5277,-4.5277,-4.5277,-4.5277,-4.5277,-4.5277,-4.5277,-4.5277,-4.5277,-4.5277,-4.5277,-4.5277,-4.5277,-4.5277,-4.5277,-4.5277,-4.5275,-4.5275,-4.5265,-4.5192,-4.5148,-4.5084,-4.5049,-4.4615,-4.3882,-4.3798,-4.3259,-4.2086,-4.0922,-4.0184,-3.9756,-3.8747,-3.8209,-3.8227,-3.8209,-3.8209,-3.8209,-3.8209,-3.8207,-3.8239,-3.7713,-3.7531,-3.782,-3.6279,-3.5823,-3.6588,-3.5652,-3.5025,-3.4989,-3.4537,-3.4262,-3.4298,-3.4461,-3.4808,-3.5297,-3.5602,-3.6146,-3.716,-3.7341,-3.7486,-3.8064,-3.8209,-3.8209,-3.8227,-3.8227,-3.839,-3.8735,-3.8483,-3.814,-3.8123,-3.8055,-3.8185,-3.8456,-3.8528,-3.8616,-3.9076,-3.9771,-4.0538,-4.0985,-4.152,-4.1986,-4.2236,-4.2308,-4.2308,-4.2272,-4.2002,-4.1805,-4.1843,-4.1609,-4.1163,-4.0378,-3.977,-3.9213,-3.851,-3.7946,-3.7378,-3.6838,-3.6028,-3.5554,-3.5131,-3.489,-3.457,-3.43,-3.4176,-3.4176,-3.4101,-3.4101,-3.4101,-3.4101,-3.4101,-3.4101,-4.7302,-4.6481,-4.5927,-4.5536,-4.5297,-4.5277,-4.5277,-4.5277,-4.5277,-4.5277,-4.5277,-4.5277,-4.5277,-4.5277,-4.5277,-4.5277,-4.5277,-4.5277,-4.5277,-4.5277,-4.5277,-4.5277,-4.5297,-4.5246,-4.5203,-4.5159,-4.5103,-4.4764,-4.4319,-4.4265,-4.3794,-4.2826,-4.1723,-4.1017,-4.0481,-3.928,-3.8605,-3.8571,-3.837,-3.8242,-3.8224,-3.8257,-3.829,-3.8322,-3.8336,-3.8354,-3.8302,-3.7264,-3.6919,-3.7267,-3.6404,-3.5779,-3.5693,-3.524,-3.495,-3.5005,-3.5476,-3.5983,-3.6526,-3.7087,-3.7611,-3.8136,-3.8209,-3.8209,-3.8209,-3.8209,-3.8209,-3.8228,-3.8572,-3.8952,-3.9206,-3.9115,-3.8934,-3.8934,-3.8847,-3.8976,-3.9391,-3.9372,-3.9637,-4.0167,-4.0663,-4.1109,-4.1484,-4.1968,-4.2236,-4.2308,-4.2308,-4.2308,-4.2308,-4.2308,-4.2308,-4.2308,-4.2236,-4.1948,-4.1484,-4.1002,-4.0182,-3.946,-3.867,-3.8106,-3.7416,-3.6567,-3.5827,-3.5402,-3.4991,-3.465,-3.4423,-3.4325,-3.4201,-3.4126,-3.4101,-3.4101,-3.4101,-3.4101,-3.4101,-4.7349,-4.6691,-4.6489,-4.608,-4.5449,-4.5411,-4.5335,-4.5297,-4.5277,-4.5277,-4.5277,-4.5277,-4.5277,-4.5277,-4.5277,-4.5277,-4.5277,-4.5277,-4.5277,-4.5277,-4.5277,-4.5277,-4.5277,-4.5297,-4.5267,-4.5256,-4.5213,-4.5192,-4.5085,-4.4984,-4.4459,-4.3555,-4.3004,-4.218,-4.1146,-4.0105,-3.9489,-3.9311,-3.8766,-3.8399,-3.8307,-3.8389,-3.8382,-3.8417,-3.8462,-3.8462,-3.8417,-3.8326,-3.8216,-3.8291,-3.8158,-3.8203,-3.7901,-3.781,-3.7993,-3.7794,-3.8028,-3.81,-3.8082,-3.8082,-3.8082,-3.8209,-3.8209,-3.8209,-3.8209,-3.8209,-3.8245,-3.8445,-3.9025,-3.9605,-3.9659,-4.0075,-4.0347,-4.0456,-4.0203,-4.0185,-4.0238,-4.0235,-4.0447,-4.099,-4.1237,-4.1466,-4.204,-4.2272,-4.2308,-4.2308,-4.2308,-4.2308,-4.2308,-4.2308,-4.2308,-4.2308,-4.2308,-4.2162,-4.2198,-4.2183,-4.1234,-4.034,-3.9493,-3.875,-3.7994,-3.718,-3.6285,-3.575,-3.5058,-3.47,-3.4382,-3.4275,-3.4184,-3.4126,-3.4101,-3.4101,-3.4101,-3.4101,-3.4101,-4.8525,-4.822,-4.7646,-4.6901,-4.6175,-4.6137,-4.5831,-4.5316,-4.5277,-4.5277,-4.5277,-4.5277,-4.5277,-4.5277,-4.5277,-4.5277,-4.5277,-4.5277,-4.5277,-4.5277,-4.5277,-4.5277,-4.5277,-4.5277,-4.5286,-4.5224,-4.5203,-4.5192,-4.5203,-4.5213,-4.4893,-4.431,-4.3485,-4.2771,-4.2081,-4.1009,-4.0375,-4.0198,-3.9575,-3.9175,-3.907,-3.866,-3.8415,-3.8462,-3.8476,-3.8544,-3.8593,-3.8528,-3.8478,-3.8478,-3.837,-3.8274,-3.8225,-3.8209,-3.8209,-3.8209,-3.8209,-3.8209,-3.8209,-3.8209,-3.8209,-3.8209,-3.8209,-3.8209,-3.8209,-3.821,-3.8464,-3.8897,-3.9351,-3.9804,-4.0764,-4.1162,-4.1126,-4.0564,-4.0456,-4.0727,-4.114,-4.1496,-4.1848,-4.2,-4.2049,-4.2154,-4.2257,-4.2308,-4.2308,-4.2308,-4.2308,-4.2308,-4.2308,-4.2308,-4.2308,-4.2308,-4.2308,-4.2308,-4.2308,-4.2308,-4.1823,-4.1027,-4.0248,-3.9391,-3.8611,-3.765,-3.6791,-3.598,-3.5307,-3.4863,-3.453,-3.4259,-3.4184,-3.4142,-3.4133,-3.4133,-3.4101,-3.4101,-3.4101,-4.9377,-4.9052,-4.8506,-4.778,-4.6959,-4.6653,-4.6233,-4.5736,-4.5411,-4.5297,-4.5277,-4.5277,-4.5277,-4.5277,-4.5277,-4.5277,-4.5277,-4.5277,-4.5277,-4.5277,-4.5277,-4.5277,-4.5277,-4.5277,-4.5286,-4.5235,-4.5224,-4.5224,-4.5243,-4.5132,-4.4965,-4.4524,-4.3835,-4.3248,-4.283,-4.1835,-4.1211,-4.105,-4.041,-3.9899,-3.9554,-3.9163,-3.8839,-3.8614,-3.8575,-3.8627,-3.8707,-3.8609,-3.8575,-3.8544,-3.8451,-3.8354,-3.8272,-3.8257,-3.8259,-3.8242,-3.8209,-3.8209,-3.8209,-3.8209,-3.8209,-3.8209,-3.8209,-3.8209,-3.8281,-3.8391,-3.8916,-3.9296,-3.9967,-4.0655,-4.1506,-4.1994,-4.1868,-4.1451,-4.1415,-4.154,-4.2044,-4.2323,-4.2494,-4.245,-4.2427,-4.2405,-4.2346,-4.2308,-4.2308,-4.2308,-4.2308,-4.2308,-4.2308,-4.2308,-4.2308,-4.2308,-4.2308,-4.2308,-4.2308,-4.2308,-4.2308,-4.1698,-4.1014,-4.0116,-3.9295,-3.8077,-3.7087,-3.6238,-3.5505,-3.5284,-3.497,-3.4471,-3.425,-3.4249,-3.4385,-3.4133,-3.4101,-3.4101,-3.4101,-4.9843,-4.9205,-4.9186,-4.8659,-4.7818,-4.7016,-4.6557,-4.6347,-4.564,-4.5277,-4.5277,-4.5277,-4.5277,-4.5277,-4.5277,-4.5277,-4.5277,-4.5277,-4.5277,-4.5277,-4.5277,-4.5277,-4.5277,-4.5277,-4.5297,-4.5297,-4.5297,-4.5297,-4.5286,-4.4981,-4.4663,-4.4425,-4.4106,-4.3777,-4.324,-4.2465,-4.2066,-4.1922,-4.1283,-4.0551,-3.9931,-3.9896,-3.9588,-3.8875,-3.8839,-3.8802,-3.8707,-3.8692,-3.8692,-3.8673,-3.8544,-3.8446,-3.8401,-3.8338,-3.829,-3.829,-3.8224,-3.8209,-3.8209,-3.8209,-3.8209,-3.8209,-3.8209,-3.8263,-3.8408,-3.8933,-3.9405,-3.9804,-4.08,-4.1614,-4.1886,-4.2375,-4.2738,-4.2865,-4.2611,-4.2663,-4.2749,-4.2609,-4.2568,-4.2506,-4.2407,-4.2308,-4.2308,-4.2308,-4.2308,-4.2308,-4.2308,-4.2308,-4.2308,-4.2308,-4.2308,-4.2308,-4.2308,-4.2308,-4.2308,-4.2308,-4.2287,-4.2,-4.1368,-4.0555,-3.9738,-3.8574,-3.7429,-3.6588,-3.6018,-3.5777,-3.5536,-3.5166,-3.4984,-3.5168,-3.4945,-3.4401,-3.4311,-3.4505,-3.4392,-5.0168,-4.9996,-4.9977,-4.9519,-4.8697,-4.7837,-4.7081,-4.6443,-4.567,-4.5335,-4.5277,-4.5277,-4.5277,-4.5277,-4.5277,-4.5277,-4.5277,-4.5277,-4.5277,-4.5277,-4.5277,-4.5277,-4.5277,-4.5277,-4.5277,-4.5277,-4.5277,-4.5277,-4.5267,-4.4946,-4.465,-4.4383,-4.4106,-4.3814,-4.3423,-4.3171,-4.31,-4.292,-4.2277,-4.1783,-4.1456,-4.0972,-4.0414,-3.9662,-3.957,-3.9258,-3.8799,-3.8707,-3.8658,-3.8559,-3.8544,-3.846,-3.8433,-3.8354,-3.8323,-3.829,-3.8241,-3.8209,-3.8209,-3.8209,-3.8209,-3.8209,-3.8299,-3.8462,-3.9043,-3.9278,-3.9948,-4.0745,-4.156,-4.1958,-4.2448,-4.2755,-4.2919,-4.2919,-4.2919,-4.29,-4.2862,-4.2824,-4.2747,-4.2668,-4.257,-4.245,-4.2348,-4.2308,-4.2308,-4.2308,-4.2308,-4.2308,-4.2308,-4.2308,-4.2308,-4.2308,-4.2308,-4.2308,-4.2308,-4.2308,-4.2246,-4.2124,-4.156,-4.0799,-3.999,-3.9065,-3.8012,-3.7011,-3.6828,-3.6593,-3.6474,-3.6249,-3.6235,-3.6065,-3.5808,-3.5416,-3.5406,-3.5477,-3.5104,-5.0302,-5.0302,-5.0302,-5.0034,-4.9519,-4.8697,-4.7845,-4.6997,-4.6175,-4.5583,-4.5354,-4.5277,-4.5277,-4.5277,-4.5277,-4.5277,-4.5277,-4.5277,-4.5277,-4.5277,-4.5277,-4.5277,-4.5277,-4.5277,-4.5277,-4.5277,-4.5277,-4.5277,-4.5224,-4.4862,-4.4559,-4.4341,-4.3999,-4.3681,-4.3513,-4.3463,-4.3446,-4.3302,-4.2934,-4.2623,-4.2187,-4.1832,-4.1205,-4.0487,-4.0102,-3.9533,-3.8817,-3.8707,-3.8658,-3.8609,-3.8593,-3.8559,-3.8512,-3.8451,-3.8368,-3.8354,-3.829,-3.8242,-3.8209,-3.8227,-3.839,-3.8627,-3.8699,-3.9097,-3.9749,-4.0148,-4.0908,-4.1488,-4.1977,-4.2411,-4.2755,-4.2919,-4.2919,-4.2919,-4.2919,-4.2919,-4.2919,-4.288,-4.2786,-4.267,-4.2589,-4.2508,-4.2346,-4.2308,-4.2308,-4.2308,-4.2308,-4.2308,-4.2308,-4.2308,-4.2308,-4.2308,-4.2308,-4.2308,-4.2308,-4.2308,-4.2228,-4.2086,-4.1512,-4.0808,-4.0084,-3.9337,-3.8603,-3.7788,-3.7588,-3.7411,-3.7317,-3.7157,-3.6898,-3.6728,-3.6586,-3.6425,-3.6312,-3.6141,-3.5785,-5.0302,-5.0302,-5.0302,-5.0302,-5.0111,-4.9328,-4.8372,-4.7693,-4.6634,-4.587,-4.5411,-4.5277,-4.5277,-4.5277,-4.5277,-4.5277,-4.5277,-4.5277,-4.5277,-4.5277,-4.5277,-4.5277,-4.5277,-4.5277,-4.5277,-4.5277,-4.5277,-4.5277,-4.5162,-4.4726,-4.4443,-4.4275,-4.3825,-4.3531,-4.3497,-4.3445,-4.3411,-4.3429,-4.3355,-4.3026,-4.2587,-4.2417,-4.2029,-4.1258,-4.0506,-3.99,-3.9294,-3.9001,-3.8927,-3.8985,-3.8799,-3.8676,-3.8658,-3.8544,-3.8465,-3.8385,-3.8305,-3.8259,-3.8262,-3.8336,-3.8644,-3.917,-3.9387,-3.984,-4.0528,-4.1126,-4.1596,-4.194,-4.2502,-4.2774,-4.2864,-4.2919,-4.2919,-4.2919,-4.2919,-4.2919,-4.2881,-4.2842,-4.2745,-4.2629,-4.2566,-4.2445,-4.2346,-4.2308,-4.2308,-4.2308,-4.2308,-4.2308,-4.2308,-4.2308,-4.2308,-4.2308,-4.2308,-4.2308,-4.2308,-4.2308,-4.2187,-4.2026,-4.1338,-4.0642,-3.9986,-3.9349,-3.8983,-3.8576,-3.8342,-3.8233,-3.8164,-3.792,-3.761,-3.7537,-3.7508,-3.7144,-3.6792,-3.6648,-3.6384,-5.0302,-5.0302,-5.0302,-5.0302,-5.0054,-4.8735,-4.7979,-4.7674,-4.6233,-4.5602,-4.5316,-4.5277,-4.5277,-4.5277,-4.5277,-4.5277,-4.5277,-4.5277,-4.5277,-4.5277,-4.5277,-4.5277,-4.5277,-4.5277,-4.5277,-4.5277,-4.5277,-4.5277,-4.5151,-4.4764,-4.4416,-4.4332,-4.3855,-4.3479,-4.3479,-4.348,-4.3462,-4.348,-4.348,-4.3371,-4.3224,-4.3113,-4.2782,-4.1992,-4.1258,-4.0802,-4.049,-3.9974,-3.9974,-4.0139,-3.9481,-3.886,-3.8721,-3.8569,-3.851,-3.8447,-3.8347,-3.8262,-3.8317,-3.879,-3.9206,-3.9514,-4.0057,-4.0601,-4.1325,-4.1596,-4.2049,-4.2466,-4.2829,-4.2919,-4.2919,-4.2919,-4.2919,-4.2919,-4.2919,-4.2919,-4.29,-4.2842,-4.2783,-4.2668,-4.2568,-4.2445,-4.2346,-4.2308,-4.2308,-4.2308,-4.2308,-4.2308,-4.2308,-4.2308,-4.2308,-4.2308,-4.2308,-4.2308,-4.2308,-4.2287,-4.2207,-4.1963,-4.1293,-4.0737,-4.007,-3.9478,-3.912,-3.9067,-3.9116,-3.898,-3.8745,-3.8741,-3.8447,-3.8427,-3.8352,-3.8025,-3.7699,-3.74,-3.7112,-5.0302,-5.0302,-5.0302,-5.0302,-5.0149,-4.9347,-4.8544,-4.775,-4.692,-4.6003,-4.5392,-4.5277,-4.5277,-4.5277,-4.5277,-4.5277,-4.5277,-4.5277,-4.5277,-4.5277,-4.5277,-4.5277,-4.5277,-4.5277,-4.5277,-4.5277,-4.5277,-4.5277,-4.5162,-4.4831,-4.4533,-4.4388,-4.3934,-4.3647,-4.3513,-4.3479,-4.3479,-4.3479,-4.3479,-4.3479,-4.3479,-4.3461,-4.3112,-4.2451,-4.1864,-4.1534,-4.104,-4.071,-4.0708,-4.0765,-4.0219,-3.9598,-3.931,-3.9104,-3.8988,-3.9014,-3.8891,-3.9005,-3.9296,-3.9369,-3.9713,-4.0383,-4.0854,-4.1452,-4.2013,-4.2266,-4.2429,-4.2774,-4.2901,-4.2919,-4.2919,-4.2919,-4.2919,-4.2919,-4.2919,-4.2919,-4.2882,-4.2862,-4.2767,-4.2689,-4.2588,-4.2468,-4.2369,-4.2308,-4.2308,-4.2308,-4.2308,-4.2308,-4.2308,-4.2308,-4.2308,-4.2308,-4.2308,-4.2308,-4.2308,-4.2287,-4.2225,-4.1895,-4.1356,-4.0943,-4.049,-3.9876,-3.9282,-3.9282,-3.9265,-3.9282,-3.9113,-3.9131,-3.9104,-3.8935,-3.8821,-3.8745,-3.8513,-3.8028,-3.7848,-5.0302,-5.0302,-5.0302,-5.0302,-5.0283,-5.0092,-4.9156,-4.7903,-4.7654,-4.6519,-4.5526,-4.5277,-4.5277,-4.5277,-4.5277,-4.5277,-4.5277,-4.5277,-4.5277,-4.5277,-4.5277,-4.5277,-4.5277,-4.5277,-4.5277,-4.5277,-4.5277,-4.5277,-4.5205,-4.4988,-4.4676,-4.4438,-4.4136,-4.386,-4.3632,-4.3496,-4.3479,-4.3479,-4.3479,-4.3479,-4.3479,-4.3479,-4.3149,-4.2727,-4.2525,-4.2249,-4.1791,-4.1462,-4.1352,-4.1409,-4.1088,-4.0868,-4.0685,-4.009,-3.9882,-4.0051,-3.9817,-3.982,-4.0093,-4.013,-4.0437,-4.165,-4.185,-4.2176,-4.2684,-4.2774,-4.2829,-4.2865,-4.2919,-4.2919,-4.2919,-4.2919,-4.2919,-4.2919,-4.2919,-4.2919,-4.2919,-4.29,-4.2787,-4.2649,-4.2568,-4.2468,-4.2369,-4.2308,-4.2308,-4.2308,-4.2308,-4.2308,-4.2308,-4.2308,-4.2308,-4.2308,-4.2308,-4.2308,-4.2308,-4.2287,-4.2246,-4.1917,-4.1401,-4.099,-4.0635,-3.9952,-3.9379,-3.9315,-3.9299,-3.9315,-3.9315,-3.9245,-3.9245,-3.9228,-3.9067,-3.8821,-3.8683,-3.856,-3.8427,-5.0302,-5.0302,-5.0302,-5.0302,-5.0187,-4.9614,-4.8793,-4.7769,-4.712,-4.6214,-4.5373,-4.5277,-4.5277,-4.5277,-4.5277,-4.5277,-4.5277,-4.5277,-4.5277,-4.5277,-4.5277,-4.5277,-4.5277,-4.5277,-4.5277,-4.5277,-4.5277,-4.5277,-4.5224,-4.4988,-4.4819,-4.4637,-4.425,-4.3955,-4.3846,-4.3666,-4.3479,-4.3479,-4.3479,-4.3479,-4.3479,-4.3461,-4.3442,-4.3149,-4.3149,-4.3075,-4.2892,-4.247,-4.2381,-4.2808,-4.1588,-4.1646,-4.1921,-4.123,-4.0852,-4.089,-4.06,-4.0491,-4.0727,-4.1053,-4.1307,-4.1795,-4.2266,-4.2629,-4.2865,-4.2919,-4.2919,-4.2919,-4.2919,-4.2919,-4.2919,-4.2919,-4.2919,-4.2919,-4.2919,-4.2919,-4.2919,-4.29,-4.2824,-4.2668,-4.2586,-4.2486,-4.2407,-4.2346,-4.2328,-4.2308,-4.2308,-4.2308,-4.2308,-4.2308,-4.2308,-4.2308,-4.2308,-4.2308,-4.2308,-4.2308,-4.2246,-4.1938,-4.1468,-4.0919,-4.0466,-3.9825,-3.9458,-3.9352,-3.9315,-3.9315,-3.9315,-3.9315,-3.9315,-3.9272,-3.904,-3.8805,-3.8694,-3.86,-3.8448,-5.0302,-5.0302,-5.0302,-5.0302,-5.0245,-4.9901,-4.8965,-4.7845,-4.733,-4.6462,-4.5583,-4.5277,-4.5277,-4.5277,-4.5277,-4.5277,-4.5277,-4.5277,-4.5277,-4.5277,-4.5277,-4.5277,-4.5277,-4.5277,-4.5277,-4.5277,-4.5277,-4.5277,-4.5277,-4.5162,-4.4957,-4.4726,-4.4388,-4.4151,-4.3958,-4.3666,-4.3513,-4.3479,-4.3479,-4.3479,-4.3479,-4.3479,-4.3479,-4.3479,-4.3479,-4.3479,-4.3423,-4.3204,-4.3078,-4.3156,-4.2538,-4.2558,-4.2614,-4.245,-4.1887,-4.1922,-4.1469,-4.1325,-4.1524,-4.1831,-4.1813,-4.2303,-4.2738,-4.2883,-4.2919,-4.2919,-4.2919,-4.2919,-4.2919,-4.2919,-4.2919,-4.2919,-4.2919,-4.2919,-4.2919,-4.2919,-4.2919,-4.2919,-4.2824,-4.2727,-4.2706,-4.2625,-4.2463,-4.2405,-4.2366,-4.2346,-4.2308,-4.2308,-4.2308,-4.2308,-4.2308,-4.2308,-4.2287,-4.2246,-4.2207,-4.2166,-4.2023,-4.1749,-4.1361,-4.0808,-4.0319,-3.9696,-3.9441,-3.9342,-3.9315,-3.9315,-3.9315,-3.9315,-3.9315,-3.9272,-3.904,-3.8832,-3.875,-3.8628,-3.8504,-5.0302,-5.0302,-5.0302,-5.0302,-5.0302,-5.0302,-4.9461,-4.822,-4.7845,-4.6929,-4.564,-4.5373,-4.5277,-4.5277,-4.5277,-4.5277,-4.5277,-4.5277,-4.5277,-4.5277,-4.5277,-4.5277,-4.5277,-4.5277,-4.5277,-4.5277,-4.5277,-4.5277,-4.5277,-4.5256,-4.5079,-4.4807,-4.4533,-4.4279,-4.3986,-4.3666,-4.3531,-4.3479,-4.3479,-4.3479,-4.3479,-4.3479,-4.3479,-4.348,-4.348,-4.3463,-4.341,-4.3355,-4.3302,-4.3286,-4.3142,-4.3124,-4.305,-4.2939,-4.2919,-4.2792,-4.2266,-4.2393,-4.2484,-4.2357,-4.2285,-4.2701,-4.2865,-4.2919,-4.2919,-4.2919,-4.2919,-4.2919,-4.2919,-4.2919,-4.2919,-4.2919,-4.2919,-4.2919,-4.2919,-4.2919,-4.2919,-4.29,-4.2881,-4.2842,-4.2841,-4.2706,-4.2526,-4.2463,-4.2425,-4.2328,-4.2308,-4.2308,-4.2308,-4.2308,-4.2308,-4.2308,-4.2267,-4.2187,-4.2103,-4.198,-4.1727,-4.1338,-4.0932,-4.0431,-4.0045,-3.9618,-3.9468,-3.9315,-3.9315,-3.9315,-3.9315,-3.9315,-3.9315,-3.9218,-3.8996,-3.886,-3.8777,-3.8655,-3.852,-5.0302,-5.0302,-5.0302,-5.0302,-5.0302,-5.0302,-4.9805,-4.8831,-4.8086,-4.7272,-4.6118,-4.5621,-4.5277,-4.5277,-4.5277,-4.5277,-4.5277,-4.5277,-4.5277,-4.5277,-4.5277,-4.5277,-4.5277,-4.5277,-4.5277,-4.5277,-4.5277,-4.5277,-4.5267,-4.5267,-4.5109,-4.4807,-4.4506,-4.4279,-4.3986,-4.3666,-4.3496,-4.3479,-4.3479,-4.3479,-4.3479,-4.3479,-4.3463,-4.3446,-4.3411,-4.3394,-4.3322,-4.3286,-4.3251,-4.3178,-4.3141,-4.3049,-4.2938,-4.2919,-4.2919,-4.2882,-4.281,-4.2792,-4.2847,-4.2701,-4.2629,-4.2883,-4.2919,-4.2919,-4.2919,-4.2919,-4.2919,-4.2919,-4.2919,-4.2919,-4.2919,-4.2919,-4.2919,-4.2919,-4.2919,-4.2919,-4.2919,-4.2919,-4.2881,-4.2881,-4.288,-4.2725,-4.2546,-4.2503,-4.2463,-4.2366,-4.2308,-4.2308,-4.2308,-4.2308,-4.2308,-4.2308,-4.2103,-4.198,-4.1813,-4.1727,-4.1338,-4.0949,-4.0552,-4.0128,-3.9808,-3.953,-3.9415,-3.9315,-3.9315,-3.9315,-3.9315,-3.9315,-3.9315,-3.9218,-3.905,-3.8914,-3.8832,-3.8683,-3.8576,-5.0302,-5.0302,-5.0302,-5.0302,-5.0302,-5.0302,-4.9538,-4.8449,-4.796,-4.7043,-4.5946,-4.5488,-4.5277,-4.5277,-4.5277,-4.5277,-4.5277,-4.5277,-4.5277,-4.5277,-4.5277,-4.5277,-4.5277,-4.5277,-4.5277,-4.5277,-4.5277,-4.5277,-4.5256,-4.5098,-4.4922,-4.477,-4.4402,-4.4136,-4.3958,-4.3666,-4.3531,-4.3479,-4.3479,-4.3479,-4.3479,-4.3479,-4.348,-4.3464,-4.3411,-4.3376,-4.334,-4.3232,-4.3196,-4.316,-4.3141,-4.303,-4.2938,-4.2919,-4.2919,-4.2919,-4.2919,-4.2901,-4.2919,-4.2919,-4.2919,-4.2919,-4.2919,-4.2919,-4.2919,-4.2919,-4.2919,-4.2919,-4.2919,-4.2919,-4.2919,-4.2919,-4.2919,-4.2919,-4.2919,-4.2919,-4.2919,-4.2919,-4.29,-4.2919,-4.2881,-4.2727,-4.2588,-4.2546,-4.2465,-4.2346,-4.2308,-4.2308,-4.2308,-4.2308,-4.2308,-4.2308,-4.2023,-4.1727,-4.1534,-4.1338,-4.0879,-4.0497,-4.0351,-3.9944,-3.9644,-3.9415,-3.9325,-3.9315,-3.9315,-3.9315,-3.9315,-3.9315,-3.9315,-3.9218,-3.9121,-3.8996,-3.8887,-3.8805,-3.8683,-5.0302,-5.0302,-5.0302,-5.0302,-5.0302,-5.0302,-4.95,-4.822,-4.7884,-4.6986,-4.5851,-4.5411,-4.5277,-4.5277,-4.5277,-4.5277,-4.5277,-4.5277,-4.5277,-4.5277,-4.5277,-4.5277,-4.5277,-4.5277,-4.5277,-4.5277,-4.5277,-4.5277,-4.5173,-4.4934,-4.4701,-4.4676,-4.425,-4.3971,-4.383,-4.3632,-4.3479,-4.3479,-4.3479,-4.3479,-4.3479,-4.3479,-4.3463,-4.3428,-4.3393,-4.3394,-4.3376,-4.3269,-4.3178,-4.3142,-4.3086,-4.2994,-4.2901,-4.2919,-4.2919,-4.2919,-4.2919,-4.2919,-4.2919,-4.2919,-4.2919,-4.2919,-4.2919,-4.2919,-4.2919,-4.2919,-4.2919,-4.2919,-4.2919,-4.2919,-4.2919,-4.2919,-4.2919,-4.2919,-4.2919,-4.2919,-4.2919,-4.2919,-4.29,-4.29,-4.2862,-4.2747,-4.2649,-4.2588,-4.2488,-4.2348,-4.2308,-4.2308,-4.2308,-4.2308,-4.2308,-4.2287,-4.1878,-4.1512,-4.1202,-4.0902,-4.0424,-4.0095,-3.9944,-3.9782,-3.9478,-3.9379,-3.9325,-3.9315,-3.9315,-3.9315,-3.9315,-3.9315,-3.9315,-3.9245,-3.9175,-3.9077,-3.8969,-3.8887,-3.8805,-5.0302,-5.0302,-5.0302,-5.0302,-5.0302,-5.0302,-4.9805,-4.8716,-4.8086,-4.7226,-4.6156,-4.566,-4.5277,-4.5277,-4.5277,-4.5277,-4.5277,-4.5277,-4.5277,-4.5277,-4.5277,-4.5277,-4.5277,-4.5277,-4.5277,-4.5277,-4.5277,-4.5277,-4.5151,-4.4733,-4.4519,-4.4369,-4.4072,-4.3812,-4.3649,-4.3531,-4.3479,-4.3479,-4.3479,-4.3479,-4.3479,-4.3462,-4.341,-4.3304,-4.3323,-4.3323,-4.3123,-4.3105,-4.3105,-4.3105,-4.3012,-4.2938,-4.2919,-4.2919,-4.2919,-4.2919,-4.2919,-4.2919,-4.2919,-4.2919,-4.2919,-4.2919,-4.2919,-4.2919,-4.2919,-4.2919,-4.2919,-4.2919,-4.2919,-4.2919,-4.2919,-4.2919,-4.2919,-4.2919,-4.2919,-4.2919,-4.2919,-4.2919,-4.29,-4.29,-4.2824,-4.2746,-4.2629,-4.2568,-4.2488,-4.2328,-4.2308,-4.2308,-4.2308,-4.2308,-4.2308,-4.2187,-4.1749,-4.1316,-4.0879,-4.0466,-3.9986,-3.9747,-3.9609,-3.952,-3.9352,-3.9315,-3.9315,-3.9315,-3.9315,-3.9315,-3.9315,-3.9315,-3.9315,-3.9315,-3.9245,-3.9175,-3.905,-3.8958,-3.8903,-5.0302,-5.0302,-5.0302,-5.0302,-5.0302,-5.0302,-4.9538,-4.8391,-4.7952,-4.7016,-4.5755,-4.543,-4.5277,-4.5277,-4.5277,-4.5277,-4.5277,-4.5277,-4.5277,-4.5277,-4.5277,-4.5277,-4.5277,-4.5277,-4.5277,-4.5277,-4.5277,-4.5277,-4.5224,-4.4675,-4.4471,-4.4289,-4.3936,-4.3681,-4.3513,-4.3479,-4.3479,-4.3479,-4.3479,-4.3479,-4.3479,-4.3479,-4.3445,-4.334,-4.3251,-4.3251,-4.3142,-4.3013,-4.3031,-4.303,-4.2957,-4.2919,-4.2919,-4.2919,-4.2919,-4.2919,-4.2919,-4.2919,-4.2919,-4.2919,-4.2919,-4.2919,-4.2919,-4.2919,-4.2919,-4.2919,-4.2919,-4.2919,-4.2919,-4.2919,-4.2919,-4.2919,-4.2919,-4.2919,-4.2919,-4.2919,-4.2919,-4.2919,-4.2919,-4.29,-4.2842,-4.2745,-4.2647,-4.2546,-4.2447,-4.2328,-4.2308,-4.2308,-4.2308,-4.2308,-4.2308,-4.2061,-4.164,-4.1248,-4.0825,-4.0195,-3.9556,-3.9415,-3.9315,-3.9315,-3.9315,-3.9315,-3.9315,-3.9315,-3.9315,-3.9315,-3.9315,-3.9315,-3.9315,-3.9315,-3.9299,-3.9255,-3.9148,-3.904,-3.8985,-5.0302,-5.0302,-5.0302,-5.0302,-5.0302,-5.0302,-4.9519,-4.8285,-4.7903,-4.6863,-4.5316,-4.5277,-4.5277,-4.5277,-4.5277,-4.5277,-4.5277,-4.5277,-4.5277,-4.5277,-4.5277,-4.5277,-4.5277,-4.5277,-4.5277,-4.5267,-4.5173,-4.514,-4.5087,-4.457,-4.4322,-4.4102,-4.3793,-4.3565,-4.3496,-4.3479,-4.3479,-4.3479,-4.3479,-4.3479,-4.3479,-4.3479,-4.3428,-4.3358,-4.3305,-4.3233,-4.3178,-4.3068,-4.3012,-4.3012,-4.2975,-4.2919,-4.2919,-4.2919,-4.2919,-4.2919,-4.2919,-4.2919,-4.2919,-4.2919,-4.2919,-4.2919,-4.2919,-4.2919,-4.2919,-4.2919,-4.2919,-4.2919,-4.2919,-4.2919,-4.2919,-4.2919,-4.2919,-4.2919,-4.2919,-4.2919,-4.2919,-4.2919,-4.2919,-4.29,-4.2804,-4.2686,-4.2607,-4.2508,-4.2407,-4.2308,-4.2308,-4.2308,-4.2308,-4.2308,-4.2308,-4.1959,-4.1485,-4.1128,-4.0754,-4.0062,-3.9441,-3.9388,-3.9315,-3.9315,-3.9315,-3.9315,-3.9315,-3.9315,-3.9315,-3.9315,-3.9315,-3.9315,-3.9315,-3.9315,-3.9299,-3.9299,-3.9255,-3.9148,-3.9121,-5.0245,-5.0302,-5.0225,-5.0206,-5.013,-5.0264,-4.9729,-4.8697,-4.7895,-4.6729,-4.5383,-4.5277,-4.5277,-4.5277,-4.5277,-4.5277,-4.5277,-4.5277,-4.5277,-4.5277,-4.5277,-4.5277,-4.5277,-4.5277,-4.5256,-4.5224,-4.5045,-4.4891,-4.4819,-4.4336,-4.4109,-4.3971,-4.3732,-4.3479,-4.3479,-4.3479,-4.3479,-4.3479,-4.3479,-4.3479,-4.3479,-4.3479,-4.3392,-4.3322,-4.3305,-4.3269,-4.3141,-4.3068,-4.303,-4.3012,-4.2957,-4.2919,-4.2919,-4.2919,-4.2919,-4.2919,-4.2919,-4.2919,-4.2919,-4.2919,-4.2919,-4.2919,-4.2919,-4.2919,-4.2919,-4.2919,-4.2919,-4.2919,-4.2919,-4.2919,-4.2919,-4.2919,-4.2919,-4.2919,-4.2919,-4.2919,-4.2919,-4.2919,-4.2919,-4.2881,-4.2728,-4.2589,-4.253,-4.245,-4.2348,-4.2308,-4.2308,-4.2308,-4.2308,-4.2308,-4.2308,-4.1959,-4.1485,-4.1059,-4.0635,-3.985,-3.9352,-3.9299,-3.9315,-3.9315,-3.9315,-3.9315,-3.9315,-3.9315,-3.9315,-3.9315,-3.9315,-3.9315,-3.9315,-3.9315,-3.9315,-3.9299,-3.9299,-3.9255,-3.9218,-4.8984,-4.9442,-4.8888,-4.8648,-4.8735,-4.927,-4.9022,-4.8067,-4.6806,-4.5812,-4.5392,-4.5277,-4.5277,-4.5277,-4.5277,-4.5277,-4.5277,-4.5277,-4.5277,-4.5277,-4.5277,-4.5277,-4.5277,-4.5246,-4.5173,-4.5,-4.48,-4.465,-4.4533,-4.4117,-4.4036,-4.3926,-4.3666,-4.3513,-4.3479,-4.3479,-4.3479,-4.3479,-4.3479,-4.3479,-4.3479,-4.3479,-4.3445,-4.3322,-4.3305,-4.3233,-4.3123,-4.3049,-4.2994,-4.2994,-4.2919,-4.2919,-4.2919,-4.2919,-4.2919,-4.2919,-4.2919,-4.2919,-4.2919,-4.2919,-4.2919,-4.2919,-4.2919,-4.2919,-4.2919,-4.2919,-4.2919,-4.2919,-4.2919,-4.2919,-4.2919,-4.2919,-4.2919,-4.2919,-4.2919,-4.2919,-4.2919,-4.2919,-4.29,-4.2843,-4.2728,-4.2532,-4.243,-4.2409,-4.2328,-4.2308,-4.2308,-4.2308,-4.2308,-4.2308,-4.2287,-4.198,-4.1556,-4.1105,-4.0538,-3.9773,-3.9352,-3.9299,-3.9315,-3.9315,-3.9315,-3.9315,-3.9315,-3.9315,-3.9315,-3.9315,-3.9315,-3.9315,-3.9315,-3.9315,-3.9315,-3.9315,-3.9299,-3.9272,-3.9218,-4.8124,-4.8563,-4.8048,-4.7788,-4.7884,-4.8411,-4.8162,-4.7253,-4.6175,-4.5564,-4.5364,-4.5277,-4.5277,-4.5277,-4.5277,-4.5277,-4.5277,-4.5277,-4.5277,-4.5277,-4.5277,-4.5277,-4.5267,-4.5173,-4.5011,-4.4807,-4.4591,-4.4402,-4.4246,-4.3968,-4.383,-4.3749,-4.3597,-4.3513,-4.3479,-4.3479,-4.3479,-4.3479,-4.3479,-4.3479,-4.3479,-4.3479,-4.3463,-4.3376,-4.3287,-4.3178,-4.3104,-4.3012,-4.2919,-4.2919,-4.2919,-4.2919,-4.2919,-4.2919,-4.2919,-4.2919,-4.2919,-4.2919,-4.2919,-4.2919,-4.2919,-4.2919,-4.2919,-4.2919,-4.2919,-4.2919,-4.2919,-4.2919,-4.2919,-4.2919,-4.2919,-4.2919,-4.2919,-4.2919,-4.2919,-4.2919,-4.2919,-4.2919,-4.29,-4.2843,-4.2728,-4.2512,-4.2348,-4.2328,-4.2308,-4.2308,-4.2308,-4.2267,-4.2225,-4.2228,-4.2145,-4.1813,-4.1405,-4.0879,-4.0343,-3.9773,-3.9441,-3.9325,-3.9315,-3.9315,-3.9315,-3.9315,-3.9315,-3.9315,-3.9315,-3.9315,-3.9315,-3.9315,-3.9315,-3.9315,-3.9315,-3.9315,-3.9315,-3.9272,-3.9245,-4.7731,-4.775,-4.7731,-4.7635,-4.7685,-4.7627,-4.7188,-4.6481,-4.6405,-4.5965,-4.5316,-4.5277,-4.5277,-4.5277,-4.5277,-4.5277,-4.5277,-4.5277,-4.5277,-4.5277,-4.5277,-4.5277,-4.5184,-4.5011,-4.4843,-4.463,-4.436,-4.4121,-4.3955,-4.373,-4.3582,-4.3566,-4.3531,-4.3479,-4.3479,-4.3479,-4.3479,-4.3479,-4.3479,-4.3479,-4.3479,-4.3479,-4.3481,-4.3394,-4.3287,-4.3178,-4.3086,-4.2994,-4.2919,-4.2919,-4.2919,-4.2919,-4.2919,-4.2919,-4.2919,-4.2919,-4.2919,-4.2919,-4.2919,-4.2919,-4.2919,-4.2919,-4.2919,-4.2919,-4.2919,-4.2919,-4.2919,-4.2919,-4.2919,-4.2919,-4.2919,-4.2919,-4.2919,-4.2919,-4.2919,-4.2919,-4.2919,-4.2919,-4.2919,-4.2843,-4.2689,-4.253,-4.2369,-4.2308,-4.2065,-4.2002,-4.1938,-4.1852,-4.1852,-4.2044,-4.1899,-4.16,-4.1157,-4.0594,-4.0095,-3.9644,-3.9441,-3.9315,-3.9315,-3.9315,-3.9315,-3.9315,-3.9315,-3.9315,-3.9315,-3.9315,-3.9315,-3.9315,-3.9315,-3.9315,-3.9315,-3.9315,-3.9315,-3.9299,-3.9228,-4.6347,-4.6806,-4.6271,-4.6003,-4.6023,-4.6023,-4.587,-4.564,-4.5621,-4.5468,-4.5297,-4.5277,-4.5277,-4.5277,-4.5277,-4.5277,-4.5277,-4.5277,-4.5277,-4.5277,-4.5277,-4.5277,-4.5173,-4.4946,-4.4733,-4.4471,-4.4177,-4.3844,-4.3681,-4.3479,-4.3479,-4.3496,-4.3479,-4.3479,-4.3479,-4.3479,-4.3479,-4.3479,-4.3479,-4.3479,-4.3479,-4.3479,-4.3464,-4.3394,-4.3269,-4.3178,-4.3104,-4.2975,-4.2919,-4.2919,-4.2919,-4.2919,-4.2919,-4.2919,-4.2919,-4.2919,-4.2919,-4.2919,-4.2919,-4.2919,-4.2919,-4.2919,-4.2919,-4.2919,-4.2919,-4.2919,-4.2919,-4.2919,-4.2919,-4.2919,-4.2919,-4.2919,-4.2919,-4.2919,-4.2919,-4.2919,-4.2919,-4.2919,-4.29,-4.2843,-4.2707,-4.257,-4.2389,-4.198,-4.177,-4.1644,-4.1556,-4.1445,-4.1463,-4.164,-4.1556,-4.1208,-4.0838,-4.0302,-3.9995,-3.9592,-3.9441,-3.9315,-3.9315,-3.9315,-3.9315,-3.9315,-3.9315,-3.9315,-3.9315,-3.9315,-3.9315,-3.9315,-3.9315,-3.9315,-3.9315,-3.9315,-3.9315,-3.9272,-3.9175,-4.5583,-4.5927,-4.5517,-4.5277,-4.5277,-4.5277,-4.5277,-4.5277,-4.5277,-4.5277,-4.5277,-4.5277,-4.5277,-4.5277,-4.5277,-4.5277,-4.5277,-4.5277,-4.5277,-4.5277,-4.5277,-4.5277,-4.5173,-4.4875,-4.4591,-4.4318,-4.403,-4.3682,-4.3513,-4.3479,-4.3479,-4.3479,-4.3479,-4.3479,-4.3479,-4.3479,-4.3479,-4.3479,-4.3479,-4.3479,-4.3479,-4.348,-4.3429,-4.3394,-4.3251,-4.316,-4.3086,-4.2975,-4.2919,-4.2919,-4.2919,-4.2919,-4.2919,-4.2919,-4.2919,-4.2919,-4.2919,-4.2919,-4.2919,-4.2919,-4.2919,-4.2919,-4.2919,-4.2919,-4.2919,-4.2919,-4.2919,-4.2919,-4.2919,-4.2919,-4.2919,-4.2919,-4.2919,-4.2919,-4.2919,-4.2919,-4.2919,-4.2919,-4.2881,-4.2842,-4.2727,-4.2588,-4.2269,-4.1792,-4.149,-4.1468,-4.1311,-4.1082,-4.1059,-4.1151,-4.0995,-4.0672,-4.0358,-3.9978,-3.9731,-3.9556,-3.9415,-3.9315,-3.9315,-3.9315,-3.9315,-3.9315,-3.9315,-3.9315,-3.9315,-3.9315,-3.9315,-3.9315,-3.9315,-3.9315,-3.9272,-3.9245,-3.9245,-3.9272,-3.9121,-4.5297,-4.5316,-4.5277,-4.5277,-4.5277,-4.5277,-4.5277,-4.5277,-4.5277,-4.5277,-4.5277,-4.5277,-4.5277,-4.5277,-4.5277,-4.5277,-4.5277,-4.5277,-4.5277,-4.5277,-4.5277,-4.5267,-4.5023,-4.4707,-4.4443,-4.4188,-4.3886,-4.3565,-4.3513,-4.3479,-4.3479,-4.3479,-4.3479,-4.3479,-4.3479,-4.3479,-4.3479,-4.3479,-4.3479,-4.3479,-4.3462,-4.3428,-4.3394,-4.3359,-4.3233,-4.3086,-4.3049,-4.2994,-4.2919,-4.2919,-4.2919,-4.2919,-4.2919,-4.2919,-4.2919,-4.2919,-4.2919,-4.2919,-4.2919,-4.2919,-4.2919,-4.2919,-4.2919,-4.2919,-4.2919,-4.2919,-4.2919,-4.2919,-4.2919,-4.2919,-4.2919,-4.2919,-4.2919,-4.2919,-4.2919,-4.2919,-4.2919,-4.29,-4.288,-4.2823,-4.2707,-4.253,-4.2107,-4.1622,-4.1065,-4.1157,-4.0896,-4.0563,-4.0538,-4.0587,-4.0497,-4.0178,-3.9944,-3.9705,-3.9556,-3.9388,-3.9352,-3.9315,-3.9315,-3.9315,-3.9315,-3.9315,-3.9315,-3.9315,-3.9315,-3.9315,-3.9315,-3.9315,-3.9315,-3.9315,-3.9272,-3.9218,-3.9191,-3.9218,-3.9056,-4.5277,-4.5277,-4.5277,-4.5277,-4.5277,-4.5277,-4.5277,-4.5277,-4.5277,-4.5277,-4.5277,-4.5277,-4.5277,-4.5277,-4.5277,-4.5277,-4.5277,-4.5277,-4.5277,-4.5277,-4.5277,-4.5143,-4.4922,-4.4585,-4.4318,-4.4011,-4.373,-4.3479,-4.3479,-4.3479,-4.3479,-4.3479,-4.3479,-4.3479,-4.3479,-4.3479,-4.3479,-4.3479,-4.3479,-4.3479,-4.348,-4.341,-4.3358,-4.3269,-4.3142,-4.3031,-4.2994,-4.2938,-4.2919,-4.2919,-4.2919,-4.2919,-4.2919,-4.2919,-4.2919,-4.2919,-4.2919,-4.2919,-4.2919,-4.2919,-4.2919,-4.2919,-4.2919,-4.2919,-4.2919,-4.2919,-4.2919,-4.2919,-4.2919,-4.2919,-4.2919,-4.2919,-4.2919,-4.2919,-4.2919,-4.2919,-4.2919,-4.2881,-4.288,-4.2785,-4.2668,-4.2333,-4.1941,-4.1445,-4.0879,-4.0392,-3.9927,-3.9661,-3.9738,-3.9799,-4.0062,-3.9833,-3.9618,-3.9415,-3.9299,-3.9315,-3.9315,-3.9315,-3.9315,-3.9315,-3.9315,-3.9315,-3.9315,-3.9315,-3.9315,-3.9315,-3.9315,-3.9315,-3.9315,-3.9315,-3.9245,-3.9148,-3.9121,-3.9121,-3.8931,-4.5277,-4.5277,-4.5277,-4.5277,-4.5277,-4.5277,-4.5277,-4.5277,-4.5277,-4.5277,-4.5277,-4.5277,-4.5277,-4.5277,-4.5277,-4.5277,-4.5277,-4.5277,-4.5277,-4.5277,-4.5246,-4.5068,-4.4807,-4.4506,-4.426,-4.3968,-4.3664,-4.3479,-4.3479,-4.3479,-4.3479,-4.3479,-4.3479,-4.3479,-4.3479,-4.3479,-4.3479,-4.3479,-4.3479,-4.3497,-4.3463,-4.3358,-4.3305,-4.3196,-4.3068,-4.2975,-4.2938,-4.2919,-4.2919,-4.2919,-4.2919,-4.2919,-4.2919,-4.2919,-4.2919,-4.2919,-4.2919,-4.2919,-4.2919,-4.2919,-4.2919,-4.2919,-4.2919,-4.2919,-4.2919,-4.2919,-4.2919,-4.2919,-4.2919,-4.2919,-4.2919,-4.2919,-4.2919,-4.2919,-4.2919,-4.2919,-4.2919,-4.29,-4.2861,-4.2785,-4.2611,-4.2333,-4.186,-4.1288,-4.0731,-4.022,-3.9635,-3.9352,-3.9315,-3.9315,-3.9494,-3.9582,-3.9415,-3.9325,-3.9299,-3.9315,-3.9315,-3.9315,-3.9315,-3.9315,-3.9315,-3.9315,-3.9315,-3.9315,-3.9315,-3.9315,-3.9315,-3.9315,-3.9315,-3.9315,-3.9202,-3.9104,-3.9077,-3.8996,-3.8821,-4.5277,-4.5277,-4.5277,-4.5277,-4.5277,-4.5277,-4.5277,-4.5277,-4.5277,-4.5277,-4.5277,-4.5277,-4.5277,-4.5277,-4.5277,-4.5277,-4.5277,-4.5277,-4.5277,-4.5267,-4.5205,-4.4976,-4.4707,-4.4457,-4.4147,-4.3892,-4.3632,-4.3513,-4.3479,-4.3479,-4.3479,-4.3479,-4.3479,-4.3479,-4.3479,-4.3479,-4.3479,-4.3479,-4.3479,-4.3463,-4.3375,-4.3269,-4.3214,-4.3123,-4.2995,-4.2919,-4.2919,-4.2919,-4.2919,-4.2919,-4.2919,-4.2919,-4.2919,-4.2919,-4.2919,-4.2919,-4.2919,-4.2919,-4.2919,-4.2919,-4.2919,-4.2919,-4.2919,-4.2919,-4.2919,-4.2919,-4.2919,-4.2919,-4.2919,-4.2919,-4.2919,-4.2919,-4.2919,-4.2919,-4.2919,-4.2919,-4.2919,-4.29,-4.2861,-4.2785,-4.2552,-4.2274,-4.1666,-4.1059,-4.0587,-4.007,-3.9696,-3.9468,-3.9315,-3.9315,-3.9405,-3.9441,-3.9352,-3.9299,-3.9315,-3.9315,-3.9315,-3.9315,-3.9315,-3.9315,-3.9315,-3.9315,-3.9315,-3.9315,-3.9315,-3.9315,-3.9315,-3.9315,-3.9315,-3.9315,-3.9175,-3.905,-3.8985,-3.8903,-3.8711,-4.5277,-4.5277,-4.5277,-4.5277,-4.5277,-4.5277,-4.5277,-4.5277,-4.5277,-4.5277,-4.5277,-4.5277,-4.5277,-4.5277,-4.5277,-4.5277,-4.5277,-4.5277,-4.5277,-4.5267,-4.5057,-4.477,-4.4471,-4.4173,-4.3908,-4.3699,-4.3548,-4.3513,-4.3479,-4.3479,-4.3479,-4.3479,-4.3479,-4.3479,-4.3479,-4.3479,-4.3479,-4.3479,-4.3516,-4.3517,-4.3483,-4.3359,-4.3196,-4.3087,-4.2975,-4.2919,-4.2919,-4.2919,-4.2919,-4.2919,-4.2919,-4.2919,-4.2919,-4.2919,-4.2919,-4.2919,-4.2919,-4.2919,-4.2919,-4.2919,-4.2919,-4.2919,-4.2919,-4.2919,-4.2919,-4.2919,-4.2919,-4.2919,-4.2919,-4.2919,-4.2919,-4.2919,-4.2919,-4.2919,-4.2919,-4.2919,-4.2919,-4.2881,-4.2843,-4.2765,-4.2591,-4.1987,-4.118,-4.0731,-4.0392,-3.991,-3.952,-3.9315,-3.9315,-3.9315,-3.9315,-3.9315,-3.9315,-3.9315,-3.9315,-3.9315,-3.9315,-3.9315,-3.9315,-3.9315,-3.9315,-3.9315,-3.9315,-3.9315,-3.9315,-3.9315,-3.9315,-3.9315,-3.9315,-3.9272,-3.9121,-3.8996,-3.8931,-3.8794,-3.86]},{"header":{"parameterUnit":"m.s-1","parameterCategory":1,"la1":31.0,"la2":29.5877,"lo1":-88.7671,"lo2":-86.6584,"dy":0.0162,"dx":0.0185,"nx":115,"ny":88,"refTime":"2024-06-29T06:00:00:Z","depth":0,"parameterNumber":3,"parameterNumberName":"V-component_of_WINDS"},"data":[0.0,0.0,0.0,0.0,0.0,0.0,0.0,0.0,0.0,0.0,0.0,0.0,0.0,0.0,0.0,0.0,0.0,0.0,0.0,0.0,0.0,0.0,0.0,0.0,0.0,0.0,0.0,0.0,0.0,0.0,0.0,0.0,0.0,0.0,0.0,0.0,0.0,0.0,0.0,0.0,0.0,0.0,0.0,0.0,0.0,0.0,0.0,0.0,0.0,0.0,0.0,0.0,0.0,0.0,0.0,0.0,0.0,0.0,0.0,0.0,0.0,0.0,0.0,0.0,0.0,0.0,0.0,0.0,0.0,0.0,0.0,0.0,0.0,0.0,0.0,0.0,0.0,0.0,0.0,0.0,0.0,0.0,0.0,0.0,0.0,0.0,0.0,0.0,0.0,0.0,0.0,0.0,0.0,0.0,0.0,0.0,0.0,0.0,0.0,0.0,0.0,0.0,0.0,0.0,0.0,0.0,0.0,0.0,0.0,0.0,0.0,0.0,0.0,0.0,0.0,0.0,0.0,0.0,0.0,0.0,0.0,0.0,0.0,0.0,0.0,0.0,0.0,0.0,0.0,0.0,0.0,0.0,0.0,0.0,0.0,0.0,0.0,0.0,0.0,0.0,0.0,0.0,0.0,0.0,0.0,0.0,0.0,0.0,0.0,0.0,0.0,0.0,0.0,0.0,0.0,0.0,0.0,0.0,0.0,0.0,0.0,0.0,0.0,0.0,0.0,0.0,0.0,0.0,0.0,0.0,0.0,0.0,0.0,0.0,0.0,0.0,0.0,0.0,0.0,0.0,0.0,0.0,0.0,0.0,0.0,0.0,0.0,0.0,0.0,0.0,0.0,0.0,0.0,0.0,0.0,0.0,0.0,0.0,0.0,0.0,0.0,0.0,0.0,0.0,0.0,0.0,0.0,0.0,0.0,0.0,0.0,0.0,0.0,0.0,0.0,0.0,0.0,0.0,0.0,0.0,0.0,0.0,0.0,0.0,0.0,0.0,0.0,0.0,0.0,0.0,0.0,0.0,0.0,0.0,0.0,0.0,0.0,0.0,0.0,0.0,0.0,0.0,0.0,0.0,0.0,0.0,0.0,0.0,0.0,0.0,0.0,0.0,0.0,0.0,0.0,0.0,0.0,0.0,0.0,0.0,0.0,0.0,0.0,0.0,0.0,0.0,0.0,0.0,0.0,0.0,0.0,0.0,0.0,0.0,0.0,0.0,0.0,0.0,0.0,0.0,0.0,0.0,0.0,0.0,0.0,0.0,0.0,0.0,0.0,0.0,0.0,0.0,0.0,0.0,0.0,0.0,0.0,0.0,0.0,0.0,0.0,0.0,0.0,0.0,0.0,0.0,0.0,0.0,0.0,0.0,0.0,0.0,0.0,0.0,0.0,0.0,0.0,0.0,0.0,0.0,0.0,0.0,0.0,0.0,0.0,0.0,0.0,0.0,0.0,0.0,0.0,0.0,0.0,0.0,0.0,0.0,0.0,0.0,0.0,0.0,0.0,0.0,0.0,0.0,0.0,0.0,0.0,0.0,0.0,0.0,0.0,0.0,0.0,0.0,0.0,0.0,0.0,0.0,0.0,0.0,0.0,0.0,0.0,0.0,0.0,0.0,0.0,0.0,0.0,0.0,0.0,0.0,0.0,0.0,0.0,0.0,0.0,0.0,0.0,0.0,0.0,0.0,0.0,0.0,0.0,0.0,0.0,0.0,0.0,0.0,0.0,0.0,0.0,0.0,0.0,0.0,0.0,0.0,0.0,0.0,0.0,0.0,0.0,0.0,0.0,0.0,0.0,0.0,0.0,0.0,0.0,0.0,0.0,0.0,0.0,0.0,0.0,0.0,0.0,0.0,0.0,0.0,0.0,0.0,0.0,0.0,0.0,0.0,0.0,0.0,0.0,0.0,0.0,0.0,0.0,0.0,0.0,0.0,0.0,0.0,0.0,0.0,0.0,0.0,0.0,0.0,0.0,0.0,0.0,0.0,0.0,0.0,0.0,0.0,0.0,0.0,0.0,0.0,0.0,0.0,0.0,0.0,0.0,0.0,0.0,0.0,0.0,0.0,0.0,0.0,0.0,0.0,0.0,0.0,0.0,0.0,0.0,0.0,0.0,0.0,0.0,0.0,0.0,0.0,0.0,0.0,0.0,0.0,0.0,0.0,0.0,0.0,0.0,0.0,0.0,0.0,0.0,0.0,0.0,0.0,0.0,0.0,0.0,0.0,0.0,0.0,0.0,0.0,0.0,0.0,0.0,0.0,0.0,0.0,0.0,0.0,0.0,0.0,0.0,0.0,0.0,0.0,0.0,0.0,0.0,0.0,0.0,0.0,0.0,0.0,0.0,0.0,0.0,0.0,0.0,0.0,0.0,0.0,0.0,0.0,0.0,0.0,0.0,0.0,0.0,0.0,0.0,0.0,0.0,0.0,0.0,0.0,0.0,0.0,0.0,0.0,0.0,0.0,0.0,0.0,0.0,0.0,0.0,0.0,0.0,0.0,0.0,0.0,0.0,0.0,0.0,0.0,0.0,0.0,0.0,0.0,0.0,0.0,0.0,0.0,0.0,0.0,0.0,0.0,0.0,0.0,0.0,0.0,0.0,0.0,0.0,0.0,0.0,0.0,0.0,0.0,0.0,0.0,0.0,0.0,0.0,0.0,0.0,0.0,0.0,0.0,0.0,0.0,0.0,0.0,0.0,0.0,0.0,0.0,0.0,0.0,0.0,0.0,0.0,0.0,0.0,0.0,0.0,0.0,0.0,0.0,0.0,0.0,0.0,0.0,0.0,0.0,0.0,0.0,0.0,0.0,0.0,0.0,0.0,0.0,0.0,0.0,0.0,0.0,0.0,0.0,0.0,0.0,0.0,0.0,0.0,0.0,0.0,0.0,0.0,0.0,0.0,0.0,0.0,0.0,0.0,0.0,0.0,0.0,0.0,0.0,0.0,0.0,0.0,0.0,0.0,0.0,0.0,0.0,0.0,0.0,0.0,0.0,0.0,0.0,0.0,0.0,0.0,0.0,0.0,0.0,0.0,0.0,0.0,0.0,0.0,0.0,0.0,0.0,0.0,0.0,0.0,0.0,0.0,0.0,0.0,0.0,0.0,0.0,0.0,0.0,0.0,0.0,0.0,0.0,0.0,0.0,0.0,0.0,0.0,0.0,0.0,0.0,0.0,0.0,0.0,0.0,0.0,0.0,0.0,0.0,0.0,0.0,0.0,0.0,0.0,0.0,0.0,0.0,0.0,0.0,0.0,0.0,0.0,0.0,0.0,0.0,0.0,0.0,0.0,0.0,0.0,0.0,0.0,0.0,0.0,0.0,0.0,0.0,0.0,0.0,0.0,0.0,0.0,0.0,0.0,0.0,0.0,0.0,0.0,0.0,0.0,0.0,0.0,0.0,0.0,0.0,0.0,0.0,0.0,0.0,0.0,0.0,0.0,0.0,0.0,0.0,0.0,0.0,0.0,0.0,0.0,0.0,0.0,0.0,0.0,0.0,0.0,0.0,0.0,0.0,0.0,0.0,0.0,0.0,0.0,0.0,0.0,0.0,0.0,0.0,0.0,0.0,0.0,0.0,0.0,0.0,0.0,0.0,0.0,0.0,0.0,0.0,0.0,0.0,0.0,0.0,0.0,0.0,0.0,0.0,0.0,0.0,0.0,0.0,0.0,0.0,0.0,0.0,0.0,0.0,0.0,0.0,0.0,0.0,0.0,0.0,0.0,0.0,0.0,0.0,0.0,0.0,0.0,0.0,0.0,0.0,0.0,0.0,0.0,0.0,0.0,0.0,0.0,0.0,0.0,0.0,0.0,0.0,0.0,0.0,0.0,0.0,0.0,0.0,0.0,0.0,0.0,0.0,0.0,0.0,0.0,0.0,0.0,0.0,0.0,0.0,0.0,0.0,0.0,0.0,0.0,0.0,0.0,0.0,0.0,0.0,0.0,0.0,0.0,0.0,0.0,0.0,0.0,0.0,0.0,0.0,0.0,0.0,0.0,0.0,0.0,0.0,0.0,0.0,0.0,0.0,0.0,0.0,0.0,0.0,0.0,0.0,0.0,0.0,0.0,0.0,0.0,0.0,0.0,0.0,0.0,0.0,0.0,0.0,0.0,0.0,0.0,0.0,0.0,0.0,0.0,0.0,0.0,0.0,0.0,0.0,0.0,0.0,0.0,0.0,0.0,0.0,0.0,0.0,0.0,0.0,0.0,0.0,0.0,0.0,0.0,0.0,0.0,0.0,0.0,0.0,0.0,0.0,0.0,0.0,0.8222,0.0,0.0,0.0,0.0,0.0,0.0,0.0,0.0,0.0,0.0,0.0,0.0,0.0,0.0,0.0,0.0,0.0,0.0,0.0,0.0,0.0,0.0,0.0,0.0,0.0,0.0,0.0,0.0,0.0,0.0,0.0,0.0,0.0,0.0,0.0,0.0,0.0,0.0,0.0,0.0,0.0,0.0,0.0,0.0,0.0,0.0,0.0,0.0,0.0,0.0,0.0,0.0,0.0,0.0,0.0,0.0,0.0,0.0,0.0,0.0,0.0,0.0,0.0,0.0,0.0,0.0,0.0,0.0,0.0,0.0,0.0,0.0,0.0,0.0,0.0,0.0,0.0,0.0,0.0,0.0,0.0,0.0,0.0,0.0,0.0,0.0,0.0,0.0,0.0,0.0,0.0,0.0,0.0,0.0,0.0,0.0,0.0,0.0,0.0,0.0,0.0,0.0,0.0,0.0,0.0,0.0,0.0,0.0,0.0,0.0,0.813,0.8048,0.8157,0.8207,0.8219,0.0,0.0,0.0,0.0,0.0,0.0,0.0,0.0,0.0,0.0,0.0,0.0,0.0,0.0,0.0,0.0,0.0,0.0,0.0,0.0,0.0,0.0,0.0,0.0,0.0,0.0,0.0,0.0,0.0,0.0,0.0,0.0,0.0,0.0,0.0,0.0,0.0,0.0,0.0,0.0,0.0,0.0,0.0,0.0,0.0,0.0,0.0,0.0,0.0,0.0,0.0,0.0,0.0,0.0,0.0,0.0,0.0,0.0,0.0,0.0,0.0,0.0,0.0,0.0,0.0,0.0,0.0,0.0,0.0,0.0,0.0,0.0,0.0,0.0,0.0,0.0,0.0,0.0,0.0,0.0,0.0,0.0,0.0,0.0,0.0,0.0,0.0,0.0,0.0,0.0,0.0,0.0,0.0,0.0,0.0,0.0,0.0,0.0,0.0,0.0,0.0,0.0,0.0,0.0,0.0,0.0,0.0,0.0,0.0,0.0,0.0,0.0,0.8643,0.8705,0.8865,0.0,0.0,0.0,0.0,0.0,0.0,0.0,0.0,0.0,0.0,0.0,0.0,0.0,0.0,0.0,0.0,0.0,0.0,0.0,0.0,0.0,0.0,0.0,0.0,0.0,0.0,0.0,0.0,0.0,0.0,0.0,0.0,0.0,0.0,0.0,0.0,0.0,0.0,0.0,0.0,0.0,0.0,0.0,0.0,0.0,0.0,0.0,0.0,0.0,0.0,0.0,0.0,0.0,0.0,0.0,0.0,0.0,0.0,0.0,0.0,0.0,0.0,0.0,0.0,0.0,0.0,0.0,0.0,0.0,0.0,0.0,0.0,0.0,0.0,0.0,0.0,0.0,0.0,0.0,0.0,0.0,0.0,0.0,0.0,0.0,0.0,0.0,0.0,0.0,0.0,0.0,0.0,0.0,0.0,0.0,0.0,0.0,0.0,0.0,0.0,0.0,0.0,0.0,0.0,0.0,0.0,0.0,0.0,0.0,0.0,0.8729,1.0224,1.049,0.0,1.0788,0.0,0.0,0.0,0.0,0.0,0.0,0.0,0.0,0.0,0.0,0.0,0.0,0.0,0.0,0.0,0.0,0.0,0.0,0.0,0.0,0.0,0.0,0.0,0.0,0.0,0.0,0.0,0.0,0.0,0.0,0.0,0.0,0.0,0.0,0.0,0.0,0.0,0.0,0.0,0.0,0.0,0.0,0.0,0.0,0.0,0.0,0.0,0.0,0.0,0.0,0.0,0.0,0.0,0.0,0.0,0.0,0.0,0.0,0.0,0.0,0.0,0.0,0.0,0.0,0.0,0.0,0.0,0.0,0.0,0.0,0.0,0.0,0.0,0.0,0.0,0.0,0.0,0.0,0.0,0.0,0.0,0.0,0.0,0.0,0.0,0.0,0.0,0.0,0.0,0.0,0.0,0.0,0.0,0.0,0.0,0.0,0.0,0.0,0.0,0.0,0.0,0.0,0.0,0.0,0.0,0.0,0.0,0.0,0.0,0.0,0.0,1.0488,1.0687,1.0783,0.0,0.0,0.0,0.0,0.0,0.0,0.0,0.0,0.0,0.0,0.0,0.0,0.0,0.0,0.0,0.0,0.0,0.0,0.0,0.0,0.0,0.0,0.0,0.0,0.0,0.0,0.0,0.0,0.0,0.0,0.0,0.0,0.0,0.0,0.0,0.0,0.0,0.0,0.0,0.0,0.0,0.0,0.0,0.0,0.0,0.0,0.0,0.0,0.0,0.0,0.0,0.0,0.0,0.0,0.0,0.0,0.0,0.0,0.0,0.0,0.0,0.0,0.0,0.0,0.0,0.0,0.0,0.0,0.0,0.0,0.0,0.0,0.0,0.0,0.0,0.0,0.0,0.0,0.0,0.0,0.0,0.0,0.0,0.0,0.0,0.0,0.0,0.0,0.0,0.0,0.0,0.0,0.0,0.0,0.0,0.0,0.0,0.0,0.0,0.0,0.0,0.0,0.0,0.0,0.0,0.0,0.0,0.0,0.0,0.0,1.0013,0.0,1.1252,1.1395,1.123,1.0731,0.0,0.0,0.0,0.0,0.0,0.0,0.0,0.0,0.0,0.0,0.0,0.0,0.0,0.0,0.0,0.0,0.0,0.0,0.0,0.0,0.0,0.0,0.0,0.0,0.0,0.0,0.0,0.0,0.0,0.0,0.0,0.0,0.0,0.0,0.0,0.0,0.0,0.0,0.0,0.0,0.0,0.0,0.0,0.0,0.0,0.0,0.0,0.0,0.0,0.0,0.0,0.0,0.0,0.0,0.0,0.0,0.0,0.0,0.0,0.0,0.0,0.0,0.0,0.0,0.0,0.0,0.0,0.0,0.0,0.0,0.0,0.0,0.0,0.0,0.0,0.0,0.0,0.0,0.0,0.0,0.0,0.0,0.0,0.0,0.0,0.0,0.0,0.0,0.0,0.0,0.0,0.0,0.0,0.0,0.0,0.0,0.0,0.0,0.0,0.0,0.0,0.0,0.0,0.0,0.0,0.0,0.0,0.0,0.0,1.1357,1.1383,1.322,1.3291,1.248,0.0,0.0,0.0,0.0,0.0,0.0,0.0,0.0,0.0,0.0,0.0,0.0,0.0,0.0,0.0,0.0,0.0,0.0,0.0,0.0,0.0,0.0,0.0,0.0,0.0,0.0,0.0,0.0,0.0,0.0,0.0,0.0,0.0,0.0,0.0,0.0,0.0,0.0,0.0,0.0,0.0,0.0,0.0,0.0,0.0,0.0,0.0,0.0,0.0,0.0,0.0,0.0,0.0,0.0,0.0,0.0,0.0,0.0,0.0,0.0,0.0,0.0,0.0,0.0,0.0,0.0,0.0,0.0,0.0,0.0,0.0,0.0,0.0,0.0,0.0,0.0,0.0,0.0,0.0,0.0,0.0,0.0,0.0,0.0,0.0,0.0,0.0,0.0,0.0,0.0,0.0,0.0,0.0,0.0,0.0,0.0,0.0,0.0,0.0,0.0,0.0,0.0,0.0,0.0,0.0,0.0,0.0,0.0,0.0,0.9628,1.0158,1.2175,1.556,1.3025,1.1763,0.0,0.0,0.0,0.0,0.0,0.0,0.0,0.0,0.0,0.0,0.0,0.0,0.0,0.0,0.0,0.0,0.0,0.0,0.0,0.0,0.0,0.0,0.0,0.0,0.0,0.0,0.0,0.0,0.0,0.0,0.0,0.0,0.0,0.0,0.0,0.0,0.0,0.0,0.0,0.0,0.0,0.0,0.0,0.0,0.0,0.0,0.0,0.0,0.0,0.0,0.0,0.0,0.0,0.0,0.0,0.0,0.0,0.0,0.0,0.0,0.0,0.0,0.0,0.0,0.0,0.0,0.0,0.0,0.0,0.0,0.0,0.0,0.0,0.0,0.0,0.0,0.0,0.0,0.0,0.0,0.0,0.0,0.0,0.0,0.0,0.0,0.0,0.0,0.0,0.0,0.0,0.0,0.0,0.0,0.0,0.0,0.0,0.0,0.0,0.0,0.0,0.0,0.0,0.0,0.0,0.0,0.0,0.0,0.0,0.9079,0.0,1.3151,0.0,1.2794,1.1286,0.0,0.0,0.0,0.0,0.0,0.0,0.0,0.0,0.0,0.0,0.0,0.0,0.0,0.0,0.0,0.0,0.0,0.0,0.0,0.0,0.0,0.0,0.0,0.0,0.0,0.0,0.0,0.0,0.0,0.0,0.0,0.0,0.0,0.0,0.0,0.0,0.0,0.0,0.0,0.0,0.0,0.0,0.0,0.0,0.0,0.0,0.0,0.0,0.0,0.0,0.0,0.0,0.0,0.0,0.0,0.0,0.0,0.0,0.0,0.0,0.0,0.0,0.0,0.0,0.0,0.0,0.0,0.0,0.0,0.0,0.0,0.0,0.0,0.0,0.0,0.0,0.0,0.0,0.0,0.0,0.0,0.0,0.0,0.0,0.0,0.0,0.0,0.0,0.0,0.0,0.0,0.0,0.0,0.0,0.0,0.0,0.0,0.0,0.0,0.0,0.0,0.0,0.0,0.0,0.0,0.0,0.0,0.0,0.8656,1.2014,1.3608,1.4113,1.3566,1.2741,1.1204,0.0,0.0,0.0,0.0,0.0,0.0,0.0,0.0,0.0,0.0,0.0,0.0,0.0,0.0,0.0,0.0,0.0,0.0,0.0,0.0,0.0,0.0,0.0,0.0,0.0,0.0,0.0,0.0,0.0,0.0,0.0,0.0,0.0,0.0,0.0,0.0,0.0,0.0,0.0,0.0,0.0,0.0,0.0,0.0,0.0,0.0,0.0,0.0,0.0,0.0,0.0,0.0,0.0,0.0,0.0,0.0,0.0,0.0,0.0,0.0,0.0,0.0,0.0,0.0,0.0,0.0,0.0,0.0,0.0,0.0,0.0,0.0,0.0,0.0,0.0,0.0,0.0,0.0,0.0,0.0,0.0,0.0,0.0,0.0,0.0,0.0,0.0,0.0,0.0,0.0,0.0,0.0,0.0,0.0,0.0,0.0,0.0,0.0,0.0,0.0,0.0,0.0,0.0,0.0,0.0,0.0,0.0,0.0,0.0,1.1341,1.2129,1.3298,1.4789,1.2359,1.1227,0.0,0.0,0.0,0.0,0.0,0.0,0.0,0.0,0.0,0.0,0.0,0.0,0.0,0.0,0.0,0.0,0.0,0.0,0.0,0.0,0.0,0.0,0.0,0.0,0.0,0.0,0.0,0.0,0.0,0.0,0.0,0.0,0.0,0.0,0.0,0.0,0.0,0.0,0.0,0.0,0.0,0.0,0.0,0.0,0.0,0.0,0.0,0.0,0.0,0.0,0.0,0.0,0.0,0.0,0.0,0.0,0.0,0.0,0.0,0.0,0.0,0.0,0.0,0.0,0.0,0.0,0.0,0.0,0.0,0.0,0.0,0.0,0.0,0.0,0.0,0.0,0.0,0.0,0.0,0.0,0.0,0.0,0.0,0.0,0.0,0.0,0.0,0.0,0.0,0.0,0.0,0.0,0.0,0.0,0.0,0.0,0.0,0.0,0.0,0.0,0.0,0.0,0.0,0.0,0.0,0.0,0.0,0.0,0.0,1.2255,1.2854,1.3917,1.5543,1.2855,1.1789,1.2504,0.0,0.0,0.0,0.0,0.0,0.0,0.0,0.0,0.0,0.0,0.0,0.0,0.0,0.0,0.0,0.0,0.0,0.0,0.0,0.0,0.0,0.0,0.0,0.0,0.0,0.0,0.0,0.0,0.0,0.0,0.0,0.0,0.0,0.0,0.0,0.0,0.0,0.0,0.0,0.0,0.0,0.0,0.0,0.0,0.0,0.0,0.0,0.0,0.0,0.0,0.0,0.0,0.0,0.0,0.0,0.0,0.0,0.0,0.0,0.0,0.0,0.0,0.0,0.0,0.0,0.0,0.0,0.0,0.0,0.0,0.0,0.0,0.0,0.0,0.0,0.0,0.0,0.0,0.0,0.0,0.0,0.0,0.0,0.0,0.0,0.0,0.0,0.0,0.0,0.0,0.0,0.0,0.0,0.0,0.0,0.0,0.0,0.0,0.0,0.0,0.0,0.0,0.0,0.0,0.0,0.0,0.0,0.0,1.4405,1.5336,1.5726,1.55,1.4074,1.2762,0.0,0.0,0.0,0.0,0.0,0.0,0.0,0.0,0.0,0.0,0.0,0.0,0.0,0.0,0.0,0.0,0.0,0.0,0.0,0.0,0.0,0.0,0.0,0.0,0.0,0.0,0.0,0.0,0.0,0.0,0.0,0.0,0.0,0.0,0.0,0.0,0.0,0.0,0.0,0.0,0.0,0.0,0.0,0.0,0.0,0.0,0.0,0.0,0.0,0.0,0.0,0.0,0.0,0.0,0.0,0.0,0.0,0.0,0.0,0.0,0.0,0.0,0.0,0.0,0.0,0.0,0.0,0.0,0.0,0.0,0.0,0.0,0.0,0.0,0.0,0.0,0.0,0.0,0.0,0.0,0.0,0.0,0.0,0.0,0.0,0.0,0.0,0.0,0.0,0.0,0.0,0.0,0.0,0.0,0.0,0.0,0.0,0.0,0.0,0.0,0.0,0.0,0.0,0.0,0.0,0.0,0.0,0.0,0.0,1.5823,1.6091,1.6048,1.5705,1.4386,1.3393,0.0,0.0,0.0,0.0,0.0,0.0,0.0,0.0,0.0,0.0,0.0,0.0,0.0,0.0,0.0,0.0,0.0,0.0,0.0,0.0,0.0,0.0,0.0,0.0,0.0,0.0,0.0,0.0,0.0,0.0,0.0,0.0,0.0,0.0,0.0,0.0,0.0,0.0,0.0,0.0,0.0,0.0,0.0,0.0,0.0,0.0,0.0,0.0,0.0,0.0,0.0,0.0,0.0,0.0,0.0,0.0,0.0,0.0,0.0,0.0,0.0,0.0,0.0,0.0,0.0,0.0,0.0,0.0,0.0,0.0,0.0,0.0,0.0,0.0,0.0,0.0,0.0,0.0,0.0,0.0,0.0,0.0,0.0,0.0,0.0,0.0,0.0,0.0,0.0,0.0,0.0,0.0,0.0,0.0,0.0,0.0,0.0,0.0,0.0,0.0,0.0,0.0,0.0,0.0,0.0,0.0,0.0,0.0,1.4423,1.6468,1.6875,1.6899,1.661,1.5663,1.4737,0.0,0.0,0.0,0.0,0.0,0.0,0.0,0.0,0.0,0.0,0.0,0.0,0.0,0.0,0.0,0.0,0.0,0.0,0.0,0.0,0.0,0.0,0.0,0.0,0.0,0.0,0.0,0.0,0.0,0.0,0.0,0.0,0.0,0.0,0.0,0.0,0.0,0.0,0.0,0.0,0.0,0.0,0.0,0.0,0.0,0.0,0.0,0.0,0.0,0.0,0.0,0.0,0.0,0.0,0.0,0.0,0.0,0.0,0.0,0.0,0.0,0.0,0.0,0.0,0.0,0.0,0.0,0.0,0.0,0.0,0.0,0.0,0.0,0.0,0.0,0.0,0.0,0.0,0.0,0.0,0.0,0.0,0.0,0.0,0.0,0.0,0.0,0.0,0.0,0.0,0.0,0.0,0.0,0.0,0.0,0.0,0.0,0.0,0.0,0.0,0.0,0.0,0.0,0.0,0.0,0.0,0.0,0.0,1.5062,1.6568,1.755,1.7997,1.7862,1.7267,1.619,0.0,0.0,0.0,0.0,0.0,0.0,0.0,0.0,0.0,0.0,0.0,0.0,0.0,0.0,0.0,0.0,0.0,0.0,0.0,0.0,0.0,0.0,0.0,0.0,0.0,0.0,0.0,0.0,0.0,0.0,0.0,0.0,0.0,0.0,0.0,0.0,0.0,0.0,0.0,0.0,0.0,0.0,0.0,0.0,0.0,0.0,0.0,0.0,0.0,0.0,0.0,0.0,0.0,0.0,0.0,0.0,0.0,0.0,0.0,0.0,0.0,0.0,0.0,0.0,0.0,0.0,0.0,0.0,0.0,0.0,0.0,0.0,0.0,0.0,0.0,0.0,0.0,0.0,0.0,0.0,0.0,0.0,0.0,0.0,0.0,0.0,0.0,0.0,0.0,0.0,0.0,0.0,0.0,0.0,0.0,0.0,0.0,0.0,0.0,0.0,0.0,0.0,0.0,0.0,0.0,0.0,0.0,0.0,1.5213,1.7074,1.751,1.8194,1.916,1.7305,1.5751,0.0,0.0,0.0,0.0,0.0,0.0,0.0,0.0,0.0,0.0,0.0,0.0,0.0,0.0,0.0,0.0,0.0,0.0,0.0,0.0,0.0,0.0,0.0,0.0,0.0,0.0,0.0,0.0,0.0,0.0,0.0,0.0,0.0,0.0,0.0,0.0,0.0,0.0,0.0,0.0,0.0,0.0,0.0,0.0,0.0,0.0,0.0,0.0,1.1631,0.0,0.0,0.0,0.0,0.0,0.0,0.0,0.0,0.0,0.0,0.0,0.0,0.0,0.0,0.0,0.0,0.0,0.0,0.0,0.0,0.0,0.0,0.0,0.0,0.0,0.0,0.0,0.0,0.0,0.0,0.0,0.0,0.0,0.0,0.0,0.0,0.0,0.0,0.0,0.0,0.0,0.0,0.0,0.0,0.0,0.0,0.0,0.0,0.0,0.0,0.0,0.0,0.0,0.0,0.0,0.0,0.0,0.0,0.0,1.511,1.6605,1.7557,1.8432,1.9141,1.8007,1.6689,0.0,0.0,0.0,0.0,0.0,0.0,0.0,0.0,0.0,0.0,0.0,0.0,0.0,0.0,0.0,0.0,0.0,0.0,0.0,0.0,0.0,0.0,0.0,0.0,0.0,0.0,0.0,0.0,0.0,0.0,0.0,0.0,0.0,0.0,0.0,0.0,0.0,0.0,0.0,0.0,0.0,0.0,0.0,0.0,0.0,0.0,0.0,0.0,0.0,0.0,0.0,0.0,0.0,0.0,0.0,0.0,0.0,0.0,0.0,0.0,0.0,0.0,0.0,0.0,0.0,0.0,0.0,0.0,0.0,0.0,0.0,0.0,0.0,0.0,0.0,0.0,0.0,0.0,0.0,0.0,0.0,0.0,0.0,0.0,0.0,0.0,0.0,0.0,0.0,0.0,0.0,0.0,0.0,0.0,0.0,0.0,0.0,0.0,0.0,0.0,0.0,0.0,0.0,0.0,0.0,0.0,0.0,1.3447,1.4861,1.5987,1.7563,1.848,1.8717,1.8686,1.7767,1.5821,0.0,0.0,0.0,0.0,0.0,0.0,0.0,0.0,0.0,0.0,0.0,0.0,0.0,0.0,0.0,0.0,0.0,0.0,0.0,0.0,0.0,0.0,0.0,0.0,0.0,0.0,0.0,0.0,0.0,0.0,0.0,0.0,0.0,0.0,0.0,0.0,0.0,0.0,1.0278,1.2162,0.0,0.0,0.0,0.0,0.0,0.0,0.0,0.0,1.2859,0.0,0.0,0.0,0.0,0.0,0.0,0.0,0.0,0.0,0.0,0.0,0.0,0.0,0.0,0.0,0.0,0.0,0.0,0.0,0.0,0.0,0.0,0.0,0.0,0.0,0.0,0.0,0.0,0.0,0.0,0.0,0.0,0.0,0.0,0.0,0.0,0.0,0.0,0.0,0.0,0.0,0.0,0.0,0.0,0.0,0.0,0.0,0.0,0.0,0.0,0.0,0.0,0.0,0.0,0.0,0.0,1.2516,1.3484,1.4772,1.6352,1.702,1.7668,1.8323,1.8206,1.729,1.5553,0.0,0.0,0.0,0.0,0.0,0.0,0.0,0.0,0.0,0.0,0.0,0.0,0.0,0.0,0.0,0.0,0.0,0.0,0.0,0.0,0.0,0.0,0.0,0.0,0.0,0.0,0.0,0.0,0.0,0.0,0.0,0.0,0.0,0.0,0.0,0.0,0.0,0.0,0.0,1.4298,1.5507,0.0,0.0,0.0,0.0,0.0,0.0,0.0,0.0,1.3233,0.0,0.0,0.0,0.0,0.0,0.0,0.0,0.0,0.0,0.0,0.0,0.0,0.0,0.0,0.0,0.0,0.0,0.0,0.0,0.0,0.0,0.0,0.0,0.0,0.0,0.0,0.0,0.0,0.0,0.0,0.0,0.0,0.0,0.0,0.0,0.0,0.0,0.0,0.0,0.0,0.0,0.0,0.0,0.0,0.0,0.0,0.0,0.0,0.0,0.0,0.0,0.0,0.0,0.0,0.0,1.1837,1.3073,1.4273,1.5507,1.6541,1.725,1.7502,1.7459,1.6675,0.0,0.0,0.0,0.0,0.0,0.0,0.0,0.0,0.0,0.0,0.0,0.0,0.0,0.0,0.0,0.0,0.0,0.0,0.0,0.0,0.0,0.0,0.0,0.0,0.0,0.0,0.0,0.0,0.0,0.0,0.0,0.0,0.0,0.0,0.0,0.0,0.0,0.0,0.0,0.0,1.4848,1.5792,1.5524,0.0,0.0,0.0,0.0,0.0,0.0,1.4694,1.3953,0.0,0.0,0.0,0.0,0.0,0.0,0.0,0.0,0.0,0.0,0.0,0.0,0.0,0.0,0.0,0.0,0.0,0.0,0.0,0.0,0.0,0.0,0.0,0.0,0.0,0.0,0.0,0.0,0.0,0.0,0.0,0.0,0.0,0.0,0.0,0.0,0.0,0.0,0.0,0.0,0.0,0.0,0.0,0.0,0.0,0.0,0.0,0.0,0.0,0.0,0.0,0.0,0.0,0.0,0.0,1.1242,1.2657,1.386,1.4817,1.6172,1.6781,1.6731,1.6743,1.6069,0.0,0.0,0.0,0.0,0.0,0.0,0.0,0.0,0.0,0.0,0.0,0.0,0.0,0.0,0.0,0.0,0.0,0.0,0.0,0.0,0.0,0.0,0.0,0.0,0.0,0.0,0.0,0.0,0.0,0.0,0.0,0.0,0.0,0.0,0.0,0.0,0.0,0.0,0.0,0.0,0.0,1.6025,1.6288,1.5872,0.0,0.0,0.0,0.0,1.6235,1.5315,0.0,0.0,0.0,0.0,0.0,0.0,0.0,0.0,0.0,0.0,0.0,0.0,0.0,0.0,0.0,0.0,0.0,0.0,0.0,0.0,0.0,0.0,0.0,0.0,0.0,0.0,0.0,0.0,0.0,0.0,0.0,0.0,0.0,0.0,0.0,0.0,0.0,0.0,0.0,0.0,0.0,0.0,0.0,0.0,0.0,0.0,0.0,0.0,0.0,0.0,0.0,0.0,0.0,0.0,0.0,0.0,1.167,1.2555,1.3788,1.5495,1.5834,1.6113,1.6434,1.6343,1.5589,0.0,0.0,0.0,0.0,0.0,0.0,0.0,0.0,0.0,0.0,0.0,0.0,0.0,0.0,0.0,0.0,0.0,0.0,0.0,0.0,0.0,0.0,0.0,0.0,0.0,0.0,0.0,0.0,0.0,0.0,0.0,0.0,0.0,0.0,0.0,0.0,0.0,0.0,0.0,0.0,0.0,1.7362,1.5768,1.5955,1.6137,0.0,0.0,1.5552,1.6375,1.5658,0.0,0.0,0.0,0.0,0.0,0.0,0.0,0.0,0.0,0.0,0.0,0.0,0.0,0.0,0.0,0.0,0.0,0.0,0.0,0.0,0.0,0.0,0.0,0.0,0.0,0.0,0.0,0.0,0.0,0.0,0.0,0.0,0.0,0.0,0.0,0.0,0.0,0.0,0.0,0.0,0.0,0.0,0.0,0.0,0.0,0.0,0.0,0.0,0.0,0.0,0.0,0.0,0.0,0.0,0.0,0.9821,1.1319,1.2457,1.3704,1.507,1.5365,1.5437,1.5398,1.5018,1.425,0.0,0.0,0.0,0.0,0.0,0.0,0.0,0.0,0.0,0.0,0.0,0.0,0.0,0.0,0.0,0.0,0.0,0.0,0.0,0.0,0.0,0.0,0.0,0.0,0.0,0.0,0.0,0.0,0.0,0.0,0.0,0.0,0.0,0.0,0.0,0.0,0.0,0.0,0.0,0.0,0.0,0.0,1.675,1.6724,0.0,0.0,0.0,1.6837,1.703,0.0,0.0,0.0,0.0,0.0,0.0,0.0,0.0,0.0,0.0,0.0,0.0,0.0,0.0,0.0,0.0,0.0,0.0,0.0,0.0,0.0,0.0,0.0,0.0,0.0,0.0,0.0,0.0,0.0,0.0,0.0,0.0,0.0,0.0,0.0,0.0,0.0,0.0,0.0,0.0,0.0,0.0,0.0,0.0,0.0,0.0,0.0,0.0,0.0,0.0,0.0,0.0,0.0,0.0,0.0,0.0,0.0,1.1106,1.2504,1.3743,1.4801,1.5056,1.4988,1.46,1.4047,0.0,0.0,0.0,0.0,0.0,0.0,0.0,0.0,0.0,0.0,0.0,0.0,0.0,0.0,0.0,0.0,0.0,0.0,0.0,0.0,0.0,0.0,0.0,0.0,0.0,0.0,0.0,0.7635,0.0,0.0,0.0,0.0,0.0,0.0,0.0,0.0,0.0,0.0,0.0,0.0,0.0,0.0,1.6819,1.7348,1.7336,1.7212,0.0,0.0,1.7599,1.7313,1.7154,1.6734,0.0,0.0,0.0,0.0,0.0,0.0,0.0,0.0,0.0,0.0,0.0,0.0,0.0,0.0,0.0,0.0,0.0,0.0,0.0,0.0,0.0,0.0,0.0,0.0,0.0,0.0,0.0,0.0,0.0,0.0,0.0,0.0,0.0,0.0,0.0,0.0,0.0,0.0,0.0,0.0,0.0,0.0,0.0,0.0,0.0,0.0,0.0,0.0,0.0,0.0,0.0,0.0,0.0,0.0,0.0,1.1447,1.2869,1.409,1.513,1.518,1.5023,1.4608,1.3901,1.3079,0.0,0.0,0.0,0.0,0.0,0.0,0.0,0.0,0.0,0.0,0.0,0.0,0.0,0.0,0.0,0.0,0.0,0.0,0.0,0.0,0.0,0.0,0.0,0.0,0.0,0.0,0.0,0.0,0.0,0.0,0.0,0.0,0.0,0.0,0.0,0.0,0.0,0.0,0.0,0.0,0.0,1.7137,1.6658,1.746,1.7942,0.0,1.7405,1.7237,1.6742,1.6505,1.6044,1.5119,0.0,0.0,0.0,0.0,0.0,0.0,0.0,0.0,0.0,0.0,0.0,0.0,0.0,0.0,0.0,0.0,0.0,0.0,0.0,0.0,0.0,0.0,0.0,0.0,0.0,0.0,0.0,0.0,0.0,0.0,0.0,0.0,0.0,0.0,0.0,0.0,0.0,0.0,0.0,0.0,0.0,0.0,0.0,0.0,0.0,0.0,0.0,0.0,0.0,0.0,0.0,0.0,0.0,1.0097,1.1479,1.2901,1.3994,1.478,1.482,1.4544,1.3999,1.3445,1.2645,0.0,0.0,0.0,0.0,0.0,0.0,0.0,0.0,0.0,0.0,0.0,0.0,0.0,0.0,0.0,0.0,0.0,0.0,0.0,0.0,0.0,0.0,0.0,0.0,0.0,0.0,0.0,0.0,0.7637,0.7938,0.7687,0.0,0.0,0.0,0.0,0.0,0.0,0.0,0.0,0.0,0.0,1.6892,1.704,1.7618,0.0,0.0,1.7836,1.7943,1.7207,1.7025,1.6654,1.5733,1.5477,0.0,0.0,0.0,0.0,0.0,0.0,0.0,0.0,0.0,0.0,0.0,0.0,0.0,0.0,0.0,0.0,0.0,0.0,0.0,0.0,0.0,0.0,0.0,0.0,0.0,0.0,0.0,0.0,0.0,0.0,0.0,0.0,0.0,0.0,0.0,0.0,0.0,0.0,0.0,0.0,0.0,0.0,0.0,0.0,0.0,0.0,0.0,0.0,0.0,0.0,0.0,0.0,1.0145,1.163,1.2925,1.3926,1.4589,1.4605,1.4264,1.36,1.3211,1.2434,0.0,0.0,0.0,0.0,0.0,0.0,0.0,0.0,0.0,0.0,0.0,0.0,0.0,0.0,0.0,0.0,0.0,0.0,0.0,0.0,0.0,0.0,0.0,0.0,0.0,0.0,0.0,0.0,0.7624,0.7968,0.7402,0.0,0.0,0.0,0.0,0.0,0.0,0.0,0.0,0.0,0.0,1.7161,1.759,1.7993,1.8129,1.7906,1.8128,1.8105,1.7484,1.7279,1.6834,1.5854,0.0,0.0,0.0,0.0,0.0,0.0,0.0,0.0,0.0,0.0,0.0,0.0,0.0,0.0,0.0,0.0,0.0,0.0,0.0,0.0,0.0,0.0,0.0,0.0,0.0,0.0,0.0,0.5895,0.0,0.0,0.5864,0.0,0.0,0.0,0.0,0.0,0.0,0.0,0.0,0.0,0.0,0.0,0.0,0.0,0.0,0.0,0.0,0.0,0.0,0.0,0.0,0.0,0.0,1.0256,1.1958,1.3044,1.3926,1.4573,1.4605,1.4272,1.3642,1.3291,1.253,1.1327,0.0,0.0,0.0,0.0,0.0,0.0,0.0,0.0,0.0,0.0,0.0,0.0,0.0,0.0,0.0,0.0,0.0,0.0,0.0,0.0,0.0,0.0,0.0,0.0,0.0,0.0,0.6547,0.6921,0.7221,0.0,0.0,0.0,0.0,0.0,0.0,0.0,0.0,0.0,1.4926,1.6822,1.8145,1.8145,1.864,1.8927,1.8951,1.8109,1.7435,1.7423,1.6991,1.6259,0.0,0.0,0.0,0.0,0.0,0.0,0.0,0.0,0.0,0.0,0.0,0.0,0.0,0.0,0.0,0.0,0.0,0.0,0.0,0.0,0.0,0.0,0.0,0.0,0.0,0.0,0.0,0.6817,0.6377,0.0,0.0,0.0,0.0,0.0,0.0,0.0,0.0,0.0,0.0,0.0,1.0327,1.1013,0.0,0.0,0.0,0.0,0.0,0.0,0.0,0.0,0.0,0.0,0.0,0.0,1.0468,1.1958,1.3044,1.3926,1.4573,1.4605,1.4272,1.36,1.3267,1.2351,1.0831,0.0,0.0,0.0,0.0,0.0,0.0,0.0,0.0,0.0,0.0,0.0,0.0,0.0,0.0,0.0,0.0,0.0,0.0,0.0,0.0,0.0,0.0,0.0,0.0,0.0,0.7775,0.0,0.0,0.0,0.0,0.0,0.0,0.0,0.0,0.0,0.0,0.0,1.4547,1.544,1.6731,1.7618,1.7606,1.8363,1.8939,0.0,0.0,0.0,0.0,0.0,0.0,0.0,0.0,0.0,0.0,0.0,0.0,0.0,0.0,1.6232,1.4098,1.3661,1.3695,1.3927,0.0,0.0,0.0,0.0,0.0,0.0,0.0,0.0,0.0,0.0,0.0,0.0,0.0,0.0,0.7754,0.7422,0.7501,0.0,0.0,0.0,0.0,0.0,0.0,0.0,0.0,1.065,1.1326,1.154,1.2018,1.1988,1.1571,1.1331,1.0325,0.0,0.0,0.0,0.0,0.0,0.0,0.0,0.0,1.0844,1.2141,1.316,1.395,1.4502,1.4569,1.4328,1.3775,1.3211,1.2257,1.0903,1.0417,0.9748,0.0,0.0,0.0,0.0,0.0,0.0,0.0,0.0,0.0,0.0,0.0,0.0,0.0,0.0,0.0,0.0,0.0,0.0,0.0,0.0,0.0,0.0,0.0,0.7819,0.0,0.0,0.0,0.0,0.0,0.0,0.0,0.0,0.0,1.444,1.4722,1.5183,1.621,1.7079,1.763,1.7781,0.0,0.0,0.0,0.0,0.0,0.0,0.0,1.7592,1.7546,1.7894,1.8227,1.8433,1.9057,1.9338,1.8732,0.0,0.0,1.5432,1.4955,1.5024,1.5241,1.5698,1.6154,1.6477,1.6669,1.6854,0.0,0.0,0.0,0.0,0.8372,0.0,0.0,0.0,0.8912,0.9056,0.0,0.9278,0.0,0.0,0.0,0.0,0.8588,0.9882,0.0,0.0,1.1851,1.2527,1.2537,1.231,1.2142,1.2072,1.2559,1.2151,1.0965,0.9356,0.0,0.0,0.0,0.0,0.0,0.0,1.1299,1.2499,1.3338,1.3995,1.4374,1.4497,1.4431,1.4069,1.3116,1.2272,1.1547,1.1311,1.0562,0.9191,0.9017,0.0,0.0,0.0,0.0,0.0,0.0,0.0,0.0,0.0,0.0,0.0,0.0,0.0,0.0,0.0,0.0,0.0,0.0,0.0,0.0,0.6879,0.0,0.0,0.0,0.0,0.0,0.0,0.0,0.0,0.0,0.0,1.5213,1.5676,1.6291,1.7263,0.0,0.0,0.0,0.0,1.8855,1.8802,1.8816,1.8823,1.8823,1.8777,1.8583,1.8084,0.0,0.0,1.8983,1.9309,1.9414,1.8733,1.9026,1.8944,1.7723,1.7355,1.7455,1.7938,1.7629,1.767,1.8375,1.8149,1.7977,1.0479,0.0,0.0,0.0,0.0,0.9857,1.0112,1.0356,1.0701,1.0745,1.053,1.0389,0.0,0.0,0.0,0.0,0.0,0.0,1.1306,1.1616,1.2702,1.334,1.3582,1.362,1.3532,1.3292,1.3038,1.2635,1.2059,1.1343,1.0492,0.9614,0.0,0.0,0.0,0.0,1.1791,1.2808,1.334,1.38,1.4201,1.4245,1.4002,1.3531,1.3162,1.2568,1.1746,1.1507,1.0926,0.9943,0.926,0.0,0.0,0.0,0.0,0.0,0.0,0.0,0.0,0.0,0.0,0.0,0.0,0.0,0.0,0.0,0.0,0.0,0.0,0.0,0.8162,0.8295,0.849,0.0,0.0,0.0,0.0,0.0,0.0,0.0,0.0,0.0,1.5646,1.6066,1.6632,0.0,0.0,1.7731,1.8583,1.8709,1.882,1.9158,1.9214,0.0,1.9218,1.8781,1.8449,1.8515,1.9208,1.9965,2.045,2.0301,2.0192,2.0194,2.0,1.9821,1.9698,1.9044,1.8481,1.83,1.836,1.8421,1.8375,1.8507,1.8613,1.0526,0.9144,1.0186,1.0812,1.1131,1.1295,1.1538,1.1853,1.2043,1.1924,1.1565,1.1495,1.1138,1.0646,1.037,0.0,0.0,0.0,1.1395,1.1696,1.2707,1.333,1.3656,1.3851,1.3948,1.3874,1.3637,1.3366,1.3097,1.2844,1.2188,1.1197,0.0,0.0,1.121,1.1737,1.2298,1.3002,1.3389,1.3724,1.3992,1.4057,1.3815,1.323,1.3146,1.2742,1.1957,1.1659,1.1215,1.0562,0.9788,0.8889,0.0,0.0,0.0,0.0,0.0,0.0,0.0,0.0,0.0,0.0,0.0,0.6589,0.6077,0.0,0.0,0.0,0.6659,0.7498,0.8637,0.8984,0.0,0.0,0.0,0.0,0.0,0.0,0.0,1.4346,1.4466,1.4851,1.5959,1.6383,1.6847,1.7505,1.7469,1.7729,1.8491,0.0,1.903,1.9297,1.9543,1.9671,1.9671,1.9304,1.9091,1.9222,1.9653,2.0119,2.0632,2.0495,2.0398,2.0622,2.0496,2.0421,2.0776,2.0293,1.9728,1.927,1.9396,1.9492,1.9203,1.942,1.9528,0.9909,0.9389,1.1374,1.2305,1.2473,1.2393,1.2554,1.282,1.2827,1.2561,1.2105,1.234,1.198,1.1135,1.0438,0.0,1.0495,1.0828,1.1135,1.1379,1.2325,1.2914,1.3206,1.3473,1.3688,1.3865,1.4109,1.4094,1.3921,1.3785,1.3527,1.3111,1.2398,1.2106,1.2315,1.2561,1.2819,1.3038,1.3525,1.3754,1.3761,1.3956,1.3752,1.3103,1.3106,1.2777,1.2081,1.1684,1.1348,1.1033,1.0367,0.9463,0.833,0.0,0.0,0.0,0.0,0.0,0.0,0.0,0.0,0.0,0.0,0.0,0.0,0.0,0.0,0.0,0.7381,0.0,0.8434,0.9283,0.0,0.0,0.0,1.1764,1.2563,1.277,1.3453,1.4936,0.0,0.0,1.6202,1.666,1.6937,1.7063,1.7536,1.8089,1.8533,1.9034,1.9383,1.947,1.9843,2.0161,2.0249,2.0172,2.0085,2.0118,2.014,2.0096,2.0151,2.014,2.0226,2.0537,2.0603,2.0709,2.1146,2.1149,2.109,2.067,2.0572,2.0524,2.037,2.0387,2.0416,1.1393,1.1258,1.1916,1.1613,1.075,1.1135,1.1307,1.1406,1.157,1.1692,1.1781,1.1603,1.1925,1.2557,1.1693,1.1552,1.208,1.2402,1.257,1.272,1.3824,1.4175,1.3904,1.4339,1.3872,1.2749,1.3134,1.334,1.334,1.3272,1.3558,1.4114,1.3962,1.3388,1.2494,1.2758,1.3088,1.3375,1.3491,1.3572,1.3572,1.3754,1.354,1.2886,1.3039,1.2598,1.1526,1.1311,1.0984,1.0527,1.0174,0.9644,0.8837,0.7975,0.0,0.0,0.0,0.0,0.0,0.0,0.0,0.0,0.0,0.8067,0.6955,0.0,0.8661,0.0,0.8298,0.9002,1.0093,1.0341,0.0,0.0,1.2315,1.2833,1.2911,1.3861,1.4698,1.5054,1.5523,1.6022,1.6613,1.675,1.6854,1.6884,1.7551,1.8395,1.9247,1.9162,1.9369,2.0177,2.0442,2.0703,2.1074,2.0915,2.073,2.073,2.0402,2.0118,2.0129,2.0118,2.0205,2.0506,2.0614,2.0743,2.1094,2.1201,2.1164,2.1055,2.0718,2.0312,1.9923,2.0047,2.0251,1.0658,1.0658,1.0796,1.0376,0.9775,1.1555,1.2076,1.1653,1.2337,1.2302,1.1657,1.1452,1.1969,1.2896,1.2369,1.2086,1.2041,1.222,1.2081,1.1799,1.2819,1.3136,1.2893,1.359,1.3387,1.2463,1.3184,1.3561,1.3554,1.3762,1.4186,1.467,1.4577,1.4144,1.3426,1.3572,1.3682,1.3704,1.3572,1.3492,1.3492,1.3601,1.3334,1.2691,1.277,1.2333,1.1226,1.1137,1.0815,1.025,1.0104,0.9754,0.9152,0.8497,0.7941,0.0,0.0,0.0,0.0,0.0,0.0,0.0,0.0,0.0,0.0,0.0,0.9393,0.9017,0.9361,1.0011,1.103,1.1517,1.1952,1.2381,1.316,1.3678,1.3751,1.458,1.527,1.5604,1.5823,1.6213,1.6762,1.6842,1.6987,1.7303,1.7765,1.8314,1.8969,1.9377,1.9955,2.0598,2.0917,2.122,2.1557,2.1397,2.1222,2.12,2.0959,2.0685,2.0478,2.0467,2.0468,2.0379,2.0388,2.0432,2.0679,2.0722,2.0722,2.0645,2.0465,2.0353,2.0511,2.0684,2.0865,0.9169,0.9161,0.9165,0.9165,0.9396,1.2435,1.3122,1.2188,1.3387,1.2939,1.138,1.1401,1.1811,1.2519,1.2476,1.2034,1.137,1.1327,1.0921,1.0255,1.1063,1.1408,1.1322,1.2254,1.2589,1.2419,1.3451,1.3922,1.3957,1.4509,1.4837,1.4951,1.4728,1.4629,1.4629,1.4589,1.4392,1.4027,1.3704,1.3536,1.3492,1.3492,1.3184,1.2529,1.2526,1.2043,1.11,1.1078,1.077,1.0148,1.0141,0.9945,0.9432,0.9054,0.8625,0.0,0.7732,0.0,0.0,0.0,0.0,0.0,0.0,0.0,0.0,0.9588,1.0142,1.0205,1.0605,1.1093,1.1667,1.2575,1.3068,1.2917,1.3632,1.4351,1.477,1.5122,1.5586,1.6229,1.6025,1.61,1.6745,1.6873,1.7165,1.7607,1.7811,1.7956,1.827,1.9316,2.0214,2.0514,2.1144,2.1475,2.1514,2.1534,2.1539,2.1574,2.1525,2.1439,2.1058,2.0993,2.0829,2.038,2.0271,2.0205,2.014,2.0118,2.0118,2.0151,2.0118,2.0387,2.1078,2.1338,2.1651,0.9527,0.9478,0.9478,0.9527,0.962,1.1105,1.11,1.0005,1.0473,1.0473,1.0153,1.0389,1.0938,1.1671,1.1217,1.1206,1.1563,1.1557,1.1373,1.1106,1.1997,1.204,1.137,1.2254,1.1912,1.0679,1.2206,1.2972,1.2978,1.382,1.4608,1.5294,1.5236,1.5248,1.5248,0.0,0.0,0.0,1.3954,1.3762,1.3506,1.3492,1.3184,1.2555,1.2526,0.0,1.0763,1.096,1.0806,1.0155,1.0353,0.0,0.0,0.0,0.0,0.0,0.0,0.0,0.0,0.0,0.0,0.0,1.0261,1.0173,0.9471,1.0501,1.1368,1.1821,1.2411,1.2789,1.279,1.3203,1.3696,1.4161,1.4391,1.4752,1.5413,1.5792,1.6086,1.6181,1.6389,1.6547,1.6725,1.6716,1.6781,1.696,1.7261,1.7504,1.7555,1.8202,1.8849,1.9676,2.0681,2.1234,2.1264,2.1392,2.1428,2.1422,2.1528,2.1557,2.1483,2.145,2.1321,2.0861,2.0718,2.0587,2.0216,2.0118,2.0151,2.0129,2.0129,2.0172,2.0356,2.0635,2.0828,0.9624,0.9624,0.9624,0.9624,0.0,1.0207,1.0051,0.9544,1.0357,1.0773,1.0857,1.0997,1.1533,1.2387,1.2067,1.1866,1.1754,1.1754,1.1476,1.0964,1.1444,1.1405,1.0964,1.1333,1.1066,1.019,1.1413,1.1997,1.204,1.2936,1.362,1.4055,1.4048,1.4048,1.4097,1.4524,1.4645,1.4465,1.4143,1.3901,1.374,1.3579,1.3258,1.2747,1.2599,0.0,0.0,0.0,0.0,0.0,0.0,0.0,0.0,0.0,0.0,0.9699,0.9562,0.9573,0.9762,1.0067,1.0374,1.0686,1.119,1.1346,1.098,1.1462,1.2043,1.2733,1.3508,1.3918,1.3878,1.4172,1.4585,1.5086,1.5271,1.557,1.5904,1.6254,1.6428,1.6476,1.6578,1.6689,1.6689,1.6689,1.6689,1.6697,1.6902,1.7066,1.7147,1.7902,1.8847,1.9855,2.044,2.0952,2.1183,2.1232,2.1435,2.1675,2.1823,2.1854,2.195,2.1953,2.1789,2.1376,2.1255,2.1123,2.0915,2.0675,2.05,2.0467,2.0271,2.0129,2.0118,2.0356,2.0667,0.9596,0.9624,0.9624,0.9624,0.9624,0.9624,0.9624,0.9677,1.0757,0.0,0.0,1.1592,1.2047,1.2791,1.2877,1.2492,1.1728,1.1733,1.1297,1.0616,1.057,1.057,1.0607,1.045,1.0329,1.0405,1.1022,1.1343,1.1381,1.2277,1.2674,1.2674,1.2674,1.2802,1.3021,1.3886,1.4525,1.4932,1.445,1.4092,1.3982,1.366,1.3338,1.3016,1.266,1.2248,1.1701,1.1474,1.121,1.0865,1.0894,1.0902,1.085,1.0843,1.0821,1.0763,1.0806,1.085,1.085,1.118,1.1386,1.1406,1.1904,1.2277,1.2573,1.2258,1.2406,1.3289,1.4061,1.4513,1.4656,1.5025,1.5374,1.5737,1.6031,1.6214,1.6301,1.6507,1.6673,1.6689,1.6689,1.6689,1.6689,1.6689,1.6689,1.6689,1.673,1.6689,1.6853,1.7772,1.8807,1.9532,1.9767,2.0168,2.0615,2.0952,2.128,2.1745,2.2069,2.2302,2.2371,2.2433,2.2248,2.18,2.1723,2.1669,2.1581,2.1243,2.1036,2.1025,2.0675,2.0347,2.0293,2.0456,2.0726,0.9486,0.9624,0.9624,0.9624,0.9624,0.9624,0.9624,0.9624,0.9821,0.9903,0.9927,1.0418,1.0693,1.0856,1.1293,1.1341,1.1043,1.1038,1.089,1.0575,1.057,1.057,1.057,1.0588,1.0532,1.0605,1.1244,1.1573,1.164,1.231,1.2674,1.2674,1.2674,1.3099,1.3928,1.4783,1.5235,1.5309,1.4951,1.4538,1.3996,1.366,1.3338,1.3016,1.2701,1.2317,1.1984,1.2189,1.2135,1.1828,1.2062,1.2091,1.1821,1.1792,1.1714,1.1496,1.1677,1.1799,1.1799,1.2105,1.2438,1.2709,1.2784,1.2912,1.2925,1.2468,1.2587,1.3622,1.3926,1.4267,1.4774,1.52,1.5606,1.6039,1.6174,1.6317,1.6562,1.665,1.6689,1.6689,1.6689,1.6689,1.6689,1.6689,1.6689,1.6689,1.6689,1.6689,1.6771,1.7221,1.7627,1.7861,1.8144,1.8505,1.9222,1.9991,2.0721,2.1242,2.2166,2.2745,2.2796,2.2811,2.2684,2.2291,2.2215,2.2062,2.1745,2.1549,2.1483,2.1483,2.1363,2.1188,2.0883,2.0829,2.0764,0.9462,0.9608,0.9522,0.9535,0.9624,0.9624,0.9624,0.9624,0.9624,0.9677,0.9821,1.0072,1.0265,1.0408,1.0801,1.0951,1.0863,1.1008,1.1005,1.0915,1.091,1.091,1.0901,1.0801,1.0745,1.0782,1.0936,1.0995,1.0925,1.1217,1.1358,1.1284,1.1703,1.2687,1.4055,1.4482,1.4922,1.5382,1.5068,1.4761,1.4509,1.4194,1.3872,1.355,1.3221,1.2899,1.2536,1.2499,1.2453,1.2273,1.2438,1.2412,1.228,1.2266,1.22,1.2094,1.2219,1.2266,1.2273,1.2565,1.2813,1.2959,1.3009,1.3082,1.3258,1.3229,1.3395,1.3797,1.4418,1.4958,1.5413,1.5693,1.5992,1.6412,1.6492,1.6515,1.6657,1.6689,1.6689,1.6689,1.6689,1.6689,1.6689,1.6689,1.6689,1.6689,1.6697,1.6697,1.6705,1.6902,1.7106,1.7351,1.7595,1.808,1.8843,1.945,2.0216,2.1175,2.1911,2.244,2.274,2.2927,2.2914,2.2739,2.2684,2.2608,2.2346,2.2138,2.2029,2.1953,2.1734,2.1529,2.1343,2.1288,2.0992,0.9462,0.9608,0.9474,0.9498,0.9624,0.9624,0.9624,0.9624,0.9624,0.9727,0.992,0.9969,1.0113,1.031,1.056,1.0703,1.0757,1.09,1.0998,1.0998,1.11,1.1096,1.1135,1.0985,1.0962,1.0938,1.0745,1.0565,1.0469,1.0369,1.0208,1.0144,1.1063,1.2345,1.3753,1.4181,1.4741,1.5325,1.5141,1.498,1.4893,1.4633,1.434,1.413,1.3623,1.3331,1.3214,1.2848,1.2665,1.2731,1.2704,1.2738,1.2745,1.2704,1.2704,1.2738,1.2738,1.2667,1.265,1.2789,1.2958,1.3111,1.3119,1.3258,1.3587,1.4026,1.4166,1.4082,1.4706,1.534,1.5674,1.6013,1.6275,1.6617,1.6648,1.6681,1.6689,1.6689,1.6689,1.6689,1.6689,1.6689,1.6705,1.6761,1.6913,1.6943,1.6927,1.6969,1.6919,1.6921,1.7022,1.7212,1.7294,1.7595,1.8665,1.8975,1.9638,2.0982,2.1443,2.1977,2.2467,2.2841,2.2964,2.2931,2.2979,2.2947,2.2947,2.2717,2.2499,2.2444,2.2215,2.1931,2.1789,2.1614,2.1319,0.9462,0.9616,0.9596,0.9612,0.9624,0.9624,0.9624,0.9624,0.9624,0.9624,0.9677,0.992,1.0019,1.0068,1.0314,1.0408,1.0462,1.0462,1.0462,1.0507,1.0703,1.085,1.085,1.1072,1.1165,1.1137,1.0957,1.0849,1.0783,1.0442,1.0213,1.0231,1.174,1.2632,1.3014,1.444,1.5305,1.5389,1.536,1.5199,1.49,1.4633,1.4496,1.446,1.3543,1.3323,1.3828,1.3287,1.3104,1.3375,1.3382,1.3382,1.3389,1.3389,1.3397,1.3367,1.3375,1.3287,1.2952,1.2716,1.2862,1.3375,1.3448,1.3594,1.3923,1.4399,1.4626,1.4513,1.4359,1.4682,1.5275,1.5802,1.6183,1.6419,1.6566,1.6689,1.6689,1.6689,1.6689,1.6689,1.6689,1.6697,1.6753,1.7032,1.7326,1.7533,1.754,1.7548,1.754,1.7374,1.7265,1.7259,1.7068,1.7065,1.7676,1.8078,1.8939,2.008,2.0788,2.1451,2.2193,2.258,2.2777,2.2889,2.3001,2.3001,2.3001,2.2947,2.2914,2.2837,2.275,2.2695,2.2324,2.1964,2.1494,0.9462,0.9567,0.951,0.9531,0.962,0.9624,0.9624,0.9624,0.9624,0.9624,0.9624,0.9727,0.9772,0.9776,1.0019,1.0167,1.0167,1.0314,1.0413,1.0413,1.0507,1.0556,1.0605,1.085,1.0949,1.0998,1.1011,1.1009,1.0839,1.0521,1.043,1.0878,1.2083,1.2972,1.3578,1.4783,1.5389,1.5389,1.5389,1.5323,1.5192,1.5109,1.494,1.4735,1.4355,1.4157,1.4232,1.3638,1.3448,1.3718,1.3418,1.3206,1.3206,1.3214,1.3119,1.295,1.3104,1.3236,1.3287,1.3345,1.3506,1.3807,1.3777,1.3916,1.4247,1.4174,1.4267,1.4911,1.4948,1.508,1.5517,1.588,1.6121,1.6203,1.6286,1.6409,1.6517,1.6525,1.6566,1.6648,1.6689,1.6792,1.7048,1.7358,1.7655,1.779,1.7814,1.7846,1.7771,1.7695,1.7588,1.7599,1.7437,1.7445,1.7703,1.7925,1.859,1.9453,2.0158,2.0865,2.1423,2.209,2.244,2.274,2.2889,2.2964,2.3001,2.3001,2.3001,2.3001,2.3001,2.2925,2.275,2.2575,2.2248,0.9543,0.96,0.9531,0.9506,0.9575,0.9624,0.9624,0.9624,0.9624,0.9624,0.9624,0.9624,0.9624,0.9628,0.9821,0.9871,0.992,1.0117,1.0167,1.0167,1.0265,1.0314,1.0314,1.0556,1.0703,1.0703,1.09,1.0895,1.0786,1.0612,1.0666,1.1166,1.2192,1.3095,1.376,1.4783,1.5389,1.5389,1.5389,1.5389,1.5389,1.5389,1.5272,1.5046,1.4856,1.4743,1.4596,1.3975,1.3784,1.4084,1.366,1.3411,1.3404,1.3411,1.3301,1.3097,1.3184,1.3375,1.3616,1.377,1.3968,1.4122,1.4152,1.4335,1.456,1.4296,1.4457,1.5185,1.5389,1.5436,1.5624,1.5831,1.5997,1.5997,1.6046,1.6162,1.6353,1.6386,1.6484,1.6648,1.6808,1.7064,1.7477,1.7822,1.7954,1.8073,1.8089,1.8057,1.8033,1.8001,1.7914,1.795,1.7886,1.7774,1.7813,1.7754,1.8183,1.8718,1.9335,1.9767,2.0401,2.1231,2.1949,2.2203,2.2553,2.2852,2.2964,2.3001,2.3001,2.3001,2.3001,2.3001,2.2947,2.2968,2.2848,0.977,0.9636,0.9616,0.9567,0.9624,0.9624,0.9624,0.9624,0.9624,0.9624,0.9624,0.9624,0.9624,0.9624,0.9628,0.9624,0.9628,0.9677,0.9673,0.9727,0.992,1.0019,1.0019,1.0314,1.0413,1.0462,1.0511,1.0511,1.0566,1.072,1.0706,1.0457,1.2087,1.2891,1.3076,1.4538,1.5389,1.5389,1.5389,1.5389,1.5389,1.5389,1.5374,1.5294,1.4831,1.4677,1.4769,1.4304,1.4114,1.4443,1.4394,1.4379,1.4408,1.4379,1.432,1.4298,1.41,1.3931,1.3954,1.38,1.3857,1.4386,1.4533,1.4706,1.5218,1.517,1.5206,1.5382,1.5389,1.5431,1.546,1.5639,1.5741,1.5741,1.5955,1.6162,1.6384,1.6448,1.6484,1.6743,1.7104,1.7509,1.812,1.8263,1.8414,1.8613,1.874,1.8716,1.8629,1.8446,1.8303,1.8216,1.8069,1.7703,1.7461,1.7534,1.7705,1.8016,1.8449,1.8607,1.9541,2.0401,2.1078,2.1711,2.209,2.2478,2.2852,2.3001,2.3001,2.3001,2.3001,2.3001,2.3001,2.3001,2.2925,0.9957,0.9782,0.9623,0.9624,0.9624,0.9624,0.9624,0.9624,0.9624,0.9624,0.9624,0.9624,0.9624,0.9624,0.9624,0.9624,0.9624,0.9624,0.9624,0.9624,0.9727,0.9727,0.9776,1.0019,1.0216,1.0408,1.0556,1.0608,1.0485,1.0414,1.0236,1.0347,1.1831,1.2718,1.2965,1.4487,1.5389,1.5396,1.5389,1.5389,1.5389,1.5389,1.534,1.5208,1.4998,1.4926,1.4993,1.4428,1.4201,1.4551,1.4314,1.4196,1.4181,1.3998,1.3843,1.3857,1.3923,1.4108,1.4306,1.4384,1.4604,1.5013,1.5087,1.5145,1.533,1.5389,1.5389,1.5396,1.5396,1.5462,1.565,1.5597,1.5506,1.5548,1.5714,1.6061,1.6423,1.6653,1.6891,1.7347,1.7707,1.8049,1.8247,1.8486,1.8639,1.875,1.8781,1.8781,1.8765,1.87,1.8613,1.8575,1.8526,1.8327,1.7977,1.7759,1.7664,1.7652,1.7846,1.813,1.882,1.9766,2.0527,2.1318,2.1749,2.2289,2.2703,2.2889,2.2889,2.3001,2.3001,2.3001,2.3001,2.3001,2.3001,1.0054,0.988,0.9762,0.9627,0.9628,0.9624,0.9624,0.9624,0.9624,0.9624,0.9624,0.9624,0.9624,0.9624,0.9624,0.9624,0.9624,0.9624,0.9624,0.9624,0.9624,0.9624,0.9628,0.9772,0.9969,1.0167,1.0413,1.0489,1.0334,1.0219,1.0262,1.0529,1.2013,1.2933,1.3447,1.4735,1.5451,1.5535,1.5405,1.5305,1.5298,1.5215,1.5131,1.4999,1.4908,1.4915,1.4943,1.4538,1.4403,1.4586,1.4432,1.4365,1.4421,1.4238,1.4121,1.4143,1.4333,1.4538,1.4757,1.4984,1.5148,1.536,1.5389,1.5389,1.5389,1.5389,1.5389,1.5445,1.5584,1.5738,1.584,1.5804,1.5731,1.5731,1.5843,1.6144,1.667,1.6865,1.7286,1.7779,1.8105,1.8303,1.847,1.8631,1.875,1.8781,1.8781,1.8781,1.8781,1.8781,1.8781,1.8781,1.875,1.8676,1.847,1.8255,1.789,1.7827,1.7725,1.7921,1.8452,1.9341,2.0167,2.0905,2.1548,2.2128,2.2515,2.2665,2.2852,2.2964,2.3001,2.3001,2.3001,2.3001,2.3001,1.0118,0.9925,0.9935,0.9795,0.9661,0.9652,0.9636,0.9628,0.9624,0.9624,0.9624,0.9624,0.9624,0.9624,0.9624,0.9624,0.9624,0.9624,0.9624,0.9624,0.9624,0.9624,0.9624,0.9628,0.9673,0.9723,0.992,1.0019,1.0047,1.023,1.0674,1.162,1.2433,1.3401,1.452,1.5094,1.5605,1.5684,1.5417,1.5174,1.509,1.488,1.4734,1.4699,1.4524,1.4524,1.4699,1.4664,1.4622,1.4699,1.4935,1.5193,1.5265,1.5228,1.535,1.527,1.5316,1.5345,1.5338,1.5338,1.5338,1.5389,1.5389,1.5389,1.5389,1.5389,1.5403,1.5533,1.5767,1.6052,1.6023,1.6191,1.6353,1.6397,1.6345,1.6543,1.6925,1.7131,1.743,1.809,1.8306,1.8462,1.8662,1.8765,1.8781,1.8781,1.8781,1.8781,1.8781,1.8781,1.8781,1.8781,1.8781,1.8772,1.8788,1.8726,1.8359,1.8013,1.7946,1.8018,1.8737,1.9561,2.0269,2.1006,2.1589,2.2159,2.2542,2.274,2.2841,2.2964,2.3001,2.3001,2.3001,2.3001,2.3001,1.0314,1.0249,1.0128,0.9969,0.9815,0.9807,0.9742,0.9632,0.9624,0.9624,0.9624,0.9624,0.9624,0.9624,0.9624,0.9624,0.9624,0.9624,0.9624,0.9624,0.9624,0.9624,0.9624,0.9624,0.9677,0.9871,0.9969,1.0019,0.9969,0.992,1.0364,1.1356,1.2315,1.3281,1.4387,1.5129,1.5701,1.5885,1.544,1.5284,1.539,1.4937,1.465,1.4524,1.4433,1.4363,1.4286,1.4405,1.4482,1.4482,1.4873,1.5173,1.5347,1.5389,1.5389,1.5389,1.5389,1.5389,1.5389,1.5389,1.5389,1.5389,1.5389,1.5389,1.5389,1.5438,1.554,1.5666,1.5899,1.6082,1.6521,1.6683,1.6668,1.6441,1.65,1.6766,1.7146,1.756,1.7979,1.8317,1.8447,1.8548,1.8703,1.8781,1.8781,1.8781,1.8781,1.8781,1.8781,1.8781,1.8781,1.8781,1.8781,1.8781,1.8781,1.8781,1.8621,1.8535,1.8501,1.863,1.9251,1.9966,2.0604,2.1194,2.1742,2.2157,2.2531,2.2729,2.2841,2.2975,2.3023,2.3023,2.3001,2.3001,2.3001,1.0439,1.037,1.031,1.0156,0.9981,0.9916,0.9827,0.9721,0.9652,0.9628,0.9624,0.9624,0.9624,0.9624,0.9624,0.9624,0.9624,0.9624,0.9624,0.9624,0.9624,0.9624,0.9624,0.9624,0.9677,0.9821,0.9871,0.9871,0.9875,1.0109,1.0743,1.1774,1.2725,1.3844,1.4852,1.5486,1.5922,1.6067,1.5664,1.5416,1.5332,1.4935,1.4521,1.4341,1.4279,1.425,1.4088,1.4243,1.4279,1.4363,1.4664,1.4915,1.5124,1.5215,1.5264,1.5305,1.5389,1.5389,1.5389,1.5389,1.5389,1.5389,1.5389,1.5389,1.5418,1.5511,1.5723,1.5827,1.6148,1.6426,1.6822,1.702,1.6916,1.68,1.6838,1.7047,1.7415,1.7911,1.8257,1.8458,1.8558,1.8658,1.8743,1.8781,1.8781,1.8781,1.8781,1.8781,1.8781,1.8781,1.8781,1.8781,1.8781,1.8781,1.8781,1.8781,1.8781,1.8948,1.9125,1.9512,2.0022,2.0782,2.1466,2.1828,2.2348,2.2587,2.2928,2.2762,2.2777,2.2885,2.3138,2.3023,2.3001,2.3001,2.3001,1.0595,1.0403,1.0399,1.0343,1.0164,0.9994,0.9896,0.9851,0.9701,0.9624,0.9624,0.9624,0.9624,0.9624,0.9624,0.9624,0.9624,0.9624,0.9624,0.9624,0.9624,0.9624,0.9624,0.9624,0.9628,0.9628,0.9628,0.9628,0.9677,1.0592,1.1707,1.2581,1.359,1.486,1.5738,1.6088,1.6148,1.6303,1.5899,1.5515,1.5278,1.4817,1.4409,1.4197,1.4184,1.4171,1.4088,1.413,1.413,1.4124,1.4363,1.4566,1.4741,1.4957,1.5131,1.5131,1.5298,1.5389,1.5389,1.5389,1.5389,1.5389,1.5389,1.5411,1.5469,1.5681,1.5921,1.6082,1.6536,1.6866,1.6976,1.7121,1.7213,1.7264,1.7216,1.7345,1.7652,1.8087,1.8234,1.8427,1.8604,1.8781,1.8781,1.8781,1.8781,1.8781,1.8781,1.8781,1.8781,1.8781,1.8781,1.8781,1.8781,1.8781,1.8781,1.8781,1.8827,1.9085,1.9566,2.0386,2.0907,2.1658,2.2158,2.2531,2.278,2.3012,2.3133,2.3056,2.3155,2.3443,2.346,2.3149,2.3143,2.3274,2.3198,1.0664,1.0627,1.0623,1.0526,1.0351,1.0168,1.0061,0.9872,0.9655,0.9636,0.9624,0.9624,0.9624,0.9624,0.9624,0.9624,0.9624,0.9624,0.9624,0.9624,0.9624,0.9624,0.9624,0.9624,0.9624,0.9624,0.9624,0.9624,0.9673,1.0739,1.1755,1.2727,1.3854,1.4873,1.5751,1.5927,1.6007,1.6154,1.5754,1.557,1.5551,1.5116,1.471,1.4436,1.4402,1.4289,1.4122,1.4088,1.4166,1.4321,1.4363,1.4475,1.4657,1.4915,1.5048,1.5131,1.5257,1.5389,1.5389,1.5389,1.5389,1.5389,1.5425,1.5491,1.5774,1.5819,1.614,1.6514,1.6844,1.7005,1.715,1.7274,1.7286,1.7286,1.7286,1.7333,1.7426,1.752,1.7707,1.7947,1.8179,1.8458,1.8689,1.8781,1.8781,1.8781,1.8781,1.8781,1.8781,1.8781,1.8781,1.8781,1.8781,1.8781,1.8781,1.8781,1.892,1.9142,1.9935,2.1239,2.1883,2.2611,2.2896,2.3183,2.318,2.3368,2.3517,2.3541,2.3813,2.3928,2.3926,2.3776,2.3825,2.3929,2.3678,1.0692,1.0692,1.0692,1.0635,1.0526,1.0351,1.0224,0.9989,0.9815,0.9689,0.964,0.9624,0.9624,0.9624,0.9624,0.9624,0.9624,0.9624,0.9624,0.9624,0.9624,0.9624,0.9624,0.9624,0.9624,0.9624,0.9624,0.9624,0.9871,1.1082,1.2096,1.2872,1.419,1.5201,1.573,1.5927,1.6028,1.6136,1.5892,1.5777,1.5773,1.5381,1.5048,1.4736,1.4596,1.4389,1.4128,1.4088,1.4166,1.4243,1.4286,1.4321,1.4447,1.4664,1.4824,1.4915,1.5131,1.5305,1.5389,1.5396,1.5462,1.5606,1.5635,1.5796,1.606,1.6221,1.658,1.6815,1.696,1.7135,1.7274,1.7286,1.7286,1.7286,1.7286,1.7286,1.7286,1.7434,1.7613,1.7893,1.8133,1.8373,1.8743,1.8781,1.8781,1.8781,1.8781,1.8781,1.8781,1.8781,1.8781,1.8781,1.8781,1.8781,1.8781,1.8781,1.8912,1.918,2.0303,2.1641,2.2678,2.3345,2.354,2.367,2.3659,2.3719,2.3831,2.39,2.3905,2.4023,2.4273,2.4339,2.4263,2.4377,2.4137,1.0692,1.0692,1.0692,1.0692,1.0651,1.0485,1.0282,1.0192,0.9912,0.975,0.9652,0.9624,0.9624,0.9624,0.9624,0.9624,0.9624,0.9624,0.9624,0.9624,0.9624,0.9624,0.9624,0.9624,0.9624,0.9624,0.9624,0.9624,1.0064,1.1619,1.2587,1.3167,1.4717,1.5683,1.5832,1.5974,1.6123,1.613,1.6048,1.5926,1.5817,1.5544,1.5297,1.5017,1.4743,1.4522,1.4302,1.4195,1.4168,1.4238,1.4122,1.4173,1.4166,1.4363,1.4573,1.4783,1.5041,1.5264,1.5362,1.544,1.5564,1.5826,1.5913,1.6096,1.6374,1.6668,1.6859,1.6998,1.7172,1.7282,1.7318,1.7286,1.7286,1.7286,1.7286,1.7286,1.738,1.7527,1.7815,1.804,1.8288,1.8566,1.8743,1.8781,1.8781,1.8781,1.8781,1.8781,1.8781,1.8781,1.8781,1.8781,1.8781,1.8781,1.8781,1.8781,1.9004,1.9263,2.061,2.1952,2.3202,2.3819,2.4006,2.4105,2.4075,2.4065,2.4138,2.4157,2.4134,2.4319,2.465,2.4527,2.4352,2.4603,2.4541,1.0692,1.0692,1.0692,1.0692,1.0639,1.0359,1.0253,1.0188,0.9827,0.9693,0.9632,0.9624,0.9624,0.9624,0.9624,0.9624,0.9624,0.9624,0.9624,0.9624,0.9624,0.9624,0.9624,0.9624,0.9624,0.9624,0.9624,0.9624,1.0113,1.1473,1.2684,1.2974,1.4567,1.5825,1.5825,1.5879,1.5872,1.5879,1.5879,1.5893,1.5839,1.5745,1.5571,1.5284,1.5017,1.4901,1.4787,1.4549,1.4549,1.4609,1.4419,1.424,1.4333,1.4517,1.4783,1.5,1.5202,1.5362,1.5433,1.5672,1.584,1.5965,1.6184,1.6455,1.6749,1.6859,1.7042,1.7157,1.725,1.7286,1.7286,1.7286,1.7286,1.7286,1.7286,1.7286,1.7333,1.7527,1.7721,1.7947,1.8234,1.8566,1.8743,1.8781,1.8781,1.8781,1.8781,1.8781,1.8781,1.8781,1.8781,1.8781,1.8781,1.8781,1.8781,1.8827,1.8958,1.9401,2.0701,2.1774,2.3018,2.4133,2.4267,2.4352,2.4383,2.4417,2.4387,2.4503,2.4493,2.4777,2.4965,2.493,2.4893,2.499,2.5033,1.0692,1.0692,1.0692,1.0692,1.066,1.0489,1.0318,1.0204,0.9973,0.9778,0.9648,0.9624,0.9624,0.9624,0.9624,0.9624,0.9624,0.9624,0.9624,0.9624,0.9624,0.9624,0.9624,0.9624,0.9624,0.9624,0.9624,0.9624,1.0064,1.1126,1.2193,1.278,1.4328,1.5296,1.573,1.5825,1.5825,1.5825,1.5825,1.5825,1.5825,1.5818,1.5691,1.5451,1.5237,1.5117,1.4988,1.4867,1.4816,1.4888,1.4788,1.4609,1.46,1.4815,1.5064,1.5319,1.5418,1.566,1.5827,1.5906,1.6045,1.6367,1.6558,1.6748,1.6974,1.7077,1.7143,1.7282,1.7279,1.7286,1.7286,1.7286,1.7286,1.7286,1.7286,1.7286,1.7326,1.7426,1.766,1.7846,1.8187,1.8465,1.8643,1.8781,1.8781,1.8781,1.8781,1.8781,1.8781,1.8781,1.8781,1.8781,1.8781,1.8781,1.8781,1.8827,1.8966,1.9592,2.0619,2.1427,2.2271,2.343,2.4487,2.4487,2.4476,2.4487,2.45,2.469,2.4733,2.4745,2.4851,2.5221,2.5431,2.535,2.5409,1.0692,1.0692,1.0692,1.0692,1.0688,1.0647,1.0448,1.0237,1.0184,0.9888,0.9677,0.9624,0.9624,0.9624,0.9624,0.9624,0.9624,0.9624,0.9624,0.9624,0.9624,0.9624,0.9624,0.9624,0.9624,0.9624,0.9624,0.9624,0.9867,1.0645,1.1658,1.2533,1.3757,1.4675,1.5397,1.5778,1.5825,1.5825,1.5825,1.5825,1.5825,1.5825,1.5705,1.5551,1.5478,1.5378,1.5211,1.5142,1.5102,1.5174,1.5311,1.5229,1.5161,1.5189,1.5459,1.5777,1.5785,1.5937,1.6199,1.6213,1.6338,1.6881,1.6961,1.704,1.7191,1.7282,1.725,1.7264,1.7286,1.7286,1.7286,1.7286,1.7286,1.7286,1.7286,1.7286,1.7286,1.7333,1.7559,1.7994,1.8234,1.8465,1.8643,1.8781,1.8781,1.8781,1.8781,1.8781,1.8781,1.8781,1.8781,1.8781,1.8781,1.8781,1.8781,1.8827,1.892,1.9546,2.0529,2.1338,2.2006,2.3299,2.4368,2.4507,2.4497,2.4507,2.4507,2.4583,2.4583,2.4572,2.4828,2.5211,2.5422,2.5644,2.5737,1.0692,1.0692,1.0692,1.0692,1.0668,1.0546,1.0371,1.0208,1.0069,0.9823,0.9644,0.9624,0.9624,0.9624,0.9624,0.9624,0.9624,0.9624,0.9624,0.9624,0.9624,0.9624,0.9624,0.9624,0.9624,0.9624,0.9624,0.9624,0.9871,1.0645,1.1175,1.1804,1.3318,1.4388,1.4777,1.5302,1.5825,1.5825,1.5825,1.5825,1.5825,1.5818,1.5812,1.5705,1.5705,1.5678,1.5611,1.5458,1.553,1.5952,1.5756,1.5934,1.6144,1.6034,1.6143,1.6365,1.63,1.6308,1.6455,1.6639,1.6741,1.6939,1.7077,1.7223,1.7264,1.7286,1.7286,1.7286,1.7286,1.7286,1.7286,1.7286,1.7286,1.7286,1.7286,1.7286,1.7286,1.7333,1.752,1.7947,1.8241,1.8473,1.8604,1.8743,1.8735,1.8781,1.8781,1.8781,1.8781,1.8781,1.8781,1.8781,1.8781,1.8781,1.8781,1.8781,1.892,1.95,2.0393,2.1472,2.2315,2.3517,2.4239,2.4411,2.4507,2.4507,2.4507,2.4507,2.4507,2.454,2.4871,2.52,2.5369,2.5549,2.5812,1.0692,1.0692,1.0692,1.0692,1.068,1.0607,1.0408,1.0224,1.0114,0.9876,0.9689,0.9624,0.9624,0.9624,0.9624,0.9624,0.9624,0.9624,0.9624,0.9624,0.9624,0.9624,0.9624,0.9624,0.9624,0.9624,0.9624,0.9624,0.9624,1.0064,1.069,1.1463,1.278,1.3709,1.4442,1.5302,1.573,1.5825,1.5825,1.5825,1.5825,1.5825,1.5825,1.5825,1.5825,1.5825,1.5751,1.5725,1.5785,1.6082,1.6169,1.639,1.6625,1.6775,1.6764,1.6938,1.6807,1.6749,1.6777,1.6954,1.6947,1.7091,1.7213,1.7271,1.7286,1.7286,1.7286,1.7286,1.7286,1.7286,1.7286,1.7286,1.7286,1.7286,1.7286,1.7286,1.7286,1.7286,1.752,1.7807,1.7908,1.8148,1.8574,1.8658,1.8697,1.8743,1.8781,1.8781,1.8781,1.8781,1.8781,1.8781,1.8827,1.892,1.8958,1.905,1.9317,1.9857,2.0565,2.1641,2.258,2.3734,2.4229,2.4464,2.4507,2.4507,2.4507,2.4507,2.4507,2.454,2.4871,2.5158,2.5285,2.5506,2.5728,1.0692,1.0692,1.0692,1.0692,1.0692,1.0692,1.0513,1.0249,1.0224,1.0028,0.9701,0.9644,0.9624,0.9624,0.9624,0.9624,0.9624,0.9624,0.9624,0.9624,0.9624,0.9624,0.9624,0.9624,0.9624,0.9624,0.9624,0.9624,0.9624,0.9723,1.0252,1.1224,1.2193,1.3221,1.4292,1.5302,1.5683,1.5825,1.5825,1.5825,1.5825,1.5825,1.5825,1.5879,1.5879,1.5927,1.6015,1.5994,1.6136,1.64,1.656,1.6716,1.6904,1.7185,1.7286,1.7289,1.7077,1.7128,1.7165,1.7113,1.7084,1.7252,1.7264,1.7286,1.7286,1.7286,1.7286,1.7286,1.7286,1.7286,1.7286,1.7286,1.7286,1.7286,1.7286,1.7286,1.7286,1.7333,1.738,1.7527,1.7581,1.7908,1.8381,1.8574,1.8612,1.8735,1.8781,1.8781,1.8781,1.8781,1.8781,1.8781,1.8874,1.9004,1.9188,1.9409,1.9903,2.061,2.1364,2.2296,2.3062,2.3864,2.4186,2.4507,2.4507,2.4507,2.4507,2.4507,2.4507,2.4625,2.4903,2.5115,2.5242,2.5464,2.5738,1.0692,1.0692,1.0692,1.0692,1.0692,1.0692,1.0586,1.0379,1.0221,1.0102,0.9803,0.9697,0.9624,0.9624,0.9624,0.9624,0.9624,0.9624,0.9624,0.9624,0.9624,0.9624,0.9624,0.9624,0.9624,0.9624,0.9624,0.9624,0.9673,0.9673,1.0207,1.1224,1.229,1.3221,1.4292,1.5302,1.5778,1.5825,1.5825,1.5825,1.5825,1.5825,1.5927,1.6028,1.6123,1.617,1.6305,1.6346,1.6548,1.6791,1.6885,1.7066,1.7239,1.7286,1.7286,1.7326,1.7296,1.7289,1.7257,1.7252,1.7223,1.7271,1.7286,1.7286,1.7286,1.7286,1.7286,1.7286,1.7286,1.7286,1.7286,1.7286,1.7286,1.7286,1.7286,1.7286,1.7286,1.7286,1.738,1.738,1.7434,1.7861,1.8334,1.8481,1.8574,1.8697,1.8781,1.8781,1.8781,1.8781,1.8781,1.8781,1.9188,1.9409,1.972,1.9903,2.061,2.1373,2.2076,2.2877,2.3507,2.4046,2.4272,2.4507,2.4507,2.4507,2.4507,2.4507,2.4507,2.4625,2.4818,2.5031,2.5158,2.5422,2.5654,1.0692,1.0692,1.0692,1.0692,1.0692,1.0692,1.053,1.0298,1.0249,1.0053,0.9766,0.9669,0.9624,0.9624,0.9624,0.9624,0.9624,0.9624,0.9624,0.9624,0.9624,0.9624,0.9624,0.9624,0.9624,0.9624,0.9624,0.9624,0.9723,1.0256,1.0837,1.137,1.2732,1.3757,1.4442,1.5302,1.5683,1.5825,1.5825,1.5825,1.5825,1.5825,1.5879,1.5981,1.6123,1.6218,1.6258,1.6487,1.6636,1.6784,1.6885,1.7113,1.7239,1.7286,1.7286,1.7286,1.7286,1.7279,1.7286,1.7286,1.7286,1.7286,1.7286,1.7286,1.7286,1.7286,1.7286,1.7286,1.7286,1.7286,1.7286,1.7286,1.7286,1.7286,1.7286,1.7286,1.7286,1.7286,1.7333,1.7286,1.738,1.7807,1.8187,1.8334,1.852,1.8743,1.8781,1.8781,1.8781,1.8781,1.8781,1.8781,1.9317,1.9903,2.0257,2.061,2.1507,2.2217,2.2482,2.3236,2.382,2.4272,2.4454,2.4507,2.4507,2.4507,2.4507,2.4507,2.4507,2.4625,2.4743,2.4903,2.5073,2.52,2.5422,1.0692,1.0692,1.0692,1.0692,1.0692,1.0692,1.0521,1.0249,1.0233,1.0041,0.9746,0.9652,0.9624,0.9624,0.9624,0.9624,0.9624,0.9624,0.9624,0.9624,0.9624,0.9624,0.9624,0.9624,0.9624,0.9624,0.9624,0.9624,1.0015,1.0788,1.156,1.1658,1.3318,1.434,1.4825,1.5397,1.5825,1.5825,1.5825,1.5825,1.5825,1.5825,1.5927,1.6021,1.6116,1.617,1.6218,1.6447,1.6683,1.6777,1.6972,1.7153,1.7279,1.7286,1.7286,1.7286,1.7286,1.7286,1.7286,1.7286,1.7286,1.7286,1.7286,1.7286,1.7286,1.7286,1.7286,1.7286,1.7286,1.7286,1.7286,1.7286,1.7286,1.7286,1.7286,1.7286,1.7286,1.7286,1.7333,1.7333,1.7426,1.7707,1.7994,1.8187,1.8419,1.8689,1.8781,1.8781,1.8781,1.8781,1.8781,1.8827,1.9583,2.0303,2.0881,2.1463,2.235,2.2974,2.3236,2.3551,2.4133,2.4368,2.4454,2.4507,2.4507,2.4507,2.4507,2.4507,2.4507,2.4583,2.4658,2.4775,2.4946,2.5073,2.52,1.0692,1.0692,1.0692,1.0692,1.0692,1.0692,1.0586,1.0355,1.0221,1.0038,0.9811,0.9705,0.9624,0.9624,0.9624,0.9624,0.9624,0.9624,0.9624,0.9624,0.9624,0.9624,0.9624,0.9624,0.9624,0.9624,0.9624,0.9624,1.0113,1.1517,1.2242,1.2775,1.3896,1.4819,1.535,1.5683,1.5825,1.5825,1.5825,1.5825,1.5825,1.5872,1.6015,1.6353,1.6359,1.6414,1.6878,1.6925,1.6925,1.6925,1.7106,1.7239,1.7286,1.7286,1.7286,1.7286,1.7286,1.7286,1.7286,1.7286,1.7286,1.7286,1.7286,1.7286,1.7286,1.7286,1.7286,1.7286,1.7286,1.7286,1.7286,1.7286,1.7286,1.7286,1.7286,1.7286,1.7286,1.7286,1.7333,1.7333,1.752,1.7761,1.804,1.8234,1.8419,1.8735,1.8781,1.8781,1.8781,1.8781,1.8781,1.9004,1.9857,2.0656,2.1507,2.2315,2.3202,2.3647,2.3917,2.41,2.4411,2.4507,2.4507,2.4507,2.4507,2.4507,2.4507,2.4507,2.4507,2.4507,2.4583,2.4658,2.4818,2.4999,2.5084,1.0692,1.0692,1.0692,1.0692,1.0692,1.0692,1.053,1.0286,1.0193,0.9994,0.9726,0.9657,0.9624,0.9624,0.9624,0.9624,0.9624,0.9624,0.9624,0.9624,0.9624,0.9624,0.9624,0.9624,0.9624,0.9624,0.9624,0.9624,0.9871,1.1814,1.249,1.3119,1.4382,1.5201,1.573,1.5825,1.5825,1.5825,1.5825,1.5825,1.5825,1.5825,1.5974,1.6312,1.6494,1.6494,1.6777,1.7052,1.7059,1.7113,1.7192,1.7286,1.7286,1.7286,1.7286,1.7286,1.7286,1.7286,1.7286,1.7286,1.7286,1.7286,1.7286,1.7286,1.7286,1.7286,1.7286,1.7286,1.7286,1.7286,1.7286,1.7286,1.7286,1.7286,1.7286,1.7286,1.7286,1.7286,1.7286,1.7333,1.7527,1.7815,1.8048,1.8334,1.8512,1.8735,1.8781,1.8781,1.8781,1.8781,1.8781,1.9279,2.0085,2.0791,2.165,2.2799,2.4003,2.4272,2.4507,2.4507,2.4507,2.4507,2.4507,2.4507,2.4507,2.4507,2.4507,2.4507,2.4507,2.4507,2.4497,2.4529,2.47,2.4871,2.4956,1.0692,1.0692,1.0692,1.0692,1.0692,1.0692,1.0526,1.0318,1.0237,0.9961,0.9632,0.9624,0.9624,0.9624,0.9624,0.9624,0.9624,0.9624,0.9624,0.9624,0.9624,0.9624,0.9624,0.9624,0.9624,0.9673,1.0015,1.0162,1.0306,1.2204,1.3076,1.38,1.4813,1.5588,1.5778,1.5825,1.5825,1.5825,1.5825,1.5825,1.5825,1.5825,1.6021,1.6265,1.6407,1.6595,1.6737,1.7019,1.7106,1.7106,1.7145,1.7286,1.7286,1.7286,1.7286,1.7286,1.7286,1.7286,1.7286,1.7286,1.7286,1.7286,1.7286,1.7286,1.7286,1.7286,1.7286,1.7286,1.7286,1.7286,1.7286,1.7286,1.7286,1.7286,1.7286,1.7286,1.7286,1.7286,1.7286,1.7333,1.7621,1.7955,1.8141,1.8373,1.8604,1.8781,1.8781,1.8781,1.8781,1.8781,1.8781,1.9455,2.0402,2.1069,2.1784,2.3071,2.4229,2.4315,2.4507,2.4507,2.4507,2.4507,2.4507,2.4507,2.4507,2.4507,2.4507,2.4507,2.4507,2.4507,2.4497,2.4497,2.4529,2.47,2.4743,1.068,1.0692,1.0676,1.0672,1.0655,1.0684,1.057,1.0351,1.018,0.9933,0.9595,0.9624,0.9624,0.9624,0.9624,0.9624,0.9624,0.9624,0.9624,0.9624,0.9624,0.9624,0.9624,0.9624,0.9723,0.9871,1.04,1.0881,1.1175,1.3028,1.3908,1.434,1.5112,1.5825,1.5825,1.5825,1.5825,1.5825,1.5825,1.5825,1.5825,1.5825,1.6062,1.6305,1.6407,1.6555,1.6885,1.7019,1.7113,1.7106,1.7192,1.7286,1.7286,1.7286,1.7286,1.7286,1.7286,1.7286,1.7286,1.7286,1.7286,1.7286,1.7286,1.7286,1.7286,1.7286,1.7286,1.7286,1.7286,1.7286,1.7286,1.7286,1.7286,1.7286,1.7286,1.7286,1.7286,1.7286,1.7286,1.738,1.7753,1.8133,1.8272,1.8458,1.8689,1.8781,1.8781,1.8781,1.8781,1.8781,1.8781,1.9455,2.0402,2.1204,2.2006,2.3474,2.4411,2.4497,2.4507,2.4507,2.4507,2.4507,2.4507,2.4507,2.4507,2.4507,2.4507,2.4507,2.4507,2.4507,2.4507,2.4497,2.4497,2.4529,2.4625,1.0412,1.0509,1.0391,1.0396,1.0359,1.0473,1.042,1.0217,0.9949,0.9738,0.9648,0.9624,0.9624,0.9624,0.9624,0.9624,0.9624,0.9624,0.9624,0.9624,0.9624,0.9624,0.9624,0.9772,1.0015,1.0596,1.117,1.1755,1.2193,1.3752,1.4202,1.4538,1.5302,1.573,1.5825,1.5825,1.5825,1.5825,1.5825,1.5825,1.5825,1.5825,1.5974,1.6305,1.6407,1.665,1.6986,1.712,1.7153,1.7153,1.7286,1.7286,1.7286,1.7286,1.7286,1.7286,1.7286,1.7286,1.7286,1.7286,1.7286,1.7286,1.7286,1.7286,1.7286,1.7286,1.7286,1.7286,1.7286,1.7286,1.7286,1.7286,1.7286,1.7286,1.7286,1.7286,1.7286,1.7286,1.7333,1.7473,1.7753,1.8218,1.8504,1.855,1.8735,1.8781,1.8781,1.8781,1.8781,1.8781,1.8827,1.9409,2.0212,2.1114,2.2183,2.3604,2.4411,2.4497,2.4507,2.4507,2.4507,2.4507,2.4507,2.4507,2.4507,2.4507,2.4507,2.4507,2.4507,2.4507,2.4507,2.4507,2.4497,2.454,2.4625,1.0229,1.0322,1.0213,1.0212,1.0233,1.029,1.0237,1.0098,0.9815,0.9685,0.9591,0.9624,0.9624,0.9624,0.9624,0.9624,0.9624,0.9624,0.9624,0.9624,0.9624,0.9624,0.9673,1.0015,1.0547,1.1224,1.2052,1.2732,1.3264,1.4286,1.4825,1.5064,1.5439,1.573,1.5825,1.5825,1.5825,1.5825,1.5825,1.5825,1.5825,1.5825,1.5927,1.6218,1.6454,1.6737,1.6979,1.716,1.7286,1.7286,1.7286,1.7286,1.7286,1.7286,1.7286,1.7286,1.7286,1.7286,1.7286,1.7286,1.7286,1.7286,1.7286,1.7286,1.7286,1.7286,1.7286,1.7286,1.7286,1.7286,1.7286,1.7286,1.7286,1.7286,1.7286,1.7286,1.7286,1.7286,1.7333,1.7473,1.7753,1.8265,1.8689,1.8735,1.8781,1.8781,1.8781,1.8874,1.8966,1.8912,1.9096,1.972,2.0475,2.1507,2.2536,2.3604,2.4229,2.4454,2.4507,2.4507,2.4507,2.4507,2.4507,2.4507,2.4507,2.4507,2.4507,2.4507,2.4507,2.4507,2.4507,2.4507,2.4507,2.454,2.4583,1.02,1.0204,1.02,1.018,1.0136,1.0123,1.003,0.988,0.9864,0.977,0.9632,0.9624,0.9624,0.9624,0.9624,0.9624,0.9624,0.9624,0.9624,0.9624,0.9624,0.9624,0.9965,1.0547,1.1077,1.1907,1.2877,1.3806,1.4388,1.5057,1.554,1.5642,1.5683,1.5825,1.5825,1.5825,1.5825,1.5825,1.5825,1.5825,1.5825,1.5825,1.5933,1.617,1.6454,1.6737,1.6972,1.7153,1.7286,1.7286,1.7286,1.7286,1.7286,1.7286,1.7286,1.7286,1.7286,1.7286,1.7286,1.7286,1.7286,1.7286,1.7286,1.7286,1.7286,1.7286,1.7286,1.7286,1.7286,1.7286,1.7286,1.7286,1.7286,1.7286,1.7286,1.7286,1.7286,1.7286,1.7286,1.7473,1.7846,1.8272,1.8643,1.8781,1.9225,1.9363,1.95,1.9683,1.9683,1.9271,1.9538,2.0121,2.097,2.2041,2.2974,2.382,2.4229,2.4507,2.4507,2.4507,2.4507,2.4507,2.4507,2.4507,2.4507,2.4507,2.4507,2.4507,2.4507,2.4507,2.4507,2.4507,2.4507,2.4497,2.4572,0.9851,0.9949,0.9835,0.9778,0.9782,0.9782,0.975,0.9701,0.9697,0.9665,0.9628,0.9624,0.9624,0.9624,0.9624,0.9624,0.9624,0.9624,0.9624,0.9624,0.9624,0.9624,1.0015,1.0739,1.1517,1.249,1.3559,1.4723,1.5201,1.5825,1.5825,1.5778,1.5825,1.5825,1.5825,1.5825,1.5825,1.5825,1.5825,1.5825,1.5825,1.5825,1.5981,1.6224,1.6501,1.6737,1.6979,1.72,1.7286,1.7286,1.7286,1.7286,1.7286,1.7286,1.7286,1.7286,1.7286,1.7286,1.7286,1.7286,1.7286,1.7286,1.7286,1.7286,1.7286,1.7286,1.7286,1.7286,1.7286,1.7286,1.7286,1.7286,1.7286,1.7286,1.7286,1.7286,1.7286,1.7286,1.7333,1.7473,1.7854,1.8179,1.8596,1.9409,1.9812,2.0031,2.0212,2.0439,2.0447,2.0085,2.0212,2.0827,2.1543,2.257,2.3149,2.3907,2.4229,2.4507,2.4507,2.4507,2.4507,2.4507,2.4507,2.4507,2.4507,2.4507,2.4507,2.4507,2.4507,2.4507,2.4507,2.4507,2.4507,2.454,2.4658,0.9689,0.9762,0.9623,0.9624,0.9624,0.9624,0.9624,0.9624,0.9624,0.9624,0.9624,0.9624,0.9624,0.9624,0.9624,0.9624,0.9624,0.9624,0.9624,0.9624,0.9624,0.9624,1.0015,1.1033,1.2052,1.3022,1.4094,1.5255,1.573,1.5825,1.5825,1.5825,1.5825,1.5825,1.5825,1.5825,1.5825,1.5825,1.5825,1.5825,1.5825,1.5879,1.6076,1.6224,1.6548,1.6838,1.7026,1.72,1.7286,1.7286,1.7286,1.7286,1.7286,1.7286,1.7286,1.7286,1.7286,1.7286,1.7286,1.7286,1.7286,1.7286,1.7286,1.7286,1.7286,1.7286,1.7286,1.7286,1.7286,1.7286,1.7286,1.7286,1.7286,1.7286,1.7286,1.7286,1.7286,1.7286,1.738,1.7527,1.7807,1.8187,1.8819,1.9766,2.0348,2.0393,2.0709,2.1159,2.1204,2.1024,2.1284,2.1854,2.2429,2.3139,2.3637,2.4003,2.4272,2.4507,2.4507,2.4507,2.4507,2.4507,2.4507,2.4507,2.4507,2.4507,2.4507,2.4507,2.4507,2.4507,2.454,2.4583,2.4583,2.454,2.4743,0.9628,0.9632,0.9624,0.9624,0.9624,0.9624,0.9624,0.9624,0.9624,0.9624,0.9624,0.9624,0.9624,0.9624,0.9624,0.9624,0.9624,0.9624,0.9624,0.9624,0.9624,0.9673,1.0498,1.1614,1.2587,1.3457,1.4472,1.5588,1.573,1.5825,1.5825,1.5825,1.5825,1.5825,1.5825,1.5825,1.5825,1.5825,1.5825,1.5825,1.5872,1.6021,1.6224,1.6319,1.665,1.7026,1.7066,1.7153,1.7286,1.7286,1.7286,1.7286,1.7286,1.7286,1.7286,1.7286,1.7286,1.7286,1.7286,1.7286,1.7286,1.7286,1.7286,1.7286,1.7286,1.7286,1.7286,1.7286,1.7286,1.7286,1.7286,1.7286,1.7286,1.7286,1.7286,1.7286,1.7286,1.7333,1.7434,1.7574,1.7854,1.8272,1.9134,2.0076,2.115,2.097,2.1516,2.2138,2.2183,2.2094,2.2217,2.279,2.3236,2.3681,2.4003,2.4315,2.4411,2.4507,2.4507,2.4507,2.4507,2.4507,2.4507,2.4507,2.4507,2.4507,2.4507,2.4507,2.4507,2.4507,2.454,2.4625,2.4668,2.4625,2.4882,0.9624,0.9624,0.9624,0.9624,0.9624,0.9624,0.9624,0.9624,0.9624,0.9624,0.9624,0.9624,0.9624,0.9624,0.9624,0.9624,0.9624,0.9624,0.9624,0.9624,0.9624,1.006,1.0837,1.1999,1.3022,1.4088,1.5057,1.5825,1.5825,1.5825,1.5825,1.5825,1.5825,1.5825,1.5825,1.5825,1.5825,1.5825,1.5825,1.5825,1.5879,1.6069,1.6265,1.6501,1.6831,1.7059,1.7153,1.7239,1.7286,1.7286,1.7286,1.7286,1.7286,1.7286,1.7286,1.7286,1.7286,1.7286,1.7286,1.7286,1.7286,1.7286,1.7286,1.7286,1.7286,1.7286,1.7286,1.7286,1.7286,1.7286,1.7286,1.7286,1.7286,1.7286,1.7286,1.7286,1.7286,1.738,1.7434,1.7667,1.7947,1.8627,1.9446,2.0439,2.1507,2.2448,2.3343,2.3831,2.3701,2.356,2.3071,2.3464,2.3864,2.4272,2.4497,2.4507,2.4507,2.4507,2.4507,2.4507,2.4507,2.4507,2.4507,2.4507,2.4507,2.4507,2.4507,2.4507,2.4507,2.4507,2.4583,2.47,2.4743,2.4743,2.5041,0.9624,0.9624,0.9624,0.9624,0.9624,0.9624,0.9624,0.9624,0.9624,0.9624,0.9624,0.9624,0.9624,0.9624,0.9624,0.9624,0.9624,0.9624,0.9624,0.9624,0.9772,1.0301,1.1224,1.229,1.3216,1.4286,1.5248,1.5825,1.5825,1.5825,1.5825,1.5825,1.5825,1.5825,1.5825,1.5825,1.5825,1.5825,1.5825,1.5832,1.5927,1.6211,1.6407,1.6636,1.6911,1.7145,1.7239,1.7286,1.7286,1.7286,1.7286,1.7286,1.7286,1.7286,1.7286,1.7286,1.7286,1.7286,1.7286,1.7286,1.7286,1.7286,1.7286,1.7286,1.7286,1.7286,1.7286,1.7286,1.7286,1.7286,1.7286,1.7286,1.7286,1.7286,1.7286,1.7286,1.7286,1.7333,1.7481,1.7667,1.8032,1.8627,1.9575,2.0754,2.1828,2.2755,2.3874,2.4411,2.4507,2.4507,2.4143,2.396,2.4272,2.4454,2.4497,2.4507,2.4507,2.4507,2.4507,2.4507,2.4507,2.4507,2.4507,2.4507,2.4507,2.4507,2.4507,2.4507,2.4507,2.4507,2.4615,2.4733,2.4775,2.4903,2.5211,0.9624,0.9624,0.9624,0.9624,0.9624,0.9624,0.9624,0.9624,0.9624,0.9624,0.9624,0.9624,0.9624,0.9624,0.9624,0.9624,0.9624,0.9624,0.9624,0.9673,0.9867,1.0694,1.1614,1.2538,1.3655,1.458,1.5397,1.573,1.5825,1.5825,1.5825,1.5825,1.5825,1.5825,1.5825,1.5825,1.5825,1.5825,1.5825,1.5927,1.6163,1.6447,1.6588,1.677,1.7044,1.7286,1.7286,1.7286,1.7286,1.7286,1.7286,1.7286,1.7286,1.7286,1.7286,1.7286,1.7286,1.7286,1.7286,1.7286,1.7286,1.7286,1.7286,1.7286,1.7286,1.7286,1.7286,1.7286,1.7286,1.7286,1.7286,1.7286,1.7286,1.7286,1.7286,1.7286,1.7286,1.7333,1.7481,1.7667,1.8172,1.8711,1.9985,2.1204,2.2094,2.3018,2.3734,2.4186,2.4507,2.4507,2.4325,2.4229,2.4411,2.4497,2.4507,2.4507,2.4507,2.4507,2.4507,2.4507,2.4507,2.4507,2.4507,2.4507,2.4507,2.4507,2.4507,2.4507,2.4507,2.4507,2.4658,2.4818,2.4956,2.5084,2.538,0.9624,0.9624,0.9624,0.9624,0.9624,0.9624,0.9624,0.9624,0.9624,0.9624,0.9624,0.9624,0.9624,0.9624,0.9624,0.9624,0.9624,0.9624,0.9624,0.9673,1.035,1.137,1.249,1.3505,1.4532,1.5207,1.5635,1.573,1.5825,1.5825,1.5825,1.5825,1.5825,1.5825,1.5825,1.5825,1.5825,1.5825,1.5838,1.5893,1.6042,1.6319,1.669,1.6918,1.7145,1.7286,1.7286,1.7286,1.7286,1.7286,1.7286,1.7286,1.7286,1.7286,1.7286,1.7286,1.7286,1.7286,1.7286,1.7286,1.7286,1.7286,1.7286,1.7286,1.7286,1.7286,1.7286,1.7286,1.7286,1.7286,1.7286,1.7286,1.7286,1.7286,1.7286,1.7286,1.7286,1.738,1.7473,1.7714,1.8079,1.9301,2.0926,2.1828,2.2448,2.3333,2.41,2.4507,2.4507,2.4507,2.4507,2.4507,2.4507,2.4507,2.4507,2.4507,2.4507,2.4507,2.4507,2.4507,2.4507,2.4507,2.4507,2.4507,2.4507,2.4507,2.4507,2.4507,2.4507,2.454,2.4743,2.4903,2.5041,2.5253,2.5549]}]]